<?xml version="1.0" encoding="UTF-8" standalone="no" ?>
<gpx xmlns="http://www.topografix.com/GPX/1/1" xmlns:xsi="http://www.w3.org/2001/XMLSchema-instance" xsi:schemaLocation="http://www.topografix.com/GPX/1/1 http://www.topografix.com/GPX/1/1/gpx.xsd" version="1.1" creator="VisuGPX - https://www.visugpx.com">
  <metadata>
    <name>Aurignac-Grotte de Rodes</name>
    <desc><![CDATA[Ce parcours varié par les paysages débute par une belle vue en balcon sur la chaîne des Pyrénées, ensuite nous arrivons à la Chapelle St Bernard, après avoir contourné Montoulieu nous grimpons sur les coteaux pour rejoindre le GR 86. Nous quittons le GR pour faire un détour  sur de jolis chemins bien entretenus qui nous amène à la Grotte de Rodes. Retour par un chemin bordé de panneaux explicatifs sur l’histoire et la préhistoire de la région.]]></desc>
  </metadata>
  <trk>
    <name><![CDATA[04-DEC-16 15:46:52]]></name>
    <trkseg>
      <trkpt lat="43.21622" lon="0.8829">
        <ele>386.11</ele>
        <time>2016-12-04T08:02:10Z</time>
      </trkpt>
      <trkpt lat="43.21622" lon="0.8829">
        <ele>383.22</ele>
        <time>2016-12-04T08:02:12Z</time>
      </trkpt>
      <trkpt lat="43.21622" lon="0.8829">
        <ele>382.74</ele>
        <time>2016-12-04T08:02:13Z</time>
      </trkpt>
      <trkpt lat="43.21622" lon="0.88289">
        <ele>379.86</ele>
        <time>2016-12-04T08:02:19Z</time>
      </trkpt>
      <trkpt lat="43.21622" lon="0.88289">
        <ele>386.11</ele>
        <time>2016-12-04T08:02:21Z</time>
      </trkpt>
      <trkpt lat="43.21622" lon="0.88289">
        <ele>383.22</ele>
        <time>2016-12-04T08:02:22Z</time>
      </trkpt>
      <trkpt lat="43.21623" lon="0.88289">
        <ele>386.59</ele>
        <time>2016-12-04T08:02:26Z</time>
      </trkpt>
      <trkpt lat="43.21623" lon="0.88288">
        <ele>381.78</ele>
        <time>2016-12-04T08:02:27Z</time>
      </trkpt>
      <trkpt lat="43.21623" lon="0.88288">
        <ele>387.07</ele>
        <time>2016-12-04T08:02:31Z</time>
      </trkpt>
      <trkpt lat="43.21623" lon="0.88287">
        <ele>383.22</ele>
        <time>2016-12-04T08:02:32Z</time>
      </trkpt>
      <trkpt lat="43.21622" lon="0.88287">
        <ele>383.7</ele>
        <time>2016-12-04T08:02:44Z</time>
      </trkpt>
      <trkpt lat="43.2162" lon="0.88289">
        <ele>384.18</ele>
        <time>2016-12-04T08:02:56Z</time>
      </trkpt>
      <trkpt lat="43.21621" lon="0.88292">
        <ele>383.7</ele>
        <time>2016-12-04T08:03:20Z</time>
      </trkpt>
      <trkpt lat="43.21623" lon="0.88292">
        <ele>383.7</ele>
        <time>2016-12-04T08:03:48Z</time>
      </trkpt>
      <trkpt lat="43.21621" lon="0.88296">
        <ele>384.18</ele>
        <time>2016-12-04T08:04:21Z</time>
      </trkpt>
      <trkpt lat="43.21621" lon="0.88296">
        <ele>384.18</ele>
        <time>2016-12-04T08:04:47Z</time>
      </trkpt>
      <trkpt lat="43.21623" lon="0.88297">
        <ele>384.66</ele>
        <time>2016-12-04T08:05:20Z</time>
      </trkpt>
      <trkpt lat="43.21624" lon="0.88294">
        <ele>384.66</ele>
        <time>2016-12-04T08:05:44Z</time>
      </trkpt>
      <trkpt lat="43.21621" lon="0.88295">
        <ele>384.66</ele>
        <time>2016-12-04T08:06:21Z</time>
      </trkpt>
      <trkpt lat="43.21619" lon="0.88294">
        <ele>384.66</ele>
        <time>2016-12-04T08:06:57Z</time>
      </trkpt>
      <trkpt lat="43.21618" lon="0.88292">
        <ele>384.18</ele>
        <time>2016-12-04T08:07:24Z</time>
      </trkpt>
      <trkpt lat="43.21619" lon="0.8829">
        <ele>384.66</ele>
        <time>2016-12-04T08:07:44Z</time>
      </trkpt>
      <trkpt lat="43.21624" lon="0.88291">
        <ele>384.18</ele>
        <time>2016-12-04T08:08:07Z</time>
      </trkpt>
      <trkpt lat="43.21625" lon="0.88292">
        <ele>386.59</ele>
        <time>2016-12-04T08:08:19Z</time>
      </trkpt>
      <trkpt lat="43.21625" lon="0.88292">
        <ele>385.15</ele>
        <time>2016-12-04T08:08:20Z</time>
      </trkpt>
      <trkpt lat="43.21621" lon="0.8829">
        <ele>384.66</ele>
        <time>2016-12-04T08:08:31Z</time>
      </trkpt>
      <trkpt lat="43.21624" lon="0.88288">
        <ele>384.66</ele>
        <time>2016-12-04T08:08:43Z</time>
      </trkpt>
      <trkpt lat="43.21626" lon="0.88285">
        <ele>384.66</ele>
        <time>2016-12-04T08:08:54Z</time>
      </trkpt>
      <trkpt lat="43.21627" lon="0.88283">
        <ele>385.15</ele>
        <time>2016-12-04T08:08:55Z</time>
      </trkpt>
      <trkpt lat="43.21627" lon="0.88268">
        <ele>384.66</ele>
        <time>2016-12-04T08:09:07Z</time>
      </trkpt>
      <trkpt lat="43.21625" lon="0.88263">
        <ele>384.66</ele>
        <time>2016-12-04T08:09:16Z</time>
      </trkpt>
      <trkpt lat="43.21624" lon="0.88258">
        <ele>384.18</ele>
        <time>2016-12-04T08:09:22Z</time>
      </trkpt>
      <trkpt lat="43.21622" lon="0.88249">
        <ele>384.18</ele>
        <time>2016-12-04T08:09:27Z</time>
      </trkpt>
      <trkpt lat="43.21622" lon="0.88242">
        <ele>384.18</ele>
        <time>2016-12-04T08:09:31Z</time>
      </trkpt>
      <trkpt lat="43.21619" lon="0.88226">
        <ele>383.7</ele>
        <time>2016-12-04T08:09:43Z</time>
      </trkpt>
      <trkpt lat="43.21617" lon="0.8822">
        <ele>384.18</ele>
        <time>2016-12-04T08:09:47Z</time>
      </trkpt>
      <trkpt lat="43.21615" lon="0.88217">
        <ele>379.38</ele>
        <time>2016-12-04T08:09:50Z</time>
      </trkpt>
      <trkpt lat="43.21615" lon="0.88216">
        <ele>385.63</ele>
        <time>2016-12-04T08:09:51Z</time>
      </trkpt>
      <trkpt lat="43.21613" lon="0.88213">
        <ele>382.26</ele>
        <time>2016-12-04T08:09:54Z</time>
      </trkpt>
      <trkpt lat="43.21612" lon="0.88211">
        <ele>386.59</ele>
        <time>2016-12-04T08:09:56Z</time>
      </trkpt>
      <trkpt lat="43.21611" lon="0.8821">
        <ele>383.7</ele>
        <time>2016-12-04T08:09:57Z</time>
      </trkpt>
      <trkpt lat="43.21611" lon="0.88209">
        <ele>382.74</ele>
        <time>2016-12-04T08:09:58Z</time>
      </trkpt>
      <trkpt lat="43.21609" lon="0.88201">
        <ele>383.22</ele>
        <time>2016-12-04T08:10:09Z</time>
      </trkpt>
      <trkpt lat="43.21606" lon="0.882">
        <ele>382.26</ele>
        <time>2016-12-04T08:10:26Z</time>
      </trkpt>
      <trkpt lat="43.21603" lon="0.88202">
        <ele>382.26</ele>
        <time>2016-12-04T08:10:29Z</time>
      </trkpt>
      <trkpt lat="43.21602" lon="0.88221">
        <ele>381.3</ele>
        <time>2016-12-04T08:10:42Z</time>
      </trkpt>
      <trkpt lat="43.21606" lon="0.88239">
        <ele>379.38</ele>
        <time>2016-12-04T08:10:55Z</time>
      </trkpt>
      <trkpt lat="43.21591" lon="0.88233">
        <ele>376.97</ele>
        <time>2016-12-04T08:11:08Z</time>
      </trkpt>
      <trkpt lat="43.21578" lon="0.8823">
        <ele>375.05</ele>
        <time>2016-12-04T08:11:18Z</time>
      </trkpt>
      <trkpt lat="43.21562" lon="0.88222">
        <ele>373.13</ele>
        <time>2016-12-04T08:11:31Z</time>
      </trkpt>
      <trkpt lat="43.21543" lon="0.88215">
        <ele>372.65</ele>
        <time>2016-12-04T08:11:46Z</time>
      </trkpt>
      <trkpt lat="43.21534" lon="0.88211">
        <ele>372.17</ele>
        <time>2016-12-04T08:11:53Z</time>
      </trkpt>
      <trkpt lat="43.21516" lon="0.88211">
        <ele>372.65</ele>
        <time>2016-12-04T08:12:08Z</time>
      </trkpt>
      <trkpt lat="43.21514" lon="0.8821">
        <ele>371.21</ele>
        <time>2016-12-04T08:12:10Z</time>
      </trkpt>
      <trkpt lat="43.21513" lon="0.8821">
        <ele>374.57</ele>
        <time>2016-12-04T08:12:11Z</time>
      </trkpt>
      <trkpt lat="43.21511" lon="0.88209">
        <ele>373.13</ele>
        <time>2016-12-04T08:12:12Z</time>
      </trkpt>
      <trkpt lat="43.2151" lon="0.88209">
        <ele>373.13</ele>
        <time>2016-12-04T08:12:13Z</time>
      </trkpt>
      <trkpt lat="43.21502" lon="0.88222">
        <ele>374.09</ele>
        <time>2016-12-04T08:12:25Z</time>
      </trkpt>
      <trkpt lat="43.21502" lon="0.88225">
        <ele>374.57</ele>
        <time>2016-12-04T08:12:28Z</time>
      </trkpt>
      <trkpt lat="43.21493" lon="0.8824">
        <ele>376.49</ele>
        <time>2016-12-04T08:12:41Z</time>
      </trkpt>
      <trkpt lat="43.2149" lon="0.88259">
        <ele>378.42</ele>
        <time>2016-12-04T08:12:54Z</time>
      </trkpt>
      <trkpt lat="43.21486" lon="0.88275">
        <ele>378.9</ele>
        <time>2016-12-04T08:13:07Z</time>
      </trkpt>
      <trkpt lat="43.21474" lon="0.88283">
        <ele>381.78</ele>
        <time>2016-12-04T08:13:20Z</time>
      </trkpt>
      <trkpt lat="43.21474" lon="0.88283">
        <ele>381.78</ele>
        <time>2016-12-04T08:13:21Z</time>
      </trkpt>
      <trkpt lat="43.21471" lon="0.8829">
        <ele>382.26</ele>
        <time>2016-12-04T08:13:30Z</time>
      </trkpt>
      <trkpt lat="43.21463" lon="0.88306">
        <ele>384.66</ele>
        <time>2016-12-04T08:13:45Z</time>
      </trkpt>
      <trkpt lat="43.2145" lon="0.88321">
        <ele>387.07</ele>
        <time>2016-12-04T08:14:02Z</time>
      </trkpt>
      <trkpt lat="43.21444" lon="0.88331">
        <ele>390.91</ele>
        <time>2016-12-04T08:14:14Z</time>
      </trkpt>
      <trkpt lat="43.21439" lon="0.88346">
        <ele>391.39</ele>
        <time>2016-12-04T08:14:27Z</time>
      </trkpt>
      <trkpt lat="43.21432" lon="0.8836">
        <ele>393.32</ele>
        <time>2016-12-04T08:14:41Z</time>
      </trkpt>
      <trkpt lat="43.21428" lon="0.88366">
        <ele>394.28</ele>
        <time>2016-12-04T08:14:47Z</time>
      </trkpt>
      <trkpt lat="43.2142" lon="0.88377">
        <ele>396.68</ele>
        <time>2016-12-04T08:14:59Z</time>
      </trkpt>
      <trkpt lat="43.21418" lon="0.88383">
        <ele>398.12</ele>
        <time>2016-12-04T08:15:04Z</time>
      </trkpt>
      <trkpt lat="43.21414" lon="0.88398">
        <ele>398.12</ele>
        <time>2016-12-04T08:15:16Z</time>
      </trkpt>
      <trkpt lat="43.2141" lon="0.88412">
        <ele>400.05</ele>
        <time>2016-12-04T08:15:26Z</time>
      </trkpt>
      <trkpt lat="43.21407" lon="0.88425">
        <ele>401.49</ele>
        <time>2016-12-04T08:15:37Z</time>
      </trkpt>
      <trkpt lat="43.21403" lon="0.88435">
        <ele>402.45</ele>
        <time>2016-12-04T08:15:49Z</time>
      </trkpt>
      <trkpt lat="43.21407" lon="0.88436">
        <ele>402.93</ele>
        <time>2016-12-04T08:16:06Z</time>
      </trkpt>
      <trkpt lat="43.21402" lon="0.88429">
        <ele>401.97</ele>
        <time>2016-12-04T08:16:16Z</time>
      </trkpt>
      <trkpt lat="43.21403" lon="0.88429">
        <ele>405.33</ele>
        <time>2016-12-04T08:16:17Z</time>
      </trkpt>
      <trkpt lat="43.21403" lon="0.88427">
        <ele>403.41</ele>
        <time>2016-12-04T08:16:35Z</time>
      </trkpt>
      <trkpt lat="43.214" lon="0.88444">
        <ele>404.85</ele>
        <time>2016-12-04T08:16:47Z</time>
      </trkpt>
      <trkpt lat="43.21395" lon="0.88462">
        <ele>406.77</ele>
        <time>2016-12-04T08:17:00Z</time>
      </trkpt>
      <trkpt lat="43.21391" lon="0.88479">
        <ele>408.22</ele>
        <time>2016-12-04T08:17:11Z</time>
      </trkpt>
      <trkpt lat="43.21386" lon="0.88487">
        <ele>409.18</ele>
        <time>2016-12-04T08:17:18Z</time>
      </trkpt>
      <trkpt lat="43.21384" lon="0.88489">
        <ele>409.18</ele>
        <time>2016-12-04T08:17:20Z</time>
      </trkpt>
      <trkpt lat="43.21372" lon="0.88499">
        <ele>410.62</ele>
        <time>2016-12-04T08:17:32Z</time>
      </trkpt>
      <trkpt lat="43.21361" lon="0.88507">
        <ele>412.06</ele>
        <time>2016-12-04T08:17:43Z</time>
      </trkpt>
      <trkpt lat="43.21349" lon="0.88513">
        <ele>413.98</ele>
        <time>2016-12-04T08:17:54Z</time>
      </trkpt>
      <trkpt lat="43.21348" lon="0.88513">
        <ele>413.98</ele>
        <time>2016-12-04T08:17:55Z</time>
      </trkpt>
      <trkpt lat="43.21348" lon="0.8851">
        <ele>414.47</ele>
        <time>2016-12-04T08:18:07Z</time>
      </trkpt>
      <trkpt lat="43.21346" lon="0.88511">
        <ele>413.98</ele>
        <time>2016-12-04T08:18:12Z</time>
      </trkpt>
      <trkpt lat="43.21341" lon="0.88519">
        <ele>415.43</ele>
        <time>2016-12-04T08:18:21Z</time>
      </trkpt>
      <trkpt lat="43.21332" lon="0.88534">
        <ele>415.43</ele>
        <time>2016-12-04T08:18:32Z</time>
      </trkpt>
      <trkpt lat="43.21319" lon="0.88551">
        <ele>416.87</ele>
        <time>2016-12-04T08:18:47Z</time>
      </trkpt>
      <trkpt lat="43.21309" lon="0.88567">
        <ele>416.87</ele>
        <time>2016-12-04T08:18:59Z</time>
      </trkpt>
      <trkpt lat="43.21298" lon="0.88581">
        <ele>415.91</ele>
        <time>2016-12-04T08:19:12Z</time>
      </trkpt>
      <trkpt lat="43.21288" lon="0.88589">
        <ele>414.47</ele>
        <time>2016-12-04T08:19:22Z</time>
      </trkpt>
      <trkpt lat="43.21284" lon="0.88599">
        <ele>413.5</ele>
        <time>2016-12-04T08:19:34Z</time>
      </trkpt>
      <trkpt lat="43.21282" lon="0.88602">
        <ele>412.54</ele>
        <time>2016-12-04T08:19:37Z</time>
      </trkpt>
      <trkpt lat="43.21282" lon="0.88608">
        <ele>413.02</ele>
        <time>2016-12-04T08:19:40Z</time>
      </trkpt>
      <trkpt lat="43.21283" lon="0.88635">
        <ele>411.1</ele>
        <time>2016-12-04T08:19:55Z</time>
      </trkpt>
      <trkpt lat="43.21284" lon="0.88654">
        <ele>411.58</ele>
        <time>2016-12-04T08:20:07Z</time>
      </trkpt>
      <trkpt lat="43.21282" lon="0.88679">
        <ele>411.58</ele>
        <time>2016-12-04T08:20:21Z</time>
      </trkpt>
      <trkpt lat="43.21276" lon="0.887">
        <ele>410.62</ele>
        <time>2016-12-04T08:20:35Z</time>
      </trkpt>
      <trkpt lat="43.21276" lon="0.88707">
        <ele>410.62</ele>
        <time>2016-12-04T08:20:46Z</time>
      </trkpt>
      <trkpt lat="43.21278" lon="0.8871">
        <ele>411.1</ele>
        <time>2016-12-04T08:20:57Z</time>
      </trkpt>
      <trkpt lat="43.21282" lon="0.88715">
        <ele>411.1</ele>
        <time>2016-12-04T08:21:11Z</time>
      </trkpt>
      <trkpt lat="43.21282" lon="0.88719">
        <ele>411.58</ele>
        <time>2016-12-04T08:21:14Z</time>
      </trkpt>
      <trkpt lat="43.21286" lon="0.88735">
        <ele>412.54</ele>
        <time>2016-12-04T08:21:25Z</time>
      </trkpt>
      <trkpt lat="43.2129" lon="0.88748">
        <ele>413.5</ele>
        <time>2016-12-04T08:21:36Z</time>
      </trkpt>
      <trkpt lat="43.21297" lon="0.88763">
        <ele>416.39</ele>
        <time>2016-12-04T08:21:47Z</time>
      </trkpt>
      <trkpt lat="43.21302" lon="0.88778">
        <ele>416.87</ele>
        <time>2016-12-04T08:21:58Z</time>
      </trkpt>
      <trkpt lat="43.21311" lon="0.88793">
        <ele>418.31</ele>
        <time>2016-12-04T08:22:11Z</time>
      </trkpt>
      <trkpt lat="43.21317" lon="0.8881">
        <ele>418.79</ele>
        <time>2016-12-04T08:22:25Z</time>
      </trkpt>
      <trkpt lat="43.21323" lon="0.88827">
        <ele>420.71</ele>
        <time>2016-12-04T08:22:37Z</time>
      </trkpt>
      <trkpt lat="43.21327" lon="0.88843">
        <ele>421.19</ele>
        <time>2016-12-04T08:22:48Z</time>
      </trkpt>
      <trkpt lat="43.2133" lon="0.88858">
        <ele>421.68</ele>
        <time>2016-12-04T08:22:58Z</time>
      </trkpt>
      <trkpt lat="43.21323" lon="0.88874">
        <ele>421.68</ele>
        <time>2016-12-04T08:23:11Z</time>
      </trkpt>
      <trkpt lat="43.21318" lon="0.88891">
        <ele>422.16</ele>
        <time>2016-12-04T08:23:23Z</time>
      </trkpt>
      <trkpt lat="43.21303" lon="0.88899">
        <ele>422.16</ele>
        <time>2016-12-04T08:23:37Z</time>
      </trkpt>
      <trkpt lat="43.21287" lon="0.88914">
        <ele>422.16</ele>
        <time>2016-12-04T08:23:52Z</time>
      </trkpt>
      <trkpt lat="43.21276" lon="0.88933">
        <ele>423.12</ele>
        <time>2016-12-04T08:24:05Z</time>
      </trkpt>
      <trkpt lat="43.21266" lon="0.88945">
        <ele>423.6</ele>
        <time>2016-12-04T08:24:17Z</time>
      </trkpt>
      <trkpt lat="43.21257" lon="0.88961">
        <ele>425.04</ele>
        <time>2016-12-04T08:24:29Z</time>
      </trkpt>
      <trkpt lat="43.21248" lon="0.88976">
        <ele>426.96</ele>
        <time>2016-12-04T08:24:42Z</time>
      </trkpt>
      <trkpt lat="43.21238" lon="0.8899">
        <ele>428.89</ele>
        <time>2016-12-04T08:24:55Z</time>
      </trkpt>
      <trkpt lat="43.21229" lon="0.89001">
        <ele>431.77</ele>
        <time>2016-12-04T08:25:05Z</time>
      </trkpt>
      <trkpt lat="43.21228" lon="0.89004">
        <ele>427.92</ele>
        <time>2016-12-04T08:25:07Z</time>
      </trkpt>
      <trkpt lat="43.21228" lon="0.89006">
        <ele>431.77</ele>
        <time>2016-12-04T08:25:08Z</time>
      </trkpt>
      <trkpt lat="43.21227" lon="0.89007">
        <ele>431.77</ele>
        <time>2016-12-04T08:25:09Z</time>
      </trkpt>
      <trkpt lat="43.21218" lon="0.89015">
        <ele>431.77</ele>
        <time>2016-12-04T08:25:21Z</time>
      </trkpt>
      <trkpt lat="43.21211" lon="0.89023">
        <ele>434.17</ele>
        <time>2016-12-04T08:25:32Z</time>
      </trkpt>
      <trkpt lat="43.21206" lon="0.89034">
        <ele>435.13</ele>
        <time>2016-12-04T08:25:43Z</time>
      </trkpt>
      <trkpt lat="43.212" lon="0.89045">
        <ele>437.06</ele>
        <time>2016-12-04T08:25:54Z</time>
      </trkpt>
      <trkpt lat="43.21192" lon="0.89058">
        <ele>438.98</ele>
        <time>2016-12-04T08:26:07Z</time>
      </trkpt>
      <trkpt lat="43.21186" lon="0.89073">
        <ele>440.9</ele>
        <time>2016-12-04T08:26:20Z</time>
      </trkpt>
      <trkpt lat="43.21184" lon="0.89085">
        <ele>443.31</ele>
        <time>2016-12-04T08:26:33Z</time>
      </trkpt>
      <trkpt lat="43.21174" lon="0.89103">
        <ele>445.23</ele>
        <time>2016-12-04T08:26:48Z</time>
      </trkpt>
      <trkpt lat="43.21168" lon="0.89118">
        <ele>447.63</ele>
        <time>2016-12-04T08:27:02Z</time>
      </trkpt>
      <trkpt lat="43.21161" lon="0.89134">
        <ele>449.55</ele>
        <time>2016-12-04T08:27:16Z</time>
      </trkpt>
      <trkpt lat="43.21153" lon="0.89145">
        <ele>451</ele>
        <time>2016-12-04T08:27:29Z</time>
      </trkpt>
      <trkpt lat="43.21148" lon="0.89156">
        <ele>451.96</ele>
        <time>2016-12-04T08:27:39Z</time>
      </trkpt>
      <trkpt lat="43.21142" lon="0.89169">
        <ele>454.84</ele>
        <time>2016-12-04T08:27:52Z</time>
      </trkpt>
      <trkpt lat="43.2114" lon="0.8917">
        <ele>454.84</ele>
        <time>2016-12-04T08:27:55Z</time>
      </trkpt>
      <trkpt lat="43.21139" lon="0.89169">
        <ele>455.32</ele>
        <time>2016-12-04T08:28:07Z</time>
      </trkpt>
      <trkpt lat="43.2114" lon="0.8917">
        <ele>454.84</ele>
        <time>2016-12-04T08:28:09Z</time>
      </trkpt>
      <trkpt lat="43.21141" lon="0.89161">
        <ele>456.76</ele>
        <time>2016-12-04T08:28:17Z</time>
      </trkpt>
      <trkpt lat="43.21143" lon="0.89159">
        <ele>457.24</ele>
        <time>2016-12-04T08:28:27Z</time>
      </trkpt>
      <trkpt lat="43.21142" lon="0.89157">
        <ele>457.24</ele>
        <time>2016-12-04T08:28:46Z</time>
      </trkpt>
      <trkpt lat="43.21139" lon="0.8916">
        <ele>456.76</ele>
        <time>2016-12-04T08:28:59Z</time>
      </trkpt>
      <trkpt lat="43.21139" lon="0.89167">
        <ele>455.8</ele>
        <time>2016-12-04T08:29:14Z</time>
      </trkpt>
      <trkpt lat="43.21139" lon="0.89171">
        <ele>455.8</ele>
        <time>2016-12-04T08:29:24Z</time>
      </trkpt>
      <trkpt lat="43.21141" lon="0.8917">
        <ele>455.32</ele>
        <time>2016-12-04T08:29:36Z</time>
      </trkpt>
      <trkpt lat="43.2114" lon="0.89156">
        <ele>456.76</ele>
        <time>2016-12-04T08:29:47Z</time>
      </trkpt>
      <trkpt lat="43.21138" lon="0.89153">
        <ele>455.8</ele>
        <time>2016-12-04T08:30:04Z</time>
      </trkpt>
      <trkpt lat="43.21139" lon="0.89153">
        <ele>456.28</ele>
        <time>2016-12-04T08:30:22Z</time>
      </trkpt>
      <trkpt lat="43.21138" lon="0.89159">
        <ele>456.28</ele>
        <time>2016-12-04T08:30:40Z</time>
      </trkpt>
      <trkpt lat="43.21138" lon="0.89171">
        <ele>454.36</ele>
        <time>2016-12-04T08:30:50Z</time>
      </trkpt>
      <trkpt lat="43.21139" lon="0.89175">
        <ele>454.84</ele>
        <time>2016-12-04T08:30:54Z</time>
      </trkpt>
      <trkpt lat="43.2114" lon="0.89181">
        <ele>453.88</ele>
        <time>2016-12-04T08:31:06Z</time>
      </trkpt>
      <trkpt lat="43.21142" lon="0.89181">
        <ele>453.4</ele>
        <time>2016-12-04T08:31:26Z</time>
      </trkpt>
      <trkpt lat="43.21141" lon="0.89183">
        <ele>453.4</ele>
        <time>2016-12-04T08:31:43Z</time>
      </trkpt>
      <trkpt lat="43.2114" lon="0.89181">
        <ele>454.36</ele>
        <time>2016-12-04T08:32:00Z</time>
      </trkpt>
      <trkpt lat="43.21139" lon="0.8918">
        <ele>453.88</ele>
        <time>2016-12-04T08:32:08Z</time>
      </trkpt>
      <trkpt lat="43.2114" lon="0.89177">
        <ele>454.36</ele>
        <time>2016-12-04T08:32:21Z</time>
      </trkpt>
      <trkpt lat="43.21139" lon="0.89178">
        <ele>454.36</ele>
        <time>2016-12-04T08:32:31Z</time>
      </trkpt>
      <trkpt lat="43.21138" lon="0.89181">
        <ele>454.36</ele>
        <time>2016-12-04T08:32:40Z</time>
      </trkpt>
      <trkpt lat="43.21139" lon="0.8918">
        <ele>455.32</ele>
        <time>2016-12-04T08:32:53Z</time>
      </trkpt>
      <trkpt lat="43.21143" lon="0.89186">
        <ele>455.32</ele>
        <time>2016-12-04T08:33:02Z</time>
      </trkpt>
      <trkpt lat="43.21135" lon="0.89181">
        <ele>455.32</ele>
        <time>2016-12-04T08:33:12Z</time>
      </trkpt>
      <trkpt lat="43.21134" lon="0.89185">
        <ele>455.8</ele>
        <time>2016-12-04T08:33:15Z</time>
      </trkpt>
      <trkpt lat="43.21129" lon="0.89195">
        <ele>457.24</ele>
        <time>2016-12-04T08:33:25Z</time>
      </trkpt>
      <trkpt lat="43.21122" lon="0.89208">
        <ele>458.69</ele>
        <time>2016-12-04T08:33:39Z</time>
      </trkpt>
      <trkpt lat="43.2112" lon="0.89219">
        <ele>459.17</ele>
        <time>2016-12-04T08:33:49Z</time>
      </trkpt>
      <trkpt lat="43.21113" lon="0.89231">
        <ele>461.09</ele>
        <time>2016-12-04T08:34:01Z</time>
      </trkpt>
      <trkpt lat="43.21108" lon="0.89242">
        <ele>462.53</ele>
        <time>2016-12-04T08:34:12Z</time>
      </trkpt>
      <trkpt lat="43.21102" lon="0.89255">
        <ele>463.97</ele>
        <time>2016-12-04T08:34:24Z</time>
      </trkpt>
      <trkpt lat="43.21096" lon="0.8927">
        <ele>465.9</ele>
        <time>2016-12-04T08:34:38Z</time>
      </trkpt>
      <trkpt lat="43.21091" lon="0.89283">
        <ele>467.82</ele>
        <time>2016-12-04T08:34:51Z</time>
      </trkpt>
      <trkpt lat="43.21084" lon="0.89297">
        <ele>469.26</ele>
        <time>2016-12-04T08:35:03Z</time>
      </trkpt>
      <trkpt lat="43.21077" lon="0.89315">
        <ele>471.18</ele>
        <time>2016-12-04T08:35:18Z</time>
      </trkpt>
      <trkpt lat="43.21072" lon="0.89329">
        <ele>472.63</ele>
        <time>2016-12-04T08:35:30Z</time>
      </trkpt>
      <trkpt lat="43.21066" lon="0.89341">
        <ele>475.99</ele>
        <time>2016-12-04T08:35:43Z</time>
      </trkpt>
      <trkpt lat="43.21058" lon="0.89357">
        <ele>475.99</ele>
        <time>2016-12-04T08:35:56Z</time>
      </trkpt>
      <trkpt lat="43.21051" lon="0.89373">
        <ele>477.91</ele>
        <time>2016-12-04T08:36:08Z</time>
      </trkpt>
      <trkpt lat="43.21048" lon="0.89382">
        <ele>478.39</ele>
        <time>2016-12-04T08:36:16Z</time>
      </trkpt>
      <trkpt lat="43.21044" lon="0.89398">
        <ele>480.32</ele>
        <time>2016-12-04T08:36:30Z</time>
      </trkpt>
      <trkpt lat="43.21041" lon="0.89407">
        <ele>480.32</ele>
        <time>2016-12-04T08:36:36Z</time>
      </trkpt>
      <trkpt lat="43.21033" lon="0.89424">
        <ele>481.28</ele>
        <time>2016-12-04T08:36:49Z</time>
      </trkpt>
      <trkpt lat="43.21025" lon="0.8944">
        <ele>481.76</ele>
        <time>2016-12-04T08:37:01Z</time>
      </trkpt>
      <trkpt lat="43.21018" lon="0.89459">
        <ele>482.24</ele>
        <time>2016-12-04T08:37:14Z</time>
      </trkpt>
      <trkpt lat="43.21014" lon="0.89472">
        <ele>482.72</ele>
        <time>2016-12-04T08:37:23Z</time>
      </trkpt>
      <trkpt lat="43.21014" lon="0.89482">
        <ele>483.68</ele>
        <time>2016-12-04T08:37:36Z</time>
      </trkpt>
      <trkpt lat="43.21017" lon="0.89485">
        <ele>483.68</ele>
        <time>2016-12-04T08:37:53Z</time>
      </trkpt>
      <trkpt lat="43.21016" lon="0.89486">
        <ele>483.68</ele>
        <time>2016-12-04T08:38:05Z</time>
      </trkpt>
      <trkpt lat="43.21015" lon="0.89486">
        <ele>483.68</ele>
        <time>2016-12-04T08:38:26Z</time>
      </trkpt>
      <trkpt lat="43.21015" lon="0.89486">
        <ele>483.2</ele>
        <time>2016-12-04T08:38:27Z</time>
      </trkpt>
      <trkpt lat="43.21011" lon="0.89493">
        <ele>482.24</ele>
        <time>2016-12-04T08:38:38Z</time>
      </trkpt>
      <trkpt lat="43.21012" lon="0.89494">
        <ele>483.2</ele>
        <time>2016-12-04T08:38:50Z</time>
      </trkpt>
      <trkpt lat="43.21012" lon="0.89492">
        <ele>482.72</ele>
        <time>2016-12-04T08:38:58Z</time>
      </trkpt>
      <trkpt lat="43.20996" lon="0.89505">
        <ele>481.76</ele>
        <time>2016-12-04T08:39:12Z</time>
      </trkpt>
      <trkpt lat="43.20989" lon="0.89513">
        <ele>486.56</ele>
        <time>2016-12-04T08:39:19Z</time>
      </trkpt>
      <trkpt lat="43.20988" lon="0.89514">
        <ele>479.84</ele>
        <time>2016-12-04T08:39:20Z</time>
      </trkpt>
      <trkpt lat="43.20985" lon="0.89518">
        <ele>480.32</ele>
        <time>2016-12-04T08:39:24Z</time>
      </trkpt>
      <trkpt lat="43.20973" lon="0.89534">
        <ele>480.32</ele>
        <time>2016-12-04T08:39:37Z</time>
      </trkpt>
      <trkpt lat="43.20962" lon="0.8954">
        <ele>478.39</ele>
        <time>2016-12-04T08:39:48Z</time>
      </trkpt>
      <trkpt lat="43.20952" lon="0.89545">
        <ele>476.47</ele>
        <time>2016-12-04T08:39:57Z</time>
      </trkpt>
      <trkpt lat="43.20944" lon="0.89547">
        <ele>475.03</ele>
        <time>2016-12-04T08:40:04Z</time>
      </trkpt>
      <trkpt lat="43.20943" lon="0.89548">
        <ele>474.07</ele>
        <time>2016-12-04T08:40:05Z</time>
      </trkpt>
      <trkpt lat="43.20938" lon="0.89555">
        <ele>473.59</ele>
        <time>2016-12-04T08:40:10Z</time>
      </trkpt>
      <trkpt lat="43.20935" lon="0.89575">
        <ele>473.11</ele>
        <time>2016-12-04T08:40:22Z</time>
      </trkpt>
      <trkpt lat="43.20936" lon="0.89591">
        <ele>471.66</ele>
        <time>2016-12-04T08:40:35Z</time>
      </trkpt>
      <trkpt lat="43.20934" lon="0.89605">
        <ele>472.14</ele>
        <time>2016-12-04T08:40:48Z</time>
      </trkpt>
      <trkpt lat="43.20936" lon="0.8962">
        <ele>471.18</ele>
        <time>2016-12-04T08:40:58Z</time>
      </trkpt>
      <trkpt lat="43.20933" lon="0.89639">
        <ele>470.22</ele>
        <time>2016-12-04T08:41:09Z</time>
      </trkpt>
      <trkpt lat="43.20941" lon="0.89654">
        <ele>469.26</ele>
        <time>2016-12-04T08:41:21Z</time>
      </trkpt>
      <trkpt lat="43.20941" lon="0.89672">
        <ele>466.38</ele>
        <time>2016-12-04T08:41:34Z</time>
      </trkpt>
      <trkpt lat="43.20938" lon="0.89688">
        <ele>464.93</ele>
        <time>2016-12-04T08:41:44Z</time>
      </trkpt>
      <trkpt lat="43.20936" lon="0.897">
        <ele>462.05</ele>
        <time>2016-12-04T08:41:53Z</time>
      </trkpt>
      <trkpt lat="43.20935" lon="0.89702">
        <ele>465.42</ele>
        <time>2016-12-04T08:41:55Z</time>
      </trkpt>
      <trkpt lat="43.20935" lon="0.89704">
        <ele>463.49</ele>
        <time>2016-12-04T08:41:56Z</time>
      </trkpt>
      <trkpt lat="43.20933" lon="0.89714">
        <ele>461.09</ele>
        <time>2016-12-04T08:42:06Z</time>
      </trkpt>
      <trkpt lat="43.20936" lon="0.89711">
        <ele>461.09</ele>
        <time>2016-12-04T08:42:18Z</time>
      </trkpt>
      <trkpt lat="43.20938" lon="0.89713">
        <ele>460.61</ele>
        <time>2016-12-04T08:42:37Z</time>
      </trkpt>
      <trkpt lat="43.20941" lon="0.89712">
        <ele>459.65</ele>
        <time>2016-12-04T08:42:59Z</time>
      </trkpt>
      <trkpt lat="43.2094" lon="0.89706">
        <ele>459.65</ele>
        <time>2016-12-04T08:43:12Z</time>
      </trkpt>
      <trkpt lat="43.20934" lon="0.89706">
        <ele>462.05</ele>
        <time>2016-12-04T08:43:25Z</time>
      </trkpt>
      <trkpt lat="43.20936" lon="0.89701">
        <ele>463.97</ele>
        <time>2016-12-04T08:43:38Z</time>
      </trkpt>
      <trkpt lat="43.20937" lon="0.89697">
        <ele>464.45</ele>
        <time>2016-12-04T08:43:49Z</time>
      </trkpt>
      <trkpt lat="43.2094" lon="0.89685">
        <ele>465.42</ele>
        <time>2016-12-04T08:44:00Z</time>
      </trkpt>
      <trkpt lat="43.20942" lon="0.89668">
        <ele>467.34</ele>
        <time>2016-12-04T08:44:14Z</time>
      </trkpt>
      <trkpt lat="43.20943" lon="0.89654">
        <ele>468.3</ele>
        <time>2016-12-04T08:44:26Z</time>
      </trkpt>
      <trkpt lat="43.20942" lon="0.89653">
        <ele>469.74</ele>
        <time>2016-12-04T08:44:28Z</time>
      </trkpt>
      <trkpt lat="43.20935" lon="0.89637">
        <ele>470.7</ele>
        <time>2016-12-04T08:44:45Z</time>
      </trkpt>
      <trkpt lat="43.20936" lon="0.89642">
        <ele>470.7</ele>
        <time>2016-12-04T08:44:54Z</time>
      </trkpt>
      <trkpt lat="43.20943" lon="0.89662">
        <ele>467.34</ele>
        <time>2016-12-04T08:45:09Z</time>
      </trkpt>
      <trkpt lat="43.20943" lon="0.89665">
        <ele>466.86</ele>
        <time>2016-12-04T08:45:11Z</time>
      </trkpt>
      <trkpt lat="43.20942" lon="0.89675">
        <ele>465.42</ele>
        <time>2016-12-04T08:45:17Z</time>
      </trkpt>
      <trkpt lat="43.20938" lon="0.89695">
        <ele>464.45</ele>
        <time>2016-12-04T08:45:33Z</time>
      </trkpt>
      <trkpt lat="43.2094" lon="0.89699">
        <ele>463.01</ele>
        <time>2016-12-04T08:45:38Z</time>
      </trkpt>
      <trkpt lat="43.20942" lon="0.89703">
        <ele>460.13</ele>
        <time>2016-12-04T08:45:42Z</time>
      </trkpt>
      <trkpt lat="43.20942" lon="0.89705">
        <ele>458.69</ele>
        <time>2016-12-04T08:45:52Z</time>
      </trkpt>
      <trkpt lat="43.20947" lon="0.89698">
        <ele>457.72</ele>
        <time>2016-12-04T08:46:03Z</time>
      </trkpt>
      <trkpt lat="43.20957" lon="0.89688">
        <ele>456.28</ele>
        <time>2016-12-04T08:46:13Z</time>
      </trkpt>
      <trkpt lat="43.20962" lon="0.89686">
        <ele>452.92</ele>
        <time>2016-12-04T08:46:20Z</time>
      </trkpt>
      <trkpt lat="43.20961" lon="0.89697">
        <ele>449.55</ele>
        <time>2016-12-04T08:46:31Z</time>
      </trkpt>
      <trkpt lat="43.20962" lon="0.89717">
        <ele>446.67</ele>
        <time>2016-12-04T08:46:44Z</time>
      </trkpt>
      <trkpt lat="43.20966" lon="0.89723">
        <ele>444.27</ele>
        <time>2016-12-04T08:46:54Z</time>
      </trkpt>
      <trkpt lat="43.20974" lon="0.89717">
        <ele>440.9</ele>
        <time>2016-12-04T08:47:02Z</time>
      </trkpt>
      <trkpt lat="43.20981" lon="0.89717">
        <ele>438.02</ele>
        <time>2016-12-04T08:47:10Z</time>
      </trkpt>
      <trkpt lat="43.20979" lon="0.8974">
        <ele>435.61</ele>
        <time>2016-12-04T08:47:23Z</time>
      </trkpt>
      <trkpt lat="43.20976" lon="0.89748">
        <ele>434.65</ele>
        <time>2016-12-04T08:47:33Z</time>
      </trkpt>
      <trkpt lat="43.20977" lon="0.89758">
        <ele>431.77</ele>
        <time>2016-12-04T08:47:41Z</time>
      </trkpt>
      <trkpt lat="43.20974" lon="0.89767">
        <ele>429.85</ele>
        <time>2016-12-04T08:47:46Z</time>
      </trkpt>
      <trkpt lat="43.20966" lon="0.89782">
        <ele>427.44</ele>
        <time>2016-12-04T08:48:00Z</time>
      </trkpt>
      <trkpt lat="43.20956" lon="0.89786">
        <ele>426.96</ele>
        <time>2016-12-04T08:48:11Z</time>
      </trkpt>
      <trkpt lat="43.20948" lon="0.8979">
        <ele>425.52</ele>
        <time>2016-12-04T08:48:23Z</time>
      </trkpt>
      <trkpt lat="43.20943" lon="0.8979">
        <ele>424.56</ele>
        <time>2016-12-04T08:48:35Z</time>
      </trkpt>
      <trkpt lat="43.20934" lon="0.89795">
        <ele>423.12</ele>
        <time>2016-12-04T08:48:45Z</time>
      </trkpt>
      <trkpt lat="43.20928" lon="0.89795">
        <ele>422.64</ele>
        <time>2016-12-04T08:48:51Z</time>
      </trkpt>
      <trkpt lat="43.20914" lon="0.89803">
        <ele>421.19</ele>
        <time>2016-12-04T08:49:05Z</time>
      </trkpt>
      <trkpt lat="43.20913" lon="0.89804">
        <ele>420.71</ele>
        <time>2016-12-04T08:49:06Z</time>
      </trkpt>
      <trkpt lat="43.20905" lon="0.89817">
        <ele>418.31</ele>
        <time>2016-12-04T08:49:17Z</time>
      </trkpt>
      <trkpt lat="43.209" lon="0.89827">
        <ele>416.87</ele>
        <time>2016-12-04T08:49:27Z</time>
      </trkpt>
      <trkpt lat="43.20898" lon="0.8983">
        <ele>420.23</ele>
        <time>2016-12-04T08:49:29Z</time>
      </trkpt>
      <trkpt lat="43.20898" lon="0.89836">
        <ele>417.35</ele>
        <time>2016-12-04T08:49:34Z</time>
      </trkpt>
      <trkpt lat="43.20898" lon="0.89835">
        <ele>417.35</ele>
        <time>2016-12-04T08:49:43Z</time>
      </trkpt>
      <trkpt lat="43.20901" lon="0.89836">
        <ele>413.98</ele>
        <time>2016-12-04T08:49:58Z</time>
      </trkpt>
      <trkpt lat="43.20901" lon="0.89836">
        <ele>418.79</ele>
        <time>2016-12-04T08:49:59Z</time>
      </trkpt>
      <trkpt lat="43.20901" lon="0.89836">
        <ele>418.79</ele>
        <time>2016-12-04T08:50:00Z</time>
      </trkpt>
      <trkpt lat="43.209" lon="0.89837">
        <ele>417.35</ele>
        <time>2016-12-04T08:50:02Z</time>
      </trkpt>
      <trkpt lat="43.20896" lon="0.89847">
        <ele>415.91</ele>
        <time>2016-12-04T08:50:14Z</time>
      </trkpt>
      <trkpt lat="43.20895" lon="0.8985">
        <ele>415.43</ele>
        <time>2016-12-04T08:50:16Z</time>
      </trkpt>
      <trkpt lat="43.20896" lon="0.89856">
        <ele>415.43</ele>
        <time>2016-12-04T08:50:20Z</time>
      </trkpt>
      <trkpt lat="43.20909" lon="0.89868">
        <ele>416.87</ele>
        <time>2016-12-04T08:50:34Z</time>
      </trkpt>
      <trkpt lat="43.20918" lon="0.89879">
        <ele>418.79</ele>
        <time>2016-12-04T08:50:47Z</time>
      </trkpt>
      <trkpt lat="43.20923" lon="0.89892">
        <ele>419.75</ele>
        <time>2016-12-04T08:50:58Z</time>
      </trkpt>
      <trkpt lat="43.20925" lon="0.89888">
        <ele>419.75</ele>
        <time>2016-12-04T08:51:16Z</time>
      </trkpt>
      <trkpt lat="43.20925" lon="0.89892">
        <ele>419.27</ele>
        <time>2016-12-04T08:51:19Z</time>
      </trkpt>
      <trkpt lat="43.20928" lon="0.89896">
        <ele>419.27</ele>
        <time>2016-12-04T08:51:22Z</time>
      </trkpt>
      <trkpt lat="43.2093" lon="0.89902">
        <ele>419.75</ele>
        <time>2016-12-04T08:51:26Z</time>
      </trkpt>
      <trkpt lat="43.20923" lon="0.89914">
        <ele>419.75</ele>
        <time>2016-12-04T08:51:39Z</time>
      </trkpt>
      <trkpt lat="43.2092" lon="0.89922">
        <ele>420.23</ele>
        <time>2016-12-04T08:51:50Z</time>
      </trkpt>
      <trkpt lat="43.20922" lon="0.89933">
        <ele>416.39</ele>
        <time>2016-12-04T08:51:55Z</time>
      </trkpt>
      <trkpt lat="43.20922" lon="0.89934">
        <ele>422.16</ele>
        <time>2016-12-04T08:51:56Z</time>
      </trkpt>
      <trkpt lat="43.20918" lon="0.89948">
        <ele>418.79</ele>
        <time>2016-12-04T08:52:06Z</time>
      </trkpt>
      <trkpt lat="43.20916" lon="0.89957">
        <ele>415.43</ele>
        <time>2016-12-04T08:52:12Z</time>
      </trkpt>
      <trkpt lat="43.20916" lon="0.89958">
        <ele>420.23</ele>
        <time>2016-12-04T08:52:13Z</time>
      </trkpt>
      <trkpt lat="43.20915" lon="0.89967">
        <ele>416.39</ele>
        <time>2016-12-04T08:52:20Z</time>
      </trkpt>
      <trkpt lat="43.20913" lon="0.89977">
        <ele>417.35</ele>
        <time>2016-12-04T08:52:32Z</time>
      </trkpt>
      <trkpt lat="43.20915" lon="0.89976">
        <ele>417.35</ele>
        <time>2016-12-04T08:52:39Z</time>
      </trkpt>
      <trkpt lat="43.20915" lon="0.89977">
        <ele>416.87</ele>
        <time>2016-12-04T08:52:56Z</time>
      </trkpt>
      <trkpt lat="43.20914" lon="0.89979">
        <ele>416.87</ele>
        <time>2016-12-04T08:53:08Z</time>
      </trkpt>
      <trkpt lat="43.20913" lon="0.89982">
        <ele>416.87</ele>
        <time>2016-12-04T08:53:17Z</time>
      </trkpt>
      <trkpt lat="43.20915" lon="0.89983">
        <ele>417.35</ele>
        <time>2016-12-04T08:53:33Z</time>
      </trkpt>
      <trkpt lat="43.20914" lon="0.89992">
        <ele>416.39</ele>
        <time>2016-12-04T08:53:48Z</time>
      </trkpt>
      <trkpt lat="43.20913" lon="0.89997">
        <ele>412.06</ele>
        <time>2016-12-04T08:53:52Z</time>
      </trkpt>
      <trkpt lat="43.20913" lon="0.89998">
        <ele>418.79</ele>
        <time>2016-12-04T08:53:53Z</time>
      </trkpt>
      <trkpt lat="43.20913" lon="0.9">
        <ele>414.47</ele>
        <time>2016-12-04T08:53:54Z</time>
      </trkpt>
      <trkpt lat="43.20912" lon="0.90017">
        <ele>414.47</ele>
        <time>2016-12-04T08:54:07Z</time>
      </trkpt>
      <trkpt lat="43.2091" lon="0.9003">
        <ele>413.98</ele>
        <time>2016-12-04T08:54:17Z</time>
      </trkpt>
      <trkpt lat="43.20896" lon="0.90046">
        <ele>414.47</ele>
        <time>2016-12-04T08:54:31Z</time>
      </trkpt>
      <trkpt lat="43.20891" lon="0.90052">
        <ele>414.47</ele>
        <time>2016-12-04T08:54:36Z</time>
      </trkpt>
      <trkpt lat="43.20888" lon="0.90059">
        <ele>414.95</ele>
        <time>2016-12-04T08:54:41Z</time>
      </trkpt>
      <trkpt lat="43.20874" lon="0.90076">
        <ele>415.91</ele>
        <time>2016-12-04T08:54:56Z</time>
      </trkpt>
      <trkpt lat="43.20859" lon="0.90094">
        <ele>415.91</ele>
        <time>2016-12-04T08:55:11Z</time>
      </trkpt>
      <trkpt lat="43.20845" lon="0.90112">
        <ele>415.43</ele>
        <time>2016-12-04T08:55:25Z</time>
      </trkpt>
      <trkpt lat="43.20834" lon="0.90126">
        <ele>414.47</ele>
        <time>2016-12-04T08:55:37Z</time>
      </trkpt>
      <trkpt lat="43.20821" lon="0.90145">
        <ele>414.95</ele>
        <time>2016-12-04T08:55:52Z</time>
      </trkpt>
      <trkpt lat="43.20809" lon="0.9016">
        <ele>413.98</ele>
        <time>2016-12-04T08:56:04Z</time>
      </trkpt>
      <trkpt lat="43.20795" lon="0.90176">
        <ele>412.54</ele>
        <time>2016-12-04T08:56:18Z</time>
      </trkpt>
      <trkpt lat="43.20782" lon="0.90189">
        <ele>410.14</ele>
        <time>2016-12-04T08:56:31Z</time>
      </trkpt>
      <trkpt lat="43.20771" lon="0.902">
        <ele>409.18</ele>
        <time>2016-12-04T08:56:43Z</time>
      </trkpt>
      <trkpt lat="43.20762" lon="0.90213">
        <ele>408.22</ele>
        <time>2016-12-04T08:56:54Z</time>
      </trkpt>
      <trkpt lat="43.20746" lon="0.90223">
        <ele>406.77</ele>
        <time>2016-12-04T08:57:07Z</time>
      </trkpt>
      <trkpt lat="43.20733" lon="0.90241">
        <ele>406.29</ele>
        <time>2016-12-04T08:57:21Z</time>
      </trkpt>
      <trkpt lat="43.20729" lon="0.90252">
        <ele>406.77</ele>
        <time>2016-12-04T08:57:28Z</time>
      </trkpt>
      <trkpt lat="43.20725" lon="0.90258">
        <ele>404.85</ele>
        <time>2016-12-04T08:57:33Z</time>
      </trkpt>
      <trkpt lat="43.20724" lon="0.90261">
        <ele>406.77</ele>
        <time>2016-12-04T08:57:35Z</time>
      </trkpt>
      <trkpt lat="43.2072" lon="0.90267">
        <ele>405.33</ele>
        <time>2016-12-04T08:57:45Z</time>
      </trkpt>
      <trkpt lat="43.20722" lon="0.90267">
        <ele>405.33</ele>
        <time>2016-12-04T08:57:46Z</time>
      </trkpt>
      <trkpt lat="43.20738" lon="0.9028">
        <ele>403.89</ele>
        <time>2016-12-04T08:58:00Z</time>
      </trkpt>
      <trkpt lat="43.20738" lon="0.90284">
        <ele>404.37</ele>
        <time>2016-12-04T08:58:10Z</time>
      </trkpt>
      <trkpt lat="43.20749" lon="0.9029">
        <ele>403.41</ele>
        <time>2016-12-04T08:58:22Z</time>
      </trkpt>
      <trkpt lat="43.20762" lon="0.90302">
        <ele>402.93</ele>
        <time>2016-12-04T08:58:33Z</time>
      </trkpt>
      <trkpt lat="43.20778" lon="0.90318">
        <ele>403.89</ele>
        <time>2016-12-04T08:58:48Z</time>
      </trkpt>
      <trkpt lat="43.20795" lon="0.90336">
        <ele>404.85</ele>
        <time>2016-12-04T08:59:04Z</time>
      </trkpt>
      <trkpt lat="43.20802" lon="0.90341">
        <ele>405.81</ele>
        <time>2016-12-04T08:59:10Z</time>
      </trkpt>
      <trkpt lat="43.20814" lon="0.90352">
        <ele>407.26</ele>
        <time>2016-12-04T08:59:23Z</time>
      </trkpt>
      <trkpt lat="43.20826" lon="0.90365">
        <ele>409.66</ele>
        <time>2016-12-04T08:59:36Z</time>
      </trkpt>
      <trkpt lat="43.20834" lon="0.9037">
        <ele>410.62</ele>
        <time>2016-12-04T08:59:44Z</time>
      </trkpt>
      <trkpt lat="43.20838" lon="0.90375">
        <ele>411.58</ele>
        <time>2016-12-04T08:59:56Z</time>
      </trkpt>
      <trkpt lat="43.20837" lon="0.90374">
        <ele>411.1</ele>
        <time>2016-12-04T09:00:12Z</time>
      </trkpt>
      <trkpt lat="43.2084" lon="0.90374">
        <ele>412.06</ele>
        <time>2016-12-04T09:00:26Z</time>
      </trkpt>
      <trkpt lat="43.20836" lon="0.90377">
        <ele>411.58</ele>
        <time>2016-12-04T09:00:43Z</time>
      </trkpt>
      <trkpt lat="43.20837" lon="0.90377">
        <ele>411.58</ele>
        <time>2016-12-04T09:00:55Z</time>
      </trkpt>
      <trkpt lat="43.20832" lon="0.90385">
        <ele>410.62</ele>
        <time>2016-12-04T09:01:05Z</time>
      </trkpt>
      <trkpt lat="43.20833" lon="0.90396">
        <ele>411.1</ele>
        <time>2016-12-04T09:01:10Z</time>
      </trkpt>
      <trkpt lat="43.20826" lon="0.90409">
        <ele>411.58</ele>
        <time>2016-12-04T09:01:18Z</time>
      </trkpt>
      <trkpt lat="43.20817" lon="0.90428">
        <ele>411.58</ele>
        <time>2016-12-04T09:01:29Z</time>
      </trkpt>
      <trkpt lat="43.20807" lon="0.90449">
        <ele>412.06</ele>
        <time>2016-12-04T09:01:42Z</time>
      </trkpt>
      <trkpt lat="43.20796" lon="0.90469">
        <ele>411.58</ele>
        <time>2016-12-04T09:01:55Z</time>
      </trkpt>
      <trkpt lat="43.20786" lon="0.90488">
        <ele>412.54</ele>
        <time>2016-12-04T09:02:08Z</time>
      </trkpt>
      <trkpt lat="43.20785" lon="0.90492">
        <ele>413.98</ele>
        <time>2016-12-04T09:02:20Z</time>
      </trkpt>
      <trkpt lat="43.20789" lon="0.90493">
        <ele>413.02</ele>
        <time>2016-12-04T09:02:32Z</time>
      </trkpt>
      <trkpt lat="43.20795" lon="0.90494">
        <ele>413.5</ele>
        <time>2016-12-04T09:02:45Z</time>
      </trkpt>
      <trkpt lat="43.20802" lon="0.90496">
        <ele>413.5</ele>
        <time>2016-12-04T09:02:52Z</time>
      </trkpt>
      <trkpt lat="43.20818" lon="0.90501">
        <ele>413.98</ele>
        <time>2016-12-04T09:03:06Z</time>
      </trkpt>
      <trkpt lat="43.20832" lon="0.90508">
        <ele>414.95</ele>
        <time>2016-12-04T09:03:17Z</time>
      </trkpt>
      <trkpt lat="43.20845" lon="0.90509">
        <ele>414.47</ele>
        <time>2016-12-04T09:03:27Z</time>
      </trkpt>
      <trkpt lat="43.20848" lon="0.90527">
        <ele>415.91</ele>
        <time>2016-12-04T09:03:41Z</time>
      </trkpt>
      <trkpt lat="43.20846" lon="0.9054">
        <ele>416.87</ele>
        <time>2016-12-04T09:03:52Z</time>
      </trkpt>
      <trkpt lat="43.20838" lon="0.90555">
        <ele>416.87</ele>
        <time>2016-12-04T09:04:06Z</time>
      </trkpt>
      <trkpt lat="43.2083" lon="0.90574">
        <ele>417.35</ele>
        <time>2016-12-04T09:04:22Z</time>
      </trkpt>
      <trkpt lat="43.20826" lon="0.90589">
        <ele>419.27</ele>
        <time>2016-12-04T09:04:33Z</time>
      </trkpt>
      <trkpt lat="43.20821" lon="0.90607">
        <ele>420.23</ele>
        <time>2016-12-04T09:04:45Z</time>
      </trkpt>
      <trkpt lat="43.20819" lon="0.90623">
        <ele>421.68</ele>
        <time>2016-12-04T09:04:57Z</time>
      </trkpt>
      <trkpt lat="43.20819" lon="0.90625">
        <ele>417.35</ele>
        <time>2016-12-04T09:04:58Z</time>
      </trkpt>
      <trkpt lat="43.20818" lon="0.90633">
        <ele>420.23</ele>
        <time>2016-12-04T09:05:04Z</time>
      </trkpt>
      <trkpt lat="43.20818" lon="0.90636">
        <ele>419.75</ele>
        <time>2016-12-04T09:05:06Z</time>
      </trkpt>
      <trkpt lat="43.20813" lon="0.90653">
        <ele>419.75</ele>
        <time>2016-12-04T09:05:18Z</time>
      </trkpt>
      <trkpt lat="43.20812" lon="0.90669">
        <ele>419.75</ele>
        <time>2016-12-04T09:05:29Z</time>
      </trkpt>
      <trkpt lat="43.20807" lon="0.90689">
        <ele>420.23</ele>
        <time>2016-12-04T09:05:43Z</time>
      </trkpt>
      <trkpt lat="43.20804" lon="0.90709">
        <ele>420.23</ele>
        <time>2016-12-04T09:05:56Z</time>
      </trkpt>
      <trkpt lat="43.20801" lon="0.9072">
        <ele>419.27</ele>
        <time>2016-12-04T09:06:03Z</time>
      </trkpt>
      <trkpt lat="43.20794" lon="0.90743">
        <ele>417.35</ele>
        <time>2016-12-04T09:06:19Z</time>
      </trkpt>
      <trkpt lat="43.20791" lon="0.90758">
        <ele>413.98</ele>
        <time>2016-12-04T09:06:32Z</time>
      </trkpt>
      <trkpt lat="43.20788" lon="0.90771">
        <ele>412.54</ele>
        <time>2016-12-04T09:06:43Z</time>
      </trkpt>
      <trkpt lat="43.20783" lon="0.90788">
        <ele>410.62</ele>
        <time>2016-12-04T09:06:55Z</time>
      </trkpt>
      <trkpt lat="43.20778" lon="0.90811">
        <ele>409.18</ele>
        <time>2016-12-04T09:07:09Z</time>
      </trkpt>
      <trkpt lat="43.20778" lon="0.90813">
        <ele>409.66</ele>
        <time>2016-12-04T09:07:10Z</time>
      </trkpt>
      <trkpt lat="43.20777" lon="0.90831">
        <ele>410.14</ele>
        <time>2016-12-04T09:07:22Z</time>
      </trkpt>
      <trkpt lat="43.20777" lon="0.90844">
        <ele>410.14</ele>
        <time>2016-12-04T09:07:32Z</time>
      </trkpt>
      <trkpt lat="43.20783" lon="0.90854">
        <ele>411.58</ele>
        <time>2016-12-04T09:07:43Z</time>
      </trkpt>
      <trkpt lat="43.20787" lon="0.90863">
        <ele>412.54</ele>
        <time>2016-12-04T09:07:55Z</time>
      </trkpt>
      <trkpt lat="43.2079" lon="0.90867">
        <ele>412.54</ele>
        <time>2016-12-04T09:08:09Z</time>
      </trkpt>
      <trkpt lat="43.20792" lon="0.90868">
        <ele>412.54</ele>
        <time>2016-12-04T09:08:26Z</time>
      </trkpt>
      <trkpt lat="43.20793" lon="0.9087">
        <ele>412.54</ele>
        <time>2016-12-04T09:08:40Z</time>
      </trkpt>
      <trkpt lat="43.20794" lon="0.90871">
        <ele>412.54</ele>
        <time>2016-12-04T09:08:55Z</time>
      </trkpt>
      <trkpt lat="43.20794" lon="0.90868">
        <ele>412.54</ele>
        <time>2016-12-04T09:09:07Z</time>
      </trkpt>
      <trkpt lat="43.20793" lon="0.90867">
        <ele>412.06</ele>
        <time>2016-12-04T09:09:32Z</time>
      </trkpt>
      <trkpt lat="43.2079" lon="0.90861">
        <ele>412.06</ele>
        <time>2016-12-04T09:09:48Z</time>
      </trkpt>
      <trkpt lat="43.2079" lon="0.90859">
        <ele>412.54</ele>
        <time>2016-12-04T09:09:56Z</time>
      </trkpt>
      <trkpt lat="43.20791" lon="0.90873">
        <ele>412.06</ele>
        <time>2016-12-04T09:10:04Z</time>
      </trkpt>
      <trkpt lat="43.2079" lon="0.90883">
        <ele>412.54</ele>
        <time>2016-12-04T09:10:15Z</time>
      </trkpt>
      <trkpt lat="43.20789" lon="0.90884">
        <ele>412.54</ele>
        <time>2016-12-04T09:10:28Z</time>
      </trkpt>
      <trkpt lat="43.20788" lon="0.90881">
        <ele>413.02</ele>
        <time>2016-12-04T09:10:48Z</time>
      </trkpt>
      <trkpt lat="43.20781" lon="0.90891">
        <ele>412.06</ele>
        <time>2016-12-04T09:10:58Z</time>
      </trkpt>
      <trkpt lat="43.20773" lon="0.90893">
        <ele>411.1</ele>
        <time>2016-12-04T09:11:11Z</time>
      </trkpt>
      <trkpt lat="43.20769" lon="0.90892">
        <ele>411.1</ele>
        <time>2016-12-04T09:11:22Z</time>
      </trkpt>
      <trkpt lat="43.20772" lon="0.90895">
        <ele>410.62</ele>
        <time>2016-12-04T09:11:37Z</time>
      </trkpt>
      <trkpt lat="43.20774" lon="0.90898">
        <ele>410.62</ele>
        <time>2016-12-04T09:11:52Z</time>
      </trkpt>
      <trkpt lat="43.20771" lon="0.90895">
        <ele>411.1</ele>
        <time>2016-12-04T09:12:13Z</time>
      </trkpt>
      <trkpt lat="43.20774" lon="0.90898">
        <ele>411.58</ele>
        <time>2016-12-04T09:12:40Z</time>
      </trkpt>
      <trkpt lat="43.20782" lon="0.90897">
        <ele>412.06</ele>
        <time>2016-12-04T09:12:49Z</time>
      </trkpt>
      <trkpt lat="43.20789" lon="0.90894">
        <ele>411.58</ele>
        <time>2016-12-04T09:12:59Z</time>
      </trkpt>
      <trkpt lat="43.20792" lon="0.90891">
        <ele>412.54</ele>
        <time>2016-12-04T09:13:11Z</time>
      </trkpt>
      <trkpt lat="43.20792" lon="0.90886">
        <ele>412.54</ele>
        <time>2016-12-04T09:13:32Z</time>
      </trkpt>
      <trkpt lat="43.2079" lon="0.90888">
        <ele>413.02</ele>
        <time>2016-12-04T09:13:45Z</time>
      </trkpt>
      <trkpt lat="43.20782" lon="0.90889">
        <ele>413.02</ele>
        <time>2016-12-04T09:13:58Z</time>
      </trkpt>
      <trkpt lat="43.20772" lon="0.90894">
        <ele>411.58</ele>
        <time>2016-12-04T09:14:09Z</time>
      </trkpt>
      <trkpt lat="43.20771" lon="0.90895">
        <ele>411.58</ele>
        <time>2016-12-04T09:14:22Z</time>
      </trkpt>
      <trkpt lat="43.20769" lon="0.90896">
        <ele>411.1</ele>
        <time>2016-12-04T09:14:43Z</time>
      </trkpt>
      <trkpt lat="43.20769" lon="0.90895">
        <ele>410.62</ele>
        <time>2016-12-04T09:15:04Z</time>
      </trkpt>
      <trkpt lat="43.20774" lon="0.90892">
        <ele>410.62</ele>
        <time>2016-12-04T09:15:24Z</time>
      </trkpt>
      <trkpt lat="43.20773" lon="0.90894">
        <ele>411.1</ele>
        <time>2016-12-04T09:15:46Z</time>
      </trkpt>
      <trkpt lat="43.20771" lon="0.90894">
        <ele>411.1</ele>
        <time>2016-12-04T09:15:51Z</time>
      </trkpt>
      <trkpt lat="43.20765" lon="0.90903">
        <ele>410.14</ele>
        <time>2016-12-04T09:16:03Z</time>
      </trkpt>
      <trkpt lat="43.20759" lon="0.90913">
        <ele>410.14</ele>
        <time>2016-12-04T09:16:13Z</time>
      </trkpt>
      <trkpt lat="43.20757" lon="0.90912">
        <ele>410.14</ele>
        <time>2016-12-04T09:16:23Z</time>
      </trkpt>
      <trkpt lat="43.20759" lon="0.90912">
        <ele>410.62</ele>
        <time>2016-12-04T09:16:45Z</time>
      </trkpt>
      <trkpt lat="43.20759" lon="0.90913">
        <ele>410.62</ele>
        <time>2016-12-04T09:16:51Z</time>
      </trkpt>
      <trkpt lat="43.20744" lon="0.9093">
        <ele>409.66</ele>
        <time>2016-12-04T09:17:04Z</time>
      </trkpt>
      <trkpt lat="43.20738" lon="0.90944">
        <ele>409.66</ele>
        <time>2016-12-04T09:17:14Z</time>
      </trkpt>
      <trkpt lat="43.20733" lon="0.90961">
        <ele>410.62</ele>
        <time>2016-12-04T09:17:25Z</time>
      </trkpt>
      <trkpt lat="43.20732" lon="0.90965">
        <ele>411.58</ele>
        <time>2016-12-04T09:17:28Z</time>
      </trkpt>
      <trkpt lat="43.20722" lon="0.90983">
        <ele>411.58</ele>
        <time>2016-12-04T09:17:41Z</time>
      </trkpt>
      <trkpt lat="43.2072" lon="0.91001">
        <ele>411.58</ele>
        <time>2016-12-04T09:17:53Z</time>
      </trkpt>
      <trkpt lat="43.20715" lon="0.91018">
        <ele>411.58</ele>
        <time>2016-12-04T09:18:04Z</time>
      </trkpt>
      <trkpt lat="43.20713" lon="0.91038">
        <ele>413.02</ele>
        <time>2016-12-04T09:18:16Z</time>
      </trkpt>
      <trkpt lat="43.20715" lon="0.91049">
        <ele>416.39</ele>
        <time>2016-12-04T09:18:25Z</time>
      </trkpt>
      <trkpt lat="43.20716" lon="0.9105">
        <ele>407.26</ele>
        <time>2016-12-04T09:18:26Z</time>
      </trkpt>
      <trkpt lat="43.20717" lon="0.91051">
        <ele>420.23</ele>
        <time>2016-12-04T09:18:27Z</time>
      </trkpt>
      <trkpt lat="43.20718" lon="0.91052">
        <ele>414.95</ele>
        <time>2016-12-04T09:18:28Z</time>
      </trkpt>
      <trkpt lat="43.20727" lon="0.91057">
        <ele>417.35</ele>
        <time>2016-12-04T09:18:42Z</time>
      </trkpt>
      <trkpt lat="43.20738" lon="0.91058">
        <ele>420.23</ele>
        <time>2016-12-04T09:18:55Z</time>
      </trkpt>
      <trkpt lat="43.20748" lon="0.91058">
        <ele>421.19</ele>
        <time>2016-12-04T09:19:04Z</time>
      </trkpt>
      <trkpt lat="43.20757" lon="0.91059">
        <ele>422.64</ele>
        <time>2016-12-04T09:19:15Z</time>
      </trkpt>
      <trkpt lat="43.20766" lon="0.91064">
        <ele>425.04</ele>
        <time>2016-12-04T09:19:28Z</time>
      </trkpt>
      <trkpt lat="43.20771" lon="0.91066">
        <ele>426.96</ele>
        <time>2016-12-04T09:19:40Z</time>
      </trkpt>
      <trkpt lat="43.2078" lon="0.91067">
        <ele>428.4</ele>
        <time>2016-12-04T09:19:52Z</time>
      </trkpt>
      <trkpt lat="43.20789" lon="0.91067">
        <ele>430.33</ele>
        <time>2016-12-04T09:20:02Z</time>
      </trkpt>
      <trkpt lat="43.20801" lon="0.91068">
        <ele>431.29</ele>
        <time>2016-12-04T09:20:13Z</time>
      </trkpt>
      <trkpt lat="43.2081" lon="0.9107">
        <ele>431.29</ele>
        <time>2016-12-04T09:20:23Z</time>
      </trkpt>
      <trkpt lat="43.2082" lon="0.91071">
        <ele>432.73</ele>
        <time>2016-12-04T09:20:33Z</time>
      </trkpt>
      <trkpt lat="43.2083" lon="0.91075">
        <ele>433.21</ele>
        <time>2016-12-04T09:20:42Z</time>
      </trkpt>
      <trkpt lat="43.20838" lon="0.91078">
        <ele>434.65</ele>
        <time>2016-12-04T09:20:53Z</time>
      </trkpt>
      <trkpt lat="43.20845" lon="0.9108">
        <ele>437.54</ele>
        <time>2016-12-04T09:21:03Z</time>
      </trkpt>
      <trkpt lat="43.20854" lon="0.91081">
        <ele>438.98</ele>
        <time>2016-12-04T09:21:15Z</time>
      </trkpt>
      <trkpt lat="43.20864" lon="0.91084">
        <ele>441.38</ele>
        <time>2016-12-04T09:21:27Z</time>
      </trkpt>
      <trkpt lat="43.20875" lon="0.91084">
        <ele>443.31</ele>
        <time>2016-12-04T09:21:41Z</time>
      </trkpt>
      <trkpt lat="43.20882" lon="0.91083">
        <ele>444.75</ele>
        <time>2016-12-04T09:21:50Z</time>
      </trkpt>
      <trkpt lat="43.20889" lon="0.9108">
        <ele>446.19</ele>
        <time>2016-12-04T09:21:56Z</time>
      </trkpt>
      <trkpt lat="43.20898" lon="0.91083">
        <ele>446.19</ele>
        <time>2016-12-04T09:22:07Z</time>
      </trkpt>
      <trkpt lat="43.20904" lon="0.91088">
        <ele>448.59</ele>
        <time>2016-12-04T09:22:19Z</time>
      </trkpt>
      <trkpt lat="43.20912" lon="0.9109">
        <ele>449.55</ele>
        <time>2016-12-04T09:22:31Z</time>
      </trkpt>
      <trkpt lat="43.20918" lon="0.91092">
        <ele>450.52</ele>
        <time>2016-12-04T09:22:37Z</time>
      </trkpt>
      <trkpt lat="43.20926" lon="0.91088">
        <ele>451.48</ele>
        <time>2016-12-04T09:22:50Z</time>
      </trkpt>
      <trkpt lat="43.20924" lon="0.91088">
        <ele>452.44</ele>
        <time>2016-12-04T09:23:04Z</time>
      </trkpt>
      <trkpt lat="43.20929" lon="0.91091">
        <ele>452.92</ele>
        <time>2016-12-04T09:23:22Z</time>
      </trkpt>
      <trkpt lat="43.2094" lon="0.91099">
        <ele>455.32</ele>
        <time>2016-12-04T09:23:35Z</time>
      </trkpt>
      <trkpt lat="43.20946" lon="0.91097">
        <ele>456.28</ele>
        <time>2016-12-04T09:23:46Z</time>
      </trkpt>
      <trkpt lat="43.20959" lon="0.91085">
        <ele>458.21</ele>
        <time>2016-12-04T09:23:59Z</time>
      </trkpt>
      <trkpt lat="43.2097" lon="0.91074">
        <ele>459.17</ele>
        <time>2016-12-04T09:24:12Z</time>
      </trkpt>
      <trkpt lat="43.20978" lon="0.91064">
        <ele>460.61</ele>
        <time>2016-12-04T09:24:24Z</time>
      </trkpt>
      <trkpt lat="43.20986" lon="0.91053">
        <ele>462.05</ele>
        <time>2016-12-04T09:24:37Z</time>
      </trkpt>
      <trkpt lat="43.20992" lon="0.91047">
        <ele>463.49</ele>
        <time>2016-12-04T09:24:49Z</time>
      </trkpt>
      <trkpt lat="43.20998" lon="0.91036">
        <ele>466.38</ele>
        <time>2016-12-04T09:25:02Z</time>
      </trkpt>
      <trkpt lat="43.21003" lon="0.91023">
        <ele>467.82</ele>
        <time>2016-12-04T09:25:14Z</time>
      </trkpt>
      <trkpt lat="43.21007" lon="0.91017">
        <ele>468.78</ele>
        <time>2016-12-04T09:25:26Z</time>
      </trkpt>
      <trkpt lat="43.21006" lon="0.91012">
        <ele>468.3</ele>
        <time>2016-12-04T09:25:40Z</time>
      </trkpt>
      <trkpt lat="43.21008" lon="0.91018">
        <ele>469.74</ele>
        <time>2016-12-04T09:25:52Z</time>
      </trkpt>
      <trkpt lat="43.21008" lon="0.91018">
        <ele>469.26</ele>
        <time>2016-12-04T09:26:08Z</time>
      </trkpt>
      <trkpt lat="43.21012" lon="0.91022">
        <ele>470.7</ele>
        <time>2016-12-04T09:26:22Z</time>
      </trkpt>
      <trkpt lat="43.21014" lon="0.91025">
        <ele>471.66</ele>
        <time>2016-12-04T09:26:25Z</time>
      </trkpt>
      <trkpt lat="43.21024" lon="0.91033">
        <ele>473.59</ele>
        <time>2016-12-04T09:26:37Z</time>
      </trkpt>
      <trkpt lat="43.21027" lon="0.91035">
        <ele>473.59</ele>
        <time>2016-12-04T09:26:40Z</time>
      </trkpt>
      <trkpt lat="43.21031" lon="0.91034">
        <ele>475.03</ele>
        <time>2016-12-04T09:26:44Z</time>
      </trkpt>
      <trkpt lat="43.21041" lon="0.91039">
        <ele>476.95</ele>
        <time>2016-12-04T09:26:57Z</time>
      </trkpt>
      <trkpt lat="43.21042" lon="0.9104">
        <ele>476.95</ele>
        <time>2016-12-04T09:26:59Z</time>
      </trkpt>
      <trkpt lat="43.2105" lon="0.91042">
        <ele>478.39</ele>
        <time>2016-12-04T09:27:12Z</time>
      </trkpt>
      <trkpt lat="43.21061" lon="0.9105">
        <ele>479.84</ele>
        <time>2016-12-04T09:27:26Z</time>
      </trkpt>
      <trkpt lat="43.21071" lon="0.91056">
        <ele>481.28</ele>
        <time>2016-12-04T09:27:38Z</time>
      </trkpt>
      <trkpt lat="43.21085" lon="0.91062">
        <ele>483.2</ele>
        <time>2016-12-04T09:27:51Z</time>
      </trkpt>
      <trkpt lat="43.21087" lon="0.91063">
        <ele>482.24</ele>
        <time>2016-12-04T09:27:53Z</time>
      </trkpt>
      <trkpt lat="43.21088" lon="0.91064">
        <ele>486.08</ele>
        <time>2016-12-04T09:27:54Z</time>
      </trkpt>
      <trkpt lat="43.21089" lon="0.91064">
        <ele>482.24</ele>
        <time>2016-12-04T09:27:55Z</time>
      </trkpt>
      <trkpt lat="43.21096" lon="0.91075">
        <ele>484.16</ele>
        <time>2016-12-04T09:28:05Z</time>
      </trkpt>
      <trkpt lat="43.21106" lon="0.91086">
        <ele>485.12</ele>
        <time>2016-12-04T09:28:18Z</time>
      </trkpt>
      <trkpt lat="43.21113" lon="0.91103">
        <ele>486.56</ele>
        <time>2016-12-04T09:28:32Z</time>
      </trkpt>
      <trkpt lat="43.21122" lon="0.91115">
        <ele>487.05</ele>
        <time>2016-12-04T09:28:47Z</time>
      </trkpt>
      <trkpt lat="43.21122" lon="0.91115">
        <ele>487.53</ele>
        <time>2016-12-04T09:29:02Z</time>
      </trkpt>
      <trkpt lat="43.21127" lon="0.91123">
        <ele>487.05</ele>
        <time>2016-12-04T09:29:14Z</time>
      </trkpt>
      <trkpt lat="43.21137" lon="0.91128">
        <ele>485.6</ele>
        <time>2016-12-04T09:29:27Z</time>
      </trkpt>
      <trkpt lat="43.21144" lon="0.91133">
        <ele>484.64</ele>
        <time>2016-12-04T09:29:40Z</time>
      </trkpt>
      <trkpt lat="43.21158" lon="0.91139">
        <ele>481.76</ele>
        <time>2016-12-04T09:29:52Z</time>
      </trkpt>
      <trkpt lat="43.21168" lon="0.9114">
        <ele>479.84</ele>
        <time>2016-12-04T09:30:01Z</time>
      </trkpt>
      <trkpt lat="43.21176" lon="0.91127">
        <ele>476.95</ele>
        <time>2016-12-04T09:30:14Z</time>
      </trkpt>
      <trkpt lat="43.21187" lon="0.91105">
        <ele>474.55</ele>
        <time>2016-12-04T09:30:27Z</time>
      </trkpt>
      <trkpt lat="43.21194" lon="0.91094">
        <ele>473.11</ele>
        <time>2016-12-04T09:30:40Z</time>
      </trkpt>
      <trkpt lat="43.21205" lon="0.91087">
        <ele>470.7</ele>
        <time>2016-12-04T09:30:52Z</time>
      </trkpt>
      <trkpt lat="43.21217" lon="0.91086">
        <ele>468.3</ele>
        <time>2016-12-04T09:31:05Z</time>
      </trkpt>
      <trkpt lat="43.21229" lon="0.91086">
        <ele>466.38</ele>
        <time>2016-12-04T09:31:16Z</time>
      </trkpt>
      <trkpt lat="43.21243" lon="0.91087">
        <ele>464.45</ele>
        <time>2016-12-04T09:31:27Z</time>
      </trkpt>
      <trkpt lat="43.21245" lon="0.91076">
        <ele>463.97</ele>
        <time>2016-12-04T09:31:41Z</time>
      </trkpt>
      <trkpt lat="43.21245" lon="0.91071">
        <ele>463.97</ele>
        <time>2016-12-04T09:32:02Z</time>
      </trkpt>
      <trkpt lat="43.21244" lon="0.91073">
        <ele>463.97</ele>
        <time>2016-12-04T09:32:26Z</time>
      </trkpt>
      <trkpt lat="43.21246" lon="0.91075">
        <ele>463.97</ele>
        <time>2016-12-04T09:32:53Z</time>
      </trkpt>
      <trkpt lat="43.21255" lon="0.91087">
        <ele>463.01</ele>
        <time>2016-12-04T09:33:03Z</time>
      </trkpt>
      <trkpt lat="43.2127" lon="0.91088">
        <ele>462.05</ele>
        <time>2016-12-04T09:33:13Z</time>
      </trkpt>
      <trkpt lat="43.21286" lon="0.91082">
        <ele>461.57</ele>
        <time>2016-12-04T09:33:23Z</time>
      </trkpt>
      <trkpt lat="43.2129" lon="0.9108">
        <ele>461.57</ele>
        <time>2016-12-04T09:33:26Z</time>
      </trkpt>
      <trkpt lat="43.21301" lon="0.91078">
        <ele>460.61</ele>
        <time>2016-12-04T09:33:37Z</time>
      </trkpt>
      <trkpt lat="43.21303" lon="0.91078">
        <ele>460.61</ele>
        <time>2016-12-04T09:33:38Z</time>
      </trkpt>
      <trkpt lat="43.21314" lon="0.91071">
        <ele>460.61</ele>
        <time>2016-12-04T09:33:48Z</time>
      </trkpt>
      <trkpt lat="43.21326" lon="0.91055">
        <ele>461.09</ele>
        <time>2016-12-04T09:34:01Z</time>
      </trkpt>
      <trkpt lat="43.21332" lon="0.91039">
        <ele>462.05</ele>
        <time>2016-12-04T09:34:11Z</time>
      </trkpt>
      <trkpt lat="43.21339" lon="0.91018">
        <ele>462.53</ele>
        <time>2016-12-04T09:34:26Z</time>
      </trkpt>
      <trkpt lat="43.21344" lon="0.91013">
        <ele>462.53</ele>
        <time>2016-12-04T09:34:35Z</time>
      </trkpt>
      <trkpt lat="43.21349" lon="0.91006">
        <ele>462.53</ele>
        <time>2016-12-04T09:34:38Z</time>
      </trkpt>
      <trkpt lat="43.2136" lon="0.90988">
        <ele>463.01</ele>
        <time>2016-12-04T09:34:50Z</time>
      </trkpt>
      <trkpt lat="43.21371" lon="0.90973">
        <ele>463.49</ele>
        <time>2016-12-04T09:35:03Z</time>
      </trkpt>
      <trkpt lat="43.21379" lon="0.90966">
        <ele>462.53</ele>
        <time>2016-12-04T09:35:13Z</time>
      </trkpt>
      <trkpt lat="43.21389" lon="0.90957">
        <ele>461.09</ele>
        <time>2016-12-04T09:35:27Z</time>
      </trkpt>
      <trkpt lat="43.21392" lon="0.90956">
        <ele>461.09</ele>
        <time>2016-12-04T09:35:31Z</time>
      </trkpt>
      <trkpt lat="43.21407" lon="0.90949">
        <ele>460.61</ele>
        <time>2016-12-04T09:35:44Z</time>
      </trkpt>
      <trkpt lat="43.21418" lon="0.90948">
        <ele>459.17</ele>
        <time>2016-12-04T09:35:54Z</time>
      </trkpt>
      <trkpt lat="43.2143" lon="0.90943">
        <ele>457.24</ele>
        <time>2016-12-04T09:36:04Z</time>
      </trkpt>
      <trkpt lat="43.2144" lon="0.90939">
        <ele>454.36</ele>
        <time>2016-12-04T09:36:15Z</time>
      </trkpt>
      <trkpt lat="43.21452" lon="0.90932">
        <ele>452.44</ele>
        <time>2016-12-04T09:36:27Z</time>
      </trkpt>
      <trkpt lat="43.21464" lon="0.90923">
        <ele>451.48</ele>
        <time>2016-12-04T09:36:37Z</time>
      </trkpt>
      <trkpt lat="43.21474" lon="0.90916">
        <ele>449.07</ele>
        <time>2016-12-04T09:36:48Z</time>
      </trkpt>
      <trkpt lat="43.21479" lon="0.90915">
        <ele>448.59</ele>
        <time>2016-12-04T09:36:52Z</time>
      </trkpt>
      <trkpt lat="43.21495" lon="0.90915">
        <ele>447.15</ele>
        <time>2016-12-04T09:37:05Z</time>
      </trkpt>
      <trkpt lat="43.21506" lon="0.90917">
        <ele>445.23</ele>
        <time>2016-12-04T09:37:16Z</time>
      </trkpt>
      <trkpt lat="43.21522" lon="0.90921">
        <ele>443.79</ele>
        <time>2016-12-04T09:37:27Z</time>
      </trkpt>
      <trkpt lat="43.21536" lon="0.90925">
        <ele>442.82</ele>
        <time>2016-12-04T09:37:39Z</time>
      </trkpt>
      <trkpt lat="43.21547" lon="0.90927">
        <ele>441.86</ele>
        <time>2016-12-04T09:37:49Z</time>
      </trkpt>
      <trkpt lat="43.21562" lon="0.90929">
        <ele>441.86</ele>
        <time>2016-12-04T09:38:01Z</time>
      </trkpt>
      <trkpt lat="43.21573" lon="0.90932">
        <ele>441.38</ele>
        <time>2016-12-04T09:38:11Z</time>
      </trkpt>
      <trkpt lat="43.21591" lon="0.90934">
        <ele>440.9</ele>
        <time>2016-12-04T09:38:24Z</time>
      </trkpt>
      <trkpt lat="43.21604" lon="0.90937">
        <ele>440.9</ele>
        <time>2016-12-04T09:38:37Z</time>
      </trkpt>
      <trkpt lat="43.21619" lon="0.9095">
        <ele>438.98</ele>
        <time>2016-12-04T09:38:50Z</time>
      </trkpt>
      <trkpt lat="43.21625" lon="0.90956">
        <ele>437.54</ele>
        <time>2016-12-04T09:38:56Z</time>
      </trkpt>
      <trkpt lat="43.21638" lon="0.90969">
        <ele>436.1</ele>
        <time>2016-12-04T09:39:08Z</time>
      </trkpt>
      <trkpt lat="43.21649" lon="0.90979">
        <ele>435.61</ele>
        <time>2016-12-04T09:39:19Z</time>
      </trkpt>
      <trkpt lat="43.21658" lon="0.90987">
        <ele>435.61</ele>
        <time>2016-12-04T09:39:29Z</time>
      </trkpt>
      <trkpt lat="43.21669" lon="0.91">
        <ele>435.13</ele>
        <time>2016-12-04T09:39:42Z</time>
      </trkpt>
      <trkpt lat="43.21679" lon="0.91017">
        <ele>435.61</ele>
        <time>2016-12-04T09:39:54Z</time>
      </trkpt>
      <trkpt lat="43.21685" lon="0.91033">
        <ele>435.61</ele>
        <time>2016-12-04T09:40:05Z</time>
      </trkpt>
      <trkpt lat="43.21692" lon="0.9105">
        <ele>436.1</ele>
        <time>2016-12-04T09:40:16Z</time>
      </trkpt>
      <trkpt lat="43.21698" lon="0.91058">
        <ele>435.61</ele>
        <time>2016-12-04T09:40:25Z</time>
      </trkpt>
      <trkpt lat="43.21704" lon="0.91066">
        <ele>435.61</ele>
        <time>2016-12-04T09:40:36Z</time>
      </trkpt>
      <trkpt lat="43.21704" lon="0.91069">
        <ele>435.61</ele>
        <time>2016-12-04T09:40:50Z</time>
      </trkpt>
      <trkpt lat="43.21702" lon="0.91067">
        <ele>435.13</ele>
        <time>2016-12-04T09:40:59Z</time>
      </trkpt>
      <trkpt lat="43.21705" lon="0.91066">
        <ele>430.81</ele>
        <time>2016-12-04T09:41:13Z</time>
      </trkpt>
      <trkpt lat="43.21705" lon="0.91065">
        <ele>438.02</ele>
        <time>2016-12-04T09:41:14Z</time>
      </trkpt>
      <trkpt lat="43.21705" lon="0.91065">
        <ele>434.17</ele>
        <time>2016-12-04T09:41:17Z</time>
      </trkpt>
      <trkpt lat="43.21706" lon="0.91067">
        <ele>435.61</ele>
        <time>2016-12-04T09:41:28Z</time>
      </trkpt>
      <trkpt lat="43.21707" lon="0.91073">
        <ele>435.13</ele>
        <time>2016-12-04T09:41:40Z</time>
      </trkpt>
      <trkpt lat="43.21706" lon="0.91074">
        <ele>435.13</ele>
        <time>2016-12-04T09:41:54Z</time>
      </trkpt>
      <trkpt lat="43.21706" lon="0.91075">
        <ele>435.13</ele>
        <time>2016-12-04T09:42:14Z</time>
      </trkpt>
      <trkpt lat="43.2171" lon="0.91074">
        <ele>434.65</ele>
        <time>2016-12-04T09:42:25Z</time>
      </trkpt>
      <trkpt lat="43.21707" lon="0.9107">
        <ele>435.13</ele>
        <time>2016-12-04T09:42:40Z</time>
      </trkpt>
      <trkpt lat="43.21709" lon="0.91069">
        <ele>435.13</ele>
        <time>2016-12-04T09:43:03Z</time>
      </trkpt>
      <trkpt lat="43.21708" lon="0.9107">
        <ele>435.13</ele>
        <time>2016-12-04T09:43:28Z</time>
      </trkpt>
      <trkpt lat="43.21706" lon="0.91072">
        <ele>435.13</ele>
        <time>2016-12-04T09:43:50Z</time>
      </trkpt>
      <trkpt lat="43.21707" lon="0.91072">
        <ele>435.61</ele>
        <time>2016-12-04T09:44:09Z</time>
      </trkpt>
      <trkpt lat="43.21707" lon="0.91077">
        <ele>435.13</ele>
        <time>2016-12-04T09:44:25Z</time>
      </trkpt>
      <trkpt lat="43.21709" lon="0.91069">
        <ele>435.13</ele>
        <time>2016-12-04T09:44:46Z</time>
      </trkpt>
      <trkpt lat="43.2171" lon="0.91079">
        <ele>435.13</ele>
        <time>2016-12-04T09:45:03Z</time>
      </trkpt>
      <trkpt lat="43.2171" lon="0.91083">
        <ele>434.65</ele>
        <time>2016-12-04T09:45:16Z</time>
      </trkpt>
      <trkpt lat="43.21714" lon="0.91089">
        <ele>434.65</ele>
        <time>2016-12-04T09:45:28Z</time>
      </trkpt>
      <trkpt lat="43.2172" lon="0.91096">
        <ele>434.17</ele>
        <time>2016-12-04T09:45:39Z</time>
      </trkpt>
      <trkpt lat="43.21727" lon="0.91103">
        <ele>433.21</ele>
        <time>2016-12-04T09:45:50Z</time>
      </trkpt>
      <trkpt lat="43.2173" lon="0.91108">
        <ele>432.73</ele>
        <time>2016-12-04T09:45:57Z</time>
      </trkpt>
      <trkpt lat="43.21743" lon="0.91124">
        <ele>432.25</ele>
        <time>2016-12-04T09:46:10Z</time>
      </trkpt>
      <trkpt lat="43.21756" lon="0.91139">
        <ele>430.81</ele>
        <time>2016-12-04T09:46:23Z</time>
      </trkpt>
      <trkpt lat="43.21767" lon="0.91151">
        <ele>429.85</ele>
        <time>2016-12-04T09:46:36Z</time>
      </trkpt>
      <trkpt lat="43.21767" lon="0.91152">
        <ele>429.37</ele>
        <time>2016-12-04T09:46:48Z</time>
      </trkpt>
      <trkpt lat="43.21769" lon="0.91152">
        <ele>428.89</ele>
        <time>2016-12-04T09:46:50Z</time>
      </trkpt>
      <trkpt lat="43.21779" lon="0.91156">
        <ele>428.4</ele>
        <time>2016-12-04T09:47:00Z</time>
      </trkpt>
      <trkpt lat="43.21777" lon="0.91159">
        <ele>428.89</ele>
        <time>2016-12-04T09:47:09Z</time>
      </trkpt>
      <trkpt lat="43.21781" lon="0.91166">
        <ele>427.92</ele>
        <time>2016-12-04T09:47:14Z</time>
      </trkpt>
      <trkpt lat="43.218" lon="0.91183">
        <ele>426.96</ele>
        <time>2016-12-04T09:47:30Z</time>
      </trkpt>
      <trkpt lat="43.21817" lon="0.91196">
        <ele>426</ele>
        <time>2016-12-04T09:47:43Z</time>
      </trkpt>
      <trkpt lat="43.21831" lon="0.91207">
        <ele>424.08</ele>
        <time>2016-12-04T09:47:55Z</time>
      </trkpt>
      <trkpt lat="43.21848" lon="0.91219">
        <ele>422.64</ele>
        <time>2016-12-04T09:48:08Z</time>
      </trkpt>
      <trkpt lat="43.2186" lon="0.91231">
        <ele>421.68</ele>
        <time>2016-12-04T09:48:20Z</time>
      </trkpt>
      <trkpt lat="43.21876" lon="0.91248">
        <ele>420.71</ele>
        <time>2016-12-04T09:48:34Z</time>
      </trkpt>
      <trkpt lat="43.21883" lon="0.91256">
        <ele>420.23</ele>
        <time>2016-12-04T09:48:41Z</time>
      </trkpt>
      <trkpt lat="43.21885" lon="0.91258">
        <ele>419.75</ele>
        <time>2016-12-04T09:48:43Z</time>
      </trkpt>
      <trkpt lat="43.219" lon="0.91271">
        <ele>418.31</ele>
        <time>2016-12-04T09:48:58Z</time>
      </trkpt>
      <trkpt lat="43.21913" lon="0.91281">
        <ele>416.39</ele>
        <time>2016-12-04T09:49:11Z</time>
      </trkpt>
      <trkpt lat="43.21923" lon="0.91291">
        <ele>414.95</ele>
        <time>2016-12-04T09:49:23Z</time>
      </trkpt>
      <trkpt lat="43.21931" lon="0.91303">
        <ele>413.02</ele>
        <time>2016-12-04T09:49:34Z</time>
      </trkpt>
      <trkpt lat="43.21944" lon="0.91316">
        <ele>412.06</ele>
        <time>2016-12-04T09:49:48Z</time>
      </trkpt>
      <trkpt lat="43.21959" lon="0.91331">
        <ele>410.14</ele>
        <time>2016-12-04T09:50:04Z</time>
      </trkpt>
      <trkpt lat="43.21975" lon="0.91342">
        <ele>409.66</ele>
        <time>2016-12-04T09:50:16Z</time>
      </trkpt>
      <trkpt lat="43.21984" lon="0.9135">
        <ele>409.18</ele>
        <time>2016-12-04T09:50:27Z</time>
      </trkpt>
      <trkpt lat="43.21998" lon="0.9136">
        <ele>407.74</ele>
        <time>2016-12-04T09:50:39Z</time>
      </trkpt>
      <trkpt lat="43.22013" lon="0.91373">
        <ele>406.77</ele>
        <time>2016-12-04T09:50:53Z</time>
      </trkpt>
      <trkpt lat="43.22026" lon="0.91384">
        <ele>403.41</ele>
        <time>2016-12-04T09:51:05Z</time>
      </trkpt>
      <trkpt lat="43.22028" lon="0.91386">
        <ele>407.26</ele>
        <time>2016-12-04T09:51:07Z</time>
      </trkpt>
      <trkpt lat="43.22038" lon="0.91394">
        <ele>405.33</ele>
        <time>2016-12-04T09:51:16Z</time>
      </trkpt>
      <trkpt lat="43.22054" lon="0.91406">
        <ele>405.33</ele>
        <time>2016-12-04T09:51:30Z</time>
      </trkpt>
      <trkpt lat="43.2207" lon="0.9141">
        <ele>404.85</ele>
        <time>2016-12-04T09:51:41Z</time>
      </trkpt>
      <trkpt lat="43.22085" lon="0.91412">
        <ele>404.85</ele>
        <time>2016-12-04T09:51:54Z</time>
      </trkpt>
      <trkpt lat="43.22099" lon="0.91415">
        <ele>404.37</ele>
        <time>2016-12-04T09:52:04Z</time>
      </trkpt>
      <trkpt lat="43.22113" lon="0.91418">
        <ele>404.37</ele>
        <time>2016-12-04T09:52:15Z</time>
      </trkpt>
      <trkpt lat="43.22128" lon="0.91422">
        <ele>404.37</ele>
        <time>2016-12-04T09:52:28Z</time>
      </trkpt>
      <trkpt lat="43.22141" lon="0.91424">
        <ele>405.33</ele>
        <time>2016-12-04T09:52:39Z</time>
      </trkpt>
      <trkpt lat="43.22157" lon="0.91428">
        <ele>405.33</ele>
        <time>2016-12-04T09:52:51Z</time>
      </trkpt>
      <trkpt lat="43.22172" lon="0.91431">
        <ele>405.81</ele>
        <time>2016-12-04T09:53:04Z</time>
      </trkpt>
      <trkpt lat="43.22188" lon="0.91435">
        <ele>404.37</ele>
        <time>2016-12-04T09:53:17Z</time>
      </trkpt>
      <trkpt lat="43.22206" lon="0.91441">
        <ele>402.93</ele>
        <time>2016-12-04T09:53:30Z</time>
      </trkpt>
      <trkpt lat="43.22211" lon="0.91442">
        <ele>402.45</ele>
        <time>2016-12-04T09:53:33Z</time>
      </trkpt>
      <trkpt lat="43.22225" lon="0.91443">
        <ele>402.93</ele>
        <time>2016-12-04T09:53:44Z</time>
      </trkpt>
      <trkpt lat="43.22229" lon="0.91446">
        <ele>402.93</ele>
        <time>2016-12-04T09:53:47Z</time>
      </trkpt>
      <trkpt lat="43.22247" lon="0.91453">
        <ele>401.97</ele>
        <time>2016-12-04T09:54:01Z</time>
      </trkpt>
      <trkpt lat="43.22252" lon="0.91455">
        <ele>401.97</ele>
        <time>2016-12-04T09:54:05Z</time>
      </trkpt>
      <trkpt lat="43.22259" lon="0.91457">
        <ele>401.49</ele>
        <time>2016-12-04T09:54:10Z</time>
      </trkpt>
      <trkpt lat="43.22275" lon="0.91465">
        <ele>400.05</ele>
        <time>2016-12-04T09:54:26Z</time>
      </trkpt>
      <trkpt lat="43.22275" lon="0.91465">
        <ele>401.01</ele>
        <time>2016-12-04T09:54:27Z</time>
      </trkpt>
      <trkpt lat="43.22285" lon="0.91474">
        <ele>400.05</ele>
        <time>2016-12-04T09:54:37Z</time>
      </trkpt>
      <trkpt lat="43.22287" lon="0.91475">
        <ele>399.08</ele>
        <time>2016-12-04T09:54:39Z</time>
      </trkpt>
      <trkpt lat="43.22289" lon="0.91477">
        <ele>400.53</ele>
        <time>2016-12-04T09:54:41Z</time>
      </trkpt>
      <trkpt lat="43.22299" lon="0.91487">
        <ele>399.08</ele>
        <time>2016-12-04T09:54:51Z</time>
      </trkpt>
      <trkpt lat="43.223" lon="0.91487">
        <ele>399.57</ele>
        <time>2016-12-04T09:54:52Z</time>
      </trkpt>
      <trkpt lat="43.22308" lon="0.91494">
        <ele>394.28</ele>
        <time>2016-12-04T09:55:03Z</time>
      </trkpt>
      <trkpt lat="43.22308" lon="0.91495">
        <ele>403.89</ele>
        <time>2016-12-04T09:55:04Z</time>
      </trkpt>
      <trkpt lat="43.22308" lon="0.91494">
        <ele>399.57</ele>
        <time>2016-12-04T09:55:05Z</time>
      </trkpt>
      <trkpt lat="43.22305" lon="0.91488">
        <ele>399.57</ele>
        <time>2016-12-04T09:55:14Z</time>
      </trkpt>
      <trkpt lat="43.22306" lon="0.91489">
        <ele>395.24</ele>
        <time>2016-12-04T09:55:16Z</time>
      </trkpt>
      <trkpt lat="43.22306" lon="0.91488">
        <ele>401.97</ele>
        <time>2016-12-04T09:55:17Z</time>
      </trkpt>
      <trkpt lat="43.22306" lon="0.91488">
        <ele>399.08</ele>
        <time>2016-12-04T09:55:18Z</time>
      </trkpt>
      <trkpt lat="43.22305" lon="0.91487">
        <ele>400.05</ele>
        <time>2016-12-04T09:55:21Z</time>
      </trkpt>
      <trkpt lat="43.22305" lon="0.91485">
        <ele>396.68</ele>
        <time>2016-12-04T09:55:24Z</time>
      </trkpt>
      <trkpt lat="43.22305" lon="0.91486">
        <ele>401.01</ele>
        <time>2016-12-04T09:55:25Z</time>
      </trkpt>
      <trkpt lat="43.22306" lon="0.9148">
        <ele>399.57</ele>
        <time>2016-12-04T09:55:34Z</time>
      </trkpt>
      <trkpt lat="43.22311" lon="0.91485">
        <ele>400.05</ele>
        <time>2016-12-04T09:55:38Z</time>
      </trkpt>
      <trkpt lat="43.22321" lon="0.91479">
        <ele>404.85</ele>
        <time>2016-12-04T09:55:47Z</time>
      </trkpt>
      <trkpt lat="43.22322" lon="0.91478">
        <ele>401.01</ele>
        <time>2016-12-04T09:55:48Z</time>
      </trkpt>
      <trkpt lat="43.22331" lon="0.91464">
        <ele>401.97</ele>
        <time>2016-12-04T09:56:00Z</time>
      </trkpt>
      <trkpt lat="43.22336" lon="0.91449">
        <ele>402.45</ele>
        <time>2016-12-04T09:56:11Z</time>
      </trkpt>
      <trkpt lat="43.22337" lon="0.91446">
        <ele>402.93</ele>
        <time>2016-12-04T09:56:13Z</time>
      </trkpt>
      <trkpt lat="43.22339" lon="0.91433">
        <ele>402.45</ele>
        <time>2016-12-04T09:56:21Z</time>
      </trkpt>
      <trkpt lat="43.22343" lon="0.91428">
        <ele>402.93</ele>
        <time>2016-12-04T09:56:25Z</time>
      </trkpt>
      <trkpt lat="43.22344" lon="0.91425">
        <ele>405.33</ele>
        <time>2016-12-04T09:56:27Z</time>
      </trkpt>
      <trkpt lat="43.22354" lon="0.91416">
        <ele>402.45</ele>
        <time>2016-12-04T09:56:37Z</time>
      </trkpt>
      <trkpt lat="43.22353" lon="0.91412">
        <ele>401.97</ele>
        <time>2016-12-04T09:56:44Z</time>
      </trkpt>
      <trkpt lat="43.22358" lon="0.91409">
        <ele>402.45</ele>
        <time>2016-12-04T09:56:48Z</time>
      </trkpt>
      <trkpt lat="43.22371" lon="0.91395">
        <ele>401.97</ele>
        <time>2016-12-04T09:57:00Z</time>
      </trkpt>
      <trkpt lat="43.22382" lon="0.9138">
        <ele>401.01</ele>
        <time>2016-12-04T09:57:14Z</time>
      </trkpt>
      <trkpt lat="43.22391" lon="0.91368">
        <ele>399.57</ele>
        <time>2016-12-04T09:57:25Z</time>
      </trkpt>
      <trkpt lat="43.22404" lon="0.91352">
        <ele>397.64</ele>
        <time>2016-12-04T09:57:38Z</time>
      </trkpt>
      <trkpt lat="43.22414" lon="0.91338">
        <ele>395.72</ele>
        <time>2016-12-04T09:57:50Z</time>
      </trkpt>
      <trkpt lat="43.22422" lon="0.91332">
        <ele>394.76</ele>
        <time>2016-12-04T09:58:02Z</time>
      </trkpt>
      <trkpt lat="43.22423" lon="0.91332">
        <ele>394.28</ele>
        <time>2016-12-04T09:58:14Z</time>
      </trkpt>
      <trkpt lat="43.22421" lon="0.91327">
        <ele>393.8</ele>
        <time>2016-12-04T09:58:34Z</time>
      </trkpt>
      <trkpt lat="43.2242" lon="0.91325">
        <ele>393.8</ele>
        <time>2016-12-04T09:58:59Z</time>
      </trkpt>
      <trkpt lat="43.22421" lon="0.91322">
        <ele>394.28</ele>
        <time>2016-12-04T09:59:26Z</time>
      </trkpt>
      <trkpt lat="43.22419" lon="0.91324">
        <ele>393.8</ele>
        <time>2016-12-04T09:59:51Z</time>
      </trkpt>
      <trkpt lat="43.22427" lon="0.91321">
        <ele>393.32</ele>
        <time>2016-12-04T10:00:04Z</time>
      </trkpt>
      <trkpt lat="43.22424" lon="0.91316">
        <ele>398.12</ele>
        <time>2016-12-04T10:00:14Z</time>
      </trkpt>
      <trkpt lat="43.22423" lon="0.91316">
        <ele>394.76</ele>
        <time>2016-12-04T10:00:15Z</time>
      </trkpt>
      <trkpt lat="43.2242" lon="0.91309">
        <ele>394.28</ele>
        <time>2016-12-04T10:00:24Z</time>
      </trkpt>
      <trkpt lat="43.22425" lon="0.91306">
        <ele>394.28</ele>
        <time>2016-12-04T10:00:36Z</time>
      </trkpt>
      <trkpt lat="43.22435" lon="0.91295">
        <ele>393.32</ele>
        <time>2016-12-04T10:00:49Z</time>
      </trkpt>
      <trkpt lat="43.22439" lon="0.91293">
        <ele>392.36</ele>
        <time>2016-12-04T10:01:04Z</time>
      </trkpt>
      <trkpt lat="43.2244" lon="0.91288">
        <ele>392.36</ele>
        <time>2016-12-04T10:01:07Z</time>
      </trkpt>
      <trkpt lat="43.22438" lon="0.91263">
        <ele>391.39</ele>
        <time>2016-12-04T10:01:20Z</time>
      </trkpt>
      <trkpt lat="43.22441" lon="0.91248">
        <ele>389.95</ele>
        <time>2016-12-04T10:01:33Z</time>
      </trkpt>
      <trkpt lat="43.22444" lon="0.91239">
        <ele>389.47</ele>
        <time>2016-12-04T10:01:40Z</time>
      </trkpt>
      <trkpt lat="43.22451" lon="0.91234">
        <ele>388.03</ele>
        <time>2016-12-04T10:01:50Z</time>
      </trkpt>
      <trkpt lat="43.22452" lon="0.9123">
        <ele>388.03</ele>
        <time>2016-12-04T10:02:00Z</time>
      </trkpt>
      <trkpt lat="43.22453" lon="0.91226">
        <ele>388.03</ele>
        <time>2016-12-04T10:02:12Z</time>
      </trkpt>
      <trkpt lat="43.22449" lon="0.91225">
        <ele>388.03</ele>
        <time>2016-12-04T10:02:29Z</time>
      </trkpt>
      <trkpt lat="43.2245" lon="0.91223">
        <ele>387.55</ele>
        <time>2016-12-04T10:02:51Z</time>
      </trkpt>
      <trkpt lat="43.22452" lon="0.91224">
        <ele>387.55</ele>
        <time>2016-12-04T10:02:52Z</time>
      </trkpt>
      <trkpt lat="43.2247" lon="0.91226">
        <ele>385.63</ele>
        <time>2016-12-04T10:03:06Z</time>
      </trkpt>
      <trkpt lat="43.22486" lon="0.91221">
        <ele>385.15</ele>
        <time>2016-12-04T10:03:18Z</time>
      </trkpt>
      <trkpt lat="43.22492" lon="0.91217">
        <ele>384.66</ele>
        <time>2016-12-04T10:03:30Z</time>
      </trkpt>
      <trkpt lat="43.22495" lon="0.91217">
        <ele>383.7</ele>
        <time>2016-12-04T10:03:43Z</time>
      </trkpt>
      <trkpt lat="43.22497" lon="0.91219">
        <ele>383.7</ele>
        <time>2016-12-04T10:03:54Z</time>
      </trkpt>
      <trkpt lat="43.22503" lon="0.91222">
        <ele>382.74</ele>
        <time>2016-12-04T10:04:00Z</time>
      </trkpt>
      <trkpt lat="43.22513" lon="0.91222">
        <ele>381.3</ele>
        <time>2016-12-04T10:04:13Z</time>
      </trkpt>
      <trkpt lat="43.22514" lon="0.91229">
        <ele>381.3</ele>
        <time>2016-12-04T10:04:28Z</time>
      </trkpt>
      <trkpt lat="43.22513" lon="0.91218">
        <ele>381.3</ele>
        <time>2016-12-04T10:04:46Z</time>
      </trkpt>
      <trkpt lat="43.22506" lon="0.91225">
        <ele>381.78</ele>
        <time>2016-12-04T10:04:57Z</time>
      </trkpt>
      <trkpt lat="43.22505" lon="0.91229">
        <ele>381.78</ele>
        <time>2016-12-04T10:05:00Z</time>
      </trkpt>
      <trkpt lat="43.22506" lon="0.91239">
        <ele>381.78</ele>
        <time>2016-12-04T10:05:07Z</time>
      </trkpt>
      <trkpt lat="43.22508" lon="0.91258">
        <ele>381.78</ele>
        <time>2016-12-04T10:05:20Z</time>
      </trkpt>
      <trkpt lat="43.2251" lon="0.9126">
        <ele>381.3</ele>
        <time>2016-12-04T10:05:22Z</time>
      </trkpt>
      <trkpt lat="43.2251" lon="0.91266">
        <ele>381.3</ele>
        <time>2016-12-04T10:05:33Z</time>
      </trkpt>
      <trkpt lat="43.22513" lon="0.91272">
        <ele>381.78</ele>
        <time>2016-12-04T10:05:46Z</time>
      </trkpt>
      <trkpt lat="43.22518" lon="0.91267">
        <ele>381.3</ele>
        <time>2016-12-04T10:05:58Z</time>
      </trkpt>
      <trkpt lat="43.22523" lon="0.9127">
        <ele>380.82</ele>
        <time>2016-12-04T10:06:08Z</time>
      </trkpt>
      <trkpt lat="43.22528" lon="0.91281">
        <ele>378.9</ele>
        <time>2016-12-04T10:06:20Z</time>
      </trkpt>
      <trkpt lat="43.22529" lon="0.91292">
        <ele>378.42</ele>
        <time>2016-12-04T10:06:32Z</time>
      </trkpt>
      <trkpt lat="43.22533" lon="0.91287">
        <ele>377.94</ele>
        <time>2016-12-04T10:06:46Z</time>
      </trkpt>
      <trkpt lat="43.22539" lon="0.91286">
        <ele>377.45</ele>
        <time>2016-12-04T10:06:58Z</time>
      </trkpt>
      <trkpt lat="43.22541" lon="0.91278">
        <ele>377.94</ele>
        <time>2016-12-04T10:07:16Z</time>
      </trkpt>
      <trkpt lat="43.2254" lon="0.91274">
        <ele>378.42</ele>
        <time>2016-12-04T10:07:38Z</time>
      </trkpt>
      <trkpt lat="43.2254" lon="0.91272">
        <ele>378.9</ele>
        <time>2016-12-04T10:07:51Z</time>
      </trkpt>
      <trkpt lat="43.22538" lon="0.91272">
        <ele>377.94</ele>
        <time>2016-12-04T10:08:07Z</time>
      </trkpt>
      <trkpt lat="43.22538" lon="0.91273">
        <ele>373.61</ele>
        <time>2016-12-04T10:08:08Z</time>
      </trkpt>
      <trkpt lat="43.22538" lon="0.91273">
        <ele>376.97</ele>
        <time>2016-12-04T10:08:09Z</time>
      </trkpt>
      <trkpt lat="43.22538" lon="0.91274">
        <ele>381.78</ele>
        <time>2016-12-04T10:08:10Z</time>
      </trkpt>
      <trkpt lat="43.22539" lon="0.91275">
        <ele>378.42</ele>
        <time>2016-12-04T10:08:11Z</time>
      </trkpt>
      <trkpt lat="43.22537" lon="0.91279">
        <ele>378.9</ele>
        <time>2016-12-04T10:08:22Z</time>
      </trkpt>
      <trkpt lat="43.22539" lon="0.91274">
        <ele>378.9</ele>
        <time>2016-12-04T10:08:35Z</time>
      </trkpt>
      <trkpt lat="43.22543" lon="0.91261">
        <ele>378.9</ele>
        <time>2016-12-04T10:08:49Z</time>
      </trkpt>
      <trkpt lat="43.22541" lon="0.91247">
        <ele>379.86</ele>
        <time>2016-12-04T10:09:02Z</time>
      </trkpt>
      <trkpt lat="43.2254" lon="0.91231">
        <ele>379.86</ele>
        <time>2016-12-04T10:09:15Z</time>
      </trkpt>
      <trkpt lat="43.22537" lon="0.91221">
        <ele>379.86</ele>
        <time>2016-12-04T10:09:24Z</time>
      </trkpt>
      <trkpt lat="43.22527" lon="0.91211">
        <ele>380.82</ele>
        <time>2016-12-04T10:09:35Z</time>
      </trkpt>
      <trkpt lat="43.22519" lon="0.91202">
        <ele>380.82</ele>
        <time>2016-12-04T10:09:49Z</time>
      </trkpt>
      <trkpt lat="43.22517" lon="0.91193">
        <ele>380.82</ele>
        <time>2016-12-04T10:10:05Z</time>
      </trkpt>
      <trkpt lat="43.22513" lon="0.91194">
        <ele>380.82</ele>
        <time>2016-12-04T10:10:25Z</time>
      </trkpt>
      <trkpt lat="43.22507" lon="0.91198">
        <ele>380.82</ele>
        <time>2016-12-04T10:10:44Z</time>
      </trkpt>
      <trkpt lat="43.2251" lon="0.91202">
        <ele>380.82</ele>
        <time>2016-12-04T10:11:01Z</time>
      </trkpt>
      <trkpt lat="43.22521" lon="0.91197">
        <ele>379.86</ele>
        <time>2016-12-04T10:11:12Z</time>
      </trkpt>
      <trkpt lat="43.22523" lon="0.91199">
        <ele>379.38</ele>
        <time>2016-12-04T10:11:22Z</time>
      </trkpt>
      <trkpt lat="43.22534" lon="0.91202">
        <ele>378.42</ele>
        <time>2016-12-04T10:11:32Z</time>
      </trkpt>
      <trkpt lat="43.22546" lon="0.91199">
        <ele>377.45</ele>
        <time>2016-12-04T10:11:46Z</time>
      </trkpt>
      <trkpt lat="43.22549" lon="0.91199">
        <ele>377.45</ele>
        <time>2016-12-04T10:11:58Z</time>
      </trkpt>
      <trkpt lat="43.2256" lon="0.91208">
        <ele>376.49</ele>
        <time>2016-12-04T10:12:09Z</time>
      </trkpt>
      <trkpt lat="43.22579" lon="0.91203">
        <ele>374.57</ele>
        <time>2016-12-04T10:12:25Z</time>
      </trkpt>
      <trkpt lat="43.22584" lon="0.91197">
        <ele>373.13</ele>
        <time>2016-12-04T10:12:30Z</time>
      </trkpt>
      <trkpt lat="43.22588" lon="0.91191">
        <ele>372.65</ele>
        <time>2016-12-04T10:12:43Z</time>
      </trkpt>
      <trkpt lat="43.22588" lon="0.91188">
        <ele>372.65</ele>
        <time>2016-12-04T10:13:02Z</time>
      </trkpt>
      <trkpt lat="43.22586" lon="0.91187">
        <ele>372.65</ele>
        <time>2016-12-04T10:13:19Z</time>
      </trkpt>
      <trkpt lat="43.22592" lon="0.91186">
        <ele>371.69</ele>
        <time>2016-12-04T10:13:44Z</time>
      </trkpt>
      <trkpt lat="43.22596" lon="0.91174">
        <ele>370.24</ele>
        <time>2016-12-04T10:13:54Z</time>
      </trkpt>
      <trkpt lat="43.22599" lon="0.91169">
        <ele>369.28</ele>
        <time>2016-12-04T10:13:58Z</time>
      </trkpt>
      <trkpt lat="43.22604" lon="0.91146">
        <ele>365.92</ele>
        <time>2016-12-04T10:14:11Z</time>
      </trkpt>
      <trkpt lat="43.22605" lon="0.91133">
        <ele>364.96</ele>
        <time>2016-12-04T10:14:19Z</time>
      </trkpt>
      <trkpt lat="43.22604" lon="0.91118">
        <ele>365.44</ele>
        <time>2016-12-04T10:14:28Z</time>
      </trkpt>
      <trkpt lat="43.22606" lon="0.911">
        <ele>367.36</ele>
        <time>2016-12-04T10:14:39Z</time>
      </trkpt>
      <trkpt lat="43.2261" lon="0.91092">
        <ele>368.8</ele>
        <time>2016-12-04T10:14:48Z</time>
      </trkpt>
      <trkpt lat="43.22608" lon="0.91095">
        <ele>369.76</ele>
        <time>2016-12-04T10:15:02Z</time>
      </trkpt>
      <trkpt lat="43.22606" lon="0.91097">
        <ele>370.24</ele>
        <time>2016-12-04T10:15:19Z</time>
      </trkpt>
      <trkpt lat="43.2262" lon="0.91098">
        <ele>371.21</ele>
        <time>2016-12-04T10:15:31Z</time>
      </trkpt>
      <trkpt lat="43.22629" lon="0.911">
        <ele>373.61</ele>
        <time>2016-12-04T10:15:42Z</time>
      </trkpt>
      <trkpt lat="43.22639" lon="0.91104">
        <ele>375.53</ele>
        <time>2016-12-04T10:15:54Z</time>
      </trkpt>
      <trkpt lat="43.22649" lon="0.91112">
        <ele>376.49</ele>
        <time>2016-12-04T10:16:05Z</time>
      </trkpt>
      <trkpt lat="43.22661" lon="0.91117">
        <ele>378.9</ele>
        <time>2016-12-04T10:16:18Z</time>
      </trkpt>
      <trkpt lat="43.22676" lon="0.91121">
        <ele>381.3</ele>
        <time>2016-12-04T10:16:31Z</time>
      </trkpt>
      <trkpt lat="43.22689" lon="0.91123">
        <ele>382.74</ele>
        <time>2016-12-04T10:16:42Z</time>
      </trkpt>
      <trkpt lat="43.22702" lon="0.91119">
        <ele>385.15</ele>
        <time>2016-12-04T10:16:54Z</time>
      </trkpt>
      <trkpt lat="43.22715" lon="0.91113">
        <ele>386.59</ele>
        <time>2016-12-04T10:17:05Z</time>
      </trkpt>
      <trkpt lat="43.22722" lon="0.91113">
        <ele>386.59</ele>
        <time>2016-12-04T10:17:15Z</time>
      </trkpt>
      <trkpt lat="43.22737" lon="0.91103">
        <ele>388.03</ele>
        <time>2016-12-04T10:17:27Z</time>
      </trkpt>
      <trkpt lat="43.22751" lon="0.91088">
        <ele>385.15</ele>
        <time>2016-12-04T10:17:40Z</time>
      </trkpt>
      <trkpt lat="43.22752" lon="0.91087">
        <ele>388.99</ele>
        <time>2016-12-04T10:17:41Z</time>
      </trkpt>
      <trkpt lat="43.22764" lon="0.91076">
        <ele>388.03</ele>
        <time>2016-12-04T10:17:53Z</time>
      </trkpt>
      <trkpt lat="43.22768" lon="0.91072">
        <ele>388.99</ele>
        <time>2016-12-04T10:17:57Z</time>
      </trkpt>
      <trkpt lat="43.22774" lon="0.91066">
        <ele>388.99</ele>
        <time>2016-12-04T10:18:09Z</time>
      </trkpt>
      <trkpt lat="43.22772" lon="0.91066">
        <ele>388.99</ele>
        <time>2016-12-04T10:18:27Z</time>
      </trkpt>
      <trkpt lat="43.22774" lon="0.91066">
        <ele>387.07</ele>
        <time>2016-12-04T10:18:40Z</time>
      </trkpt>
      <trkpt lat="43.22774" lon="0.91066">
        <ele>390.43</ele>
        <time>2016-12-04T10:18:41Z</time>
      </trkpt>
      <trkpt lat="43.22778" lon="0.9107">
        <ele>388.51</ele>
        <time>2016-12-04T10:18:51Z</time>
      </trkpt>
      <trkpt lat="43.22789" lon="0.91089">
        <ele>387.55</ele>
        <time>2016-12-04T10:19:07Z</time>
      </trkpt>
      <trkpt lat="43.22799" lon="0.911">
        <ele>385.63</ele>
        <time>2016-12-04T10:19:17Z</time>
      </trkpt>
      <trkpt lat="43.2281" lon="0.91114">
        <ele>385.15</ele>
        <time>2016-12-04T10:19:29Z</time>
      </trkpt>
      <trkpt lat="43.22819" lon="0.91128">
        <ele>383.7</ele>
        <time>2016-12-04T10:19:41Z</time>
      </trkpt>
      <trkpt lat="43.22836" lon="0.91154">
        <ele>382.26</ele>
        <time>2016-12-04T10:19:59Z</time>
      </trkpt>
      <trkpt lat="43.22846" lon="0.91167">
        <ele>381.78</ele>
        <time>2016-12-04T10:20:11Z</time>
      </trkpt>
      <trkpt lat="43.22861" lon="0.91185">
        <ele>381.3</ele>
        <time>2016-12-04T10:20:25Z</time>
      </trkpt>
      <trkpt lat="43.22874" lon="0.91205">
        <ele>379.38</ele>
        <time>2016-12-04T10:20:40Z</time>
      </trkpt>
      <trkpt lat="43.22886" lon="0.91226">
        <ele>379.38</ele>
        <time>2016-12-04T10:20:55Z</time>
      </trkpt>
      <trkpt lat="43.22894" lon="0.91243">
        <ele>378.42</ele>
        <time>2016-12-04T10:21:06Z</time>
      </trkpt>
      <trkpt lat="43.22895" lon="0.91244">
        <ele>374.57</ele>
        <time>2016-12-04T10:21:07Z</time>
      </trkpt>
      <trkpt lat="43.22896" lon="0.91246">
        <ele>381.3</ele>
        <time>2016-12-04T10:21:08Z</time>
      </trkpt>
      <trkpt lat="43.22906" lon="0.91268">
        <ele>378.42</ele>
        <time>2016-12-04T10:21:24Z</time>
      </trkpt>
      <trkpt lat="43.22912" lon="0.91286">
        <ele>378.9</ele>
        <time>2016-12-04T10:21:36Z</time>
      </trkpt>
      <trkpt lat="43.22913" lon="0.91293">
        <ele>378.9</ele>
        <time>2016-12-04T10:21:40Z</time>
      </trkpt>
      <trkpt lat="43.22915" lon="0.913">
        <ele>378.9</ele>
        <time>2016-12-04T10:21:45Z</time>
      </trkpt>
      <trkpt lat="43.2292" lon="0.91305">
        <ele>378.9</ele>
        <time>2016-12-04T10:21:52Z</time>
      </trkpt>
      <trkpt lat="43.22922" lon="0.91316">
        <ele>378.9</ele>
        <time>2016-12-04T10:22:05Z</time>
      </trkpt>
      <trkpt lat="43.22929" lon="0.91316">
        <ele>378.42</ele>
        <time>2016-12-04T10:22:15Z</time>
      </trkpt>
      <trkpt lat="43.22947" lon="0.91309">
        <ele>378.42</ele>
        <time>2016-12-04T10:22:28Z</time>
      </trkpt>
      <trkpt lat="43.22968" lon="0.91303">
        <ele>379.86</ele>
        <time>2016-12-04T10:22:43Z</time>
      </trkpt>
      <trkpt lat="43.22985" lon="0.91299">
        <ele>381.3</ele>
        <time>2016-12-04T10:22:57Z</time>
      </trkpt>
      <trkpt lat="43.23004" lon="0.91295">
        <ele>381.3</ele>
        <time>2016-12-04T10:23:10Z</time>
      </trkpt>
      <trkpt lat="43.23018" lon="0.91296">
        <ele>380.82</ele>
        <time>2016-12-04T10:23:21Z</time>
      </trkpt>
      <trkpt lat="43.23033" lon="0.91299">
        <ele>380.34</ele>
        <time>2016-12-04T10:23:34Z</time>
      </trkpt>
      <trkpt lat="43.23048" lon="0.91304">
        <ele>378.9</ele>
        <time>2016-12-04T10:23:46Z</time>
      </trkpt>
      <trkpt lat="43.23061" lon="0.9131">
        <ele>377.94</ele>
        <time>2016-12-04T10:23:57Z</time>
      </trkpt>
      <trkpt lat="43.23074" lon="0.91308">
        <ele>375.53</ele>
        <time>2016-12-04T10:24:08Z</time>
      </trkpt>
      <trkpt lat="43.23078" lon="0.91303">
        <ele>375.05</ele>
        <time>2016-12-04T10:24:11Z</time>
      </trkpt>
      <trkpt lat="43.23091" lon="0.91283">
        <ele>373.61</ele>
        <time>2016-12-04T10:24:24Z</time>
      </trkpt>
      <trkpt lat="43.23092" lon="0.91281">
        <ele>373.61</ele>
        <time>2016-12-04T10:24:25Z</time>
      </trkpt>
      <trkpt lat="43.23107" lon="0.91264">
        <ele>373.13</ele>
        <time>2016-12-04T10:24:38Z</time>
      </trkpt>
      <trkpt lat="43.23118" lon="0.91253">
        <ele>372.65</ele>
        <time>2016-12-04T10:24:49Z</time>
      </trkpt>
      <trkpt lat="43.23131" lon="0.9125">
        <ele>372.65</ele>
        <time>2016-12-04T10:25:02Z</time>
      </trkpt>
      <trkpt lat="43.23137" lon="0.91264">
        <ele>370.73</ele>
        <time>2016-12-04T10:25:16Z</time>
      </trkpt>
      <trkpt lat="43.23142" lon="0.91285">
        <ele>368.8</ele>
        <time>2016-12-04T10:25:31Z</time>
      </trkpt>
      <trkpt lat="43.23144" lon="0.91297">
        <ele>367.84</ele>
        <time>2016-12-04T10:25:44Z</time>
      </trkpt>
      <trkpt lat="43.23147" lon="0.91306">
        <ele>366.88</ele>
        <time>2016-12-04T10:25:56Z</time>
      </trkpt>
      <trkpt lat="43.23156" lon="0.91309">
        <ele>365.44</ele>
        <time>2016-12-04T10:26:09Z</time>
      </trkpt>
      <trkpt lat="43.23165" lon="0.91308">
        <ele>364.48</ele>
        <time>2016-12-04T10:26:21Z</time>
      </trkpt>
      <trkpt lat="43.23172" lon="0.91305">
        <ele>362.55</ele>
        <time>2016-12-04T10:26:30Z</time>
      </trkpt>
      <trkpt lat="43.23182" lon="0.91312">
        <ele>361.11</ele>
        <time>2016-12-04T10:26:41Z</time>
      </trkpt>
      <trkpt lat="43.23198" lon="0.91318">
        <ele>358.23</ele>
        <time>2016-12-04T10:26:54Z</time>
      </trkpt>
      <trkpt lat="43.23209" lon="0.91323">
        <ele>355.34</ele>
        <time>2016-12-04T10:27:04Z</time>
      </trkpt>
      <trkpt lat="43.23225" lon="0.91333">
        <ele>353.42</ele>
        <time>2016-12-04T10:27:19Z</time>
      </trkpt>
      <trkpt lat="43.23235" lon="0.9134">
        <ele>351.5</ele>
        <time>2016-12-04T10:27:28Z</time>
      </trkpt>
      <trkpt lat="43.23244" lon="0.91344">
        <ele>350.54</ele>
        <time>2016-12-04T10:27:39Z</time>
      </trkpt>
      <trkpt lat="43.23256" lon="0.91352">
        <ele>350.06</ele>
        <time>2016-12-04T10:27:50Z</time>
      </trkpt>
      <trkpt lat="43.23267" lon="0.91355">
        <ele>349.1</ele>
        <time>2016-12-04T10:27:58Z</time>
      </trkpt>
      <trkpt lat="43.23272" lon="0.91352">
        <ele>348.62</ele>
        <time>2016-12-04T10:28:03Z</time>
      </trkpt>
      <trkpt lat="43.23282" lon="0.91337">
        <ele>347.65</ele>
        <time>2016-12-04T10:28:17Z</time>
      </trkpt>
      <trkpt lat="43.23295" lon="0.91325">
        <ele>347.17</ele>
        <time>2016-12-04T10:28:29Z</time>
      </trkpt>
      <trkpt lat="43.23308" lon="0.91318">
        <ele>347.17</ele>
        <time>2016-12-04T10:28:41Z</time>
      </trkpt>
      <trkpt lat="43.23314" lon="0.91313">
        <ele>347.17</ele>
        <time>2016-12-04T10:28:46Z</time>
      </trkpt>
      <trkpt lat="43.23328" lon="0.91305">
        <ele>345.73</ele>
        <time>2016-12-04T10:28:57Z</time>
      </trkpt>
      <trkpt lat="43.2334" lon="0.91298">
        <ele>344.29</ele>
        <time>2016-12-04T10:29:09Z</time>
      </trkpt>
      <trkpt lat="43.23344" lon="0.91296">
        <ele>344.77</ele>
        <time>2016-12-04T10:29:12Z</time>
      </trkpt>
      <trkpt lat="43.23356" lon="0.91289">
        <ele>343.33</ele>
        <time>2016-12-04T10:29:24Z</time>
      </trkpt>
      <trkpt lat="43.23369" lon="0.91283">
        <ele>342.85</ele>
        <time>2016-12-04T10:29:36Z</time>
      </trkpt>
      <trkpt lat="43.2338" lon="0.91281">
        <ele>342.37</ele>
        <time>2016-12-04T10:29:47Z</time>
      </trkpt>
      <trkpt lat="43.23394" lon="0.91279">
        <ele>341.89</ele>
        <time>2016-12-04T10:29:59Z</time>
      </trkpt>
      <trkpt lat="43.23398" lon="0.91277">
        <ele>341.89</ele>
        <time>2016-12-04T10:30:03Z</time>
      </trkpt>
      <trkpt lat="43.23412" lon="0.91274">
        <ele>340.44</ele>
        <time>2016-12-04T10:30:14Z</time>
      </trkpt>
      <trkpt lat="43.23414" lon="0.91273">
        <ele>340.92</ele>
        <time>2016-12-04T10:30:18Z</time>
      </trkpt>
      <trkpt lat="43.23419" lon="0.91273">
        <ele>340.44</ele>
        <time>2016-12-04T10:30:22Z</time>
      </trkpt>
      <trkpt lat="43.23434" lon="0.91273">
        <ele>340.44</ele>
        <time>2016-12-04T10:30:34Z</time>
      </trkpt>
      <trkpt lat="43.23442" lon="0.91271">
        <ele>339.48</ele>
        <time>2016-12-04T10:30:45Z</time>
      </trkpt>
      <trkpt lat="43.23455" lon="0.91275">
        <ele>339</ele>
        <time>2016-12-04T10:30:59Z</time>
      </trkpt>
      <trkpt lat="43.23464" lon="0.9129">
        <ele>337.08</ele>
        <time>2016-12-04T10:31:13Z</time>
      </trkpt>
      <trkpt lat="43.2347" lon="0.91296">
        <ele>335.64</ele>
        <time>2016-12-04T10:31:26Z</time>
      </trkpt>
      <trkpt lat="43.23477" lon="0.91307">
        <ele>333.71</ele>
        <time>2016-12-04T10:31:40Z</time>
      </trkpt>
      <trkpt lat="43.23483" lon="0.91315">
        <ele>332.27</ele>
        <time>2016-12-04T10:31:48Z</time>
      </trkpt>
      <trkpt lat="43.23491" lon="0.91333">
        <ele>329.87</ele>
        <time>2016-12-04T10:32:04Z</time>
      </trkpt>
      <trkpt lat="43.23499" lon="0.9135">
        <ele>328.43</ele>
        <time>2016-12-04T10:32:19Z</time>
      </trkpt>
      <trkpt lat="43.23508" lon="0.9136">
        <ele>327.47</ele>
        <time>2016-12-04T10:32:30Z</time>
      </trkpt>
      <trkpt lat="43.23509" lon="0.91361">
        <ele>326.99</ele>
        <time>2016-12-04T10:32:32Z</time>
      </trkpt>
      <trkpt lat="43.23511" lon="0.91363">
        <ele>326.99</ele>
        <time>2016-12-04T10:32:34Z</time>
      </trkpt>
      <trkpt lat="43.23524" lon="0.91371">
        <ele>325.54</ele>
        <time>2016-12-04T10:32:46Z</time>
      </trkpt>
      <trkpt lat="43.2354" lon="0.91392">
        <ele>322.66</ele>
        <time>2016-12-04T10:33:03Z</time>
      </trkpt>
      <trkpt lat="43.23555" lon="0.91413">
        <ele>319.78</ele>
        <time>2016-12-04T10:33:16Z</time>
      </trkpt>
      <trkpt lat="43.23568" lon="0.91428">
        <ele>316.41</ele>
        <time>2016-12-04T10:33:30Z</time>
      </trkpt>
      <trkpt lat="43.23578" lon="0.91443">
        <ele>314.97</ele>
        <time>2016-12-04T10:33:43Z</time>
      </trkpt>
      <trkpt lat="43.23589" lon="0.91456">
        <ele>312.57</ele>
        <time>2016-12-04T10:33:55Z</time>
      </trkpt>
      <trkpt lat="43.23602" lon="0.91469">
        <ele>311.6</ele>
        <time>2016-12-04T10:34:07Z</time>
      </trkpt>
      <trkpt lat="43.23615" lon="0.91476">
        <ele>309.68</ele>
        <time>2016-12-04T10:34:20Z</time>
      </trkpt>
      <trkpt lat="43.23624" lon="0.91482">
        <ele>307.76</ele>
        <time>2016-12-04T10:34:31Z</time>
      </trkpt>
      <trkpt lat="43.23631" lon="0.91485">
        <ele>303.43</ele>
        <time>2016-12-04T10:34:40Z</time>
      </trkpt>
      <trkpt lat="43.23633" lon="0.91486">
        <ele>307.28</ele>
        <time>2016-12-04T10:34:42Z</time>
      </trkpt>
      <trkpt lat="43.23634" lon="0.91487">
        <ele>303.91</ele>
        <time>2016-12-04T10:34:43Z</time>
      </trkpt>
      <trkpt lat="43.23635" lon="0.91487">
        <ele>304.88</ele>
        <time>2016-12-04T10:34:44Z</time>
      </trkpt>
      <trkpt lat="43.23638" lon="0.9149">
        <ele>297.67</ele>
        <time>2016-12-04T10:34:47Z</time>
      </trkpt>
      <trkpt lat="43.23639" lon="0.91491">
        <ele>311.6</ele>
        <time>2016-12-04T10:34:48Z</time>
      </trkpt>
      <trkpt lat="43.2364" lon="0.91491">
        <ele>304.88</ele>
        <time>2016-12-04T10:34:49Z</time>
      </trkpt>
      <trkpt lat="43.23644" lon="0.91492">
        <ele>304.39</ele>
        <time>2016-12-04T10:34:53Z</time>
      </trkpt>
      <trkpt lat="43.23661" lon="0.91498">
        <ele>301.51</ele>
        <time>2016-12-04T10:35:09Z</time>
      </trkpt>
      <trkpt lat="43.23679" lon="0.91502">
        <ele>300.55</ele>
        <time>2016-12-04T10:35:23Z</time>
      </trkpt>
      <trkpt lat="43.23684" lon="0.915">
        <ele>300.55</ele>
        <time>2016-12-04T10:35:27Z</time>
      </trkpt>
      <trkpt lat="43.23688" lon="0.91496">
        <ele>301.03</ele>
        <time>2016-12-04T10:35:33Z</time>
      </trkpt>
      <trkpt lat="43.23689" lon="0.91479">
        <ele>300.55</ele>
        <time>2016-12-04T10:35:44Z</time>
      </trkpt>
      <trkpt lat="43.23703" lon="0.91469">
        <ele>299.59</ele>
        <time>2016-12-04T10:35:57Z</time>
      </trkpt>
      <trkpt lat="43.23714" lon="0.91458">
        <ele>298.15</ele>
        <time>2016-12-04T10:36:08Z</time>
      </trkpt>
      <trkpt lat="43.23728" lon="0.91444">
        <ele>296.7</ele>
        <time>2016-12-04T10:36:22Z</time>
      </trkpt>
      <trkpt lat="43.23739" lon="0.91433">
        <ele>295.74</ele>
        <time>2016-12-04T10:36:34Z</time>
      </trkpt>
      <trkpt lat="43.23752" lon="0.91424">
        <ele>294.3</ele>
        <time>2016-12-04T10:36:45Z</time>
      </trkpt>
      <trkpt lat="43.23759" lon="0.91419">
        <ele>293.82</ele>
        <time>2016-12-04T10:36:55Z</time>
      </trkpt>
      <trkpt lat="43.2376" lon="0.91419">
        <ele>293.82</ele>
        <time>2016-12-04T10:36:56Z</time>
      </trkpt>
      <trkpt lat="43.23772" lon="0.91431">
        <ele>291.9</ele>
        <time>2016-12-04T10:37:11Z</time>
      </trkpt>
      <trkpt lat="43.23777" lon="0.91433">
        <ele>291.9</ele>
        <time>2016-12-04T10:37:18Z</time>
      </trkpt>
      <trkpt lat="43.23787" lon="0.91454">
        <ele>290.46</ele>
        <time>2016-12-04T10:37:33Z</time>
      </trkpt>
      <trkpt lat="43.23791" lon="0.91474">
        <ele>289.97</ele>
        <time>2016-12-04T10:37:47Z</time>
      </trkpt>
      <trkpt lat="43.23793" lon="0.91492">
        <ele>289.97</ele>
        <time>2016-12-04T10:37:58Z</time>
      </trkpt>
      <trkpt lat="43.23794" lon="0.91494">
        <ele>289.49</ele>
        <time>2016-12-04T10:38:01Z</time>
      </trkpt>
      <trkpt lat="43.23797" lon="0.915">
        <ele>289.01</ele>
        <time>2016-12-04T10:38:05Z</time>
      </trkpt>
      <trkpt lat="43.23816" lon="0.91508">
        <ele>285.65</ele>
        <time>2016-12-04T10:38:18Z</time>
      </trkpt>
      <trkpt lat="43.23818" lon="0.91508">
        <ele>284.69</ele>
        <time>2016-12-04T10:38:20Z</time>
      </trkpt>
      <trkpt lat="43.23819" lon="0.91509">
        <ele>289.49</ele>
        <time>2016-12-04T10:38:21Z</time>
      </trkpt>
      <trkpt lat="43.2382" lon="0.91509">
        <ele>285.65</ele>
        <time>2016-12-04T10:38:22Z</time>
      </trkpt>
      <trkpt lat="43.23834" lon="0.91517">
        <ele>285.17</ele>
        <time>2016-12-04T10:38:34Z</time>
      </trkpt>
      <trkpt lat="43.2385" lon="0.91525">
        <ele>283.73</ele>
        <time>2016-12-04T10:38:47Z</time>
      </trkpt>
      <trkpt lat="43.23867" lon="0.91514">
        <ele>283.73</ele>
        <time>2016-12-04T10:39:02Z</time>
      </trkpt>
      <trkpt lat="43.2388" lon="0.91498">
        <ele>283.25</ele>
        <time>2016-12-04T10:39:17Z</time>
      </trkpt>
      <trkpt lat="43.23895" lon="0.91484">
        <ele>283.25</ele>
        <time>2016-12-04T10:39:32Z</time>
      </trkpt>
      <trkpt lat="43.23905" lon="0.9147">
        <ele>283.25</ele>
        <time>2016-12-04T10:39:44Z</time>
      </trkpt>
      <trkpt lat="43.23917" lon="0.91452">
        <ele>283.25</ele>
        <time>2016-12-04T10:39:59Z</time>
      </trkpt>
      <trkpt lat="43.23925" lon="0.91438">
        <ele>283.25</ele>
        <time>2016-12-04T10:40:10Z</time>
      </trkpt>
      <trkpt lat="43.23926" lon="0.91437">
        <ele>283.73</ele>
        <time>2016-12-04T10:40:11Z</time>
      </trkpt>
      <trkpt lat="43.2393" lon="0.91431">
        <ele>283.25</ele>
        <time>2016-12-04T10:40:15Z</time>
      </trkpt>
      <trkpt lat="43.23941" lon="0.91411">
        <ele>283.73</ele>
        <time>2016-12-04T10:40:30Z</time>
      </trkpt>
      <trkpt lat="43.23953" lon="0.91397">
        <ele>284.69</ele>
        <time>2016-12-04T10:40:44Z</time>
      </trkpt>
      <trkpt lat="43.23963" lon="0.91379">
        <ele>284.69</ele>
        <time>2016-12-04T10:40:57Z</time>
      </trkpt>
      <trkpt lat="43.23977" lon="0.91369">
        <ele>284.21</ele>
        <time>2016-12-04T10:41:10Z</time>
      </trkpt>
      <trkpt lat="43.23995" lon="0.91349">
        <ele>283.73</ele>
        <time>2016-12-04T10:41:27Z</time>
      </trkpt>
      <trkpt lat="43.23998" lon="0.91343">
        <ele>283.25</ele>
        <time>2016-12-04T10:41:31Z</time>
      </trkpt>
      <trkpt lat="43.24" lon="0.91336">
        <ele>283.73</ele>
        <time>2016-12-04T10:41:35Z</time>
      </trkpt>
      <trkpt lat="43.23996" lon="0.91307">
        <ele>283.73</ele>
        <time>2016-12-04T10:41:52Z</time>
      </trkpt>
      <trkpt lat="43.23989" lon="0.91289">
        <ele>280.84</ele>
        <time>2016-12-04T10:42:04Z</time>
      </trkpt>
      <trkpt lat="43.23988" lon="0.91288">
        <ele>288.05</ele>
        <time>2016-12-04T10:42:05Z</time>
      </trkpt>
      <trkpt lat="43.23988" lon="0.91286">
        <ele>283.25</ele>
        <time>2016-12-04T10:42:06Z</time>
      </trkpt>
      <trkpt lat="43.23982" lon="0.91264">
        <ele>285.17</ele>
        <time>2016-12-04T10:42:21Z</time>
      </trkpt>
      <trkpt lat="43.23974" lon="0.91245">
        <ele>285.65</ele>
        <time>2016-12-04T10:42:35Z</time>
      </trkpt>
      <trkpt lat="43.2397" lon="0.91228">
        <ele>287.57</ele>
        <time>2016-12-04T10:42:47Z</time>
      </trkpt>
      <trkpt lat="43.23962" lon="0.91215">
        <ele>288.53</ele>
        <time>2016-12-04T10:42:58Z</time>
      </trkpt>
      <trkpt lat="43.23959" lon="0.91213">
        <ele>285.17</ele>
        <time>2016-12-04T10:43:00Z</time>
      </trkpt>
      <trkpt lat="43.23959" lon="0.91212">
        <ele>289.01</ele>
        <time>2016-12-04T10:43:01Z</time>
      </trkpt>
      <trkpt lat="43.23956" lon="0.9121">
        <ele>289.97</ele>
        <time>2016-12-04T10:43:04Z</time>
      </trkpt>
      <trkpt lat="43.2394" lon="0.91199">
        <ele>290.94</ele>
        <time>2016-12-04T10:43:19Z</time>
      </trkpt>
      <trkpt lat="43.23926" lon="0.91189">
        <ele>292.86</ele>
        <time>2016-12-04T10:43:36Z</time>
      </trkpt>
      <trkpt lat="43.23917" lon="0.91183">
        <ele>294.78</ele>
        <time>2016-12-04T10:43:50Z</time>
      </trkpt>
      <trkpt lat="43.23914" lon="0.9118">
        <ele>295.26</ele>
        <time>2016-12-04T10:44:02Z</time>
      </trkpt>
      <trkpt lat="43.23911" lon="0.91181">
        <ele>295.26</ele>
        <time>2016-12-04T10:44:14Z</time>
      </trkpt>
      <trkpt lat="43.2391" lon="0.91175">
        <ele>295.26</ele>
        <time>2016-12-04T10:44:26Z</time>
      </trkpt>
      <trkpt lat="43.2391" lon="0.91179">
        <ele>295.26</ele>
        <time>2016-12-04T10:44:50Z</time>
      </trkpt>
      <trkpt lat="43.23898" lon="0.91175">
        <ele>295.26</ele>
        <time>2016-12-04T10:45:01Z</time>
      </trkpt>
      <trkpt lat="43.23884" lon="0.91171">
        <ele>297.67</ele>
        <time>2016-12-04T10:45:13Z</time>
      </trkpt>
      <trkpt lat="43.2387" lon="0.91171">
        <ele>298.63</ele>
        <time>2016-12-04T10:45:25Z</time>
      </trkpt>
      <trkpt lat="43.23856" lon="0.91174">
        <ele>299.59</ele>
        <time>2016-12-04T10:45:37Z</time>
      </trkpt>
      <trkpt lat="43.23848" lon="0.91177">
        <ele>300.55</ele>
        <time>2016-12-04T10:45:46Z</time>
      </trkpt>
      <trkpt lat="43.23839" lon="0.9118">
        <ele>301.99</ele>
        <time>2016-12-04T10:45:56Z</time>
      </trkpt>
      <trkpt lat="43.23833" lon="0.9118">
        <ele>301.99</ele>
        <time>2016-12-04T10:46:02Z</time>
      </trkpt>
      <trkpt lat="43.23821" lon="0.91171">
        <ele>302.47</ele>
        <time>2016-12-04T10:46:15Z</time>
      </trkpt>
      <trkpt lat="43.23808" lon="0.91163">
        <ele>303.43</ele>
        <time>2016-12-04T10:46:26Z</time>
      </trkpt>
      <trkpt lat="43.23807" lon="0.91162">
        <ele>303.43</ele>
        <time>2016-12-04T10:46:28Z</time>
      </trkpt>
      <trkpt lat="43.23796" lon="0.91153">
        <ele>302.95</ele>
        <time>2016-12-04T10:46:39Z</time>
      </trkpt>
      <trkpt lat="43.23786" lon="0.91145">
        <ele>302.47</ele>
        <time>2016-12-04T10:46:50Z</time>
      </trkpt>
      <trkpt lat="43.23773" lon="0.91139">
        <ele>301.99</ele>
        <time>2016-12-04T10:47:01Z</time>
      </trkpt>
      <trkpt lat="43.23761" lon="0.91131">
        <ele>301.03</ele>
        <time>2016-12-04T10:47:11Z</time>
      </trkpt>
      <trkpt lat="43.23759" lon="0.9113">
        <ele>301.03</ele>
        <time>2016-12-04T10:47:13Z</time>
      </trkpt>
      <trkpt lat="43.23745" lon="0.91123">
        <ele>300.07</ele>
        <time>2016-12-04T10:47:25Z</time>
      </trkpt>
      <trkpt lat="43.23728" lon="0.91111">
        <ele>300.07</ele>
        <time>2016-12-04T10:47:39Z</time>
      </trkpt>
      <trkpt lat="43.2372" lon="0.91104">
        <ele>299.11</ele>
        <time>2016-12-04T10:47:47Z</time>
      </trkpt>
      <trkpt lat="43.23711" lon="0.91086">
        <ele>299.59</ele>
        <time>2016-12-04T10:48:02Z</time>
      </trkpt>
      <trkpt lat="43.23702" lon="0.91065">
        <ele>300.07</ele>
        <time>2016-12-04T10:48:16Z</time>
      </trkpt>
      <trkpt lat="43.23695" lon="0.91044">
        <ele>300.55</ele>
        <time>2016-12-04T10:48:30Z</time>
      </trkpt>
      <trkpt lat="43.23689" lon="0.91023">
        <ele>301.03</ele>
        <time>2016-12-04T10:48:43Z</time>
      </trkpt>
      <trkpt lat="43.23685" lon="0.91003">
        <ele>301.99</ele>
        <time>2016-12-04T10:48:57Z</time>
      </trkpt>
      <trkpt lat="43.23678" lon="0.90979">
        <ele>302.47</ele>
        <time>2016-12-04T10:49:10Z</time>
      </trkpt>
      <trkpt lat="43.23672" lon="0.9096">
        <ele>305.84</ele>
        <time>2016-12-04T10:49:21Z</time>
      </trkpt>
      <trkpt lat="43.23672" lon="0.90958">
        <ele>300.07</ele>
        <time>2016-12-04T10:49:22Z</time>
      </trkpt>
      <trkpt lat="43.23671" lon="0.90956">
        <ele>303.43</ele>
        <time>2016-12-04T10:49:23Z</time>
      </trkpt>
      <trkpt lat="43.23667" lon="0.90946">
        <ele>301.51</ele>
        <time>2016-12-04T10:49:35Z</time>
      </trkpt>
      <trkpt lat="43.23662" lon="0.9093">
        <ele>300.55</ele>
        <time>2016-12-04T10:49:47Z</time>
      </trkpt>
      <trkpt lat="43.23655" lon="0.90906">
        <ele>299.11</ele>
        <time>2016-12-04T10:50:02Z</time>
      </trkpt>
      <trkpt lat="43.2365" lon="0.90898">
        <ele>299.11</ele>
        <time>2016-12-04T10:50:16Z</time>
      </trkpt>
      <trkpt lat="43.23647" lon="0.90884">
        <ele>298.63</ele>
        <time>2016-12-04T10:50:26Z</time>
      </trkpt>
      <trkpt lat="43.23636" lon="0.90862">
        <ele>297.67</ele>
        <time>2016-12-04T10:50:39Z</time>
      </trkpt>
      <trkpt lat="43.2362" lon="0.9085">
        <ele>297.67</ele>
        <time>2016-12-04T10:50:54Z</time>
      </trkpt>
      <trkpt lat="43.23612" lon="0.90839">
        <ele>298.15</ele>
        <time>2016-12-04T10:51:04Z</time>
      </trkpt>
      <trkpt lat="43.23612" lon="0.90825">
        <ele>300.55</ele>
        <time>2016-12-04T10:51:15Z</time>
      </trkpt>
      <trkpt lat="43.23614" lon="0.90812">
        <ele>302.47</ele>
        <time>2016-12-04T10:51:24Z</time>
      </trkpt>
      <trkpt lat="43.23614" lon="0.90809">
        <ele>306.8</ele>
        <time>2016-12-04T10:51:26Z</time>
      </trkpt>
      <trkpt lat="43.23613" lon="0.90807">
        <ele>303.43</ele>
        <time>2016-12-04T10:51:27Z</time>
      </trkpt>
      <trkpt lat="43.23614" lon="0.90798">
        <ele>304.39</ele>
        <time>2016-12-04T10:51:33Z</time>
      </trkpt>
      <trkpt lat="43.23619" lon="0.90781">
        <ele>306.32</ele>
        <time>2016-12-04T10:51:46Z</time>
      </trkpt>
      <trkpt lat="43.23623" lon="0.90757">
        <ele>307.28</ele>
        <time>2016-12-04T10:52:00Z</time>
      </trkpt>
      <trkpt lat="43.2362" lon="0.90749">
        <ele>307.76</ele>
        <time>2016-12-04T10:52:10Z</time>
      </trkpt>
      <trkpt lat="43.2362" lon="0.90747">
        <ele>307.76</ele>
        <time>2016-12-04T10:52:27Z</time>
      </trkpt>
      <trkpt lat="43.23621" lon="0.90742">
        <ele>308.24</ele>
        <time>2016-12-04T10:52:43Z</time>
      </trkpt>
      <trkpt lat="43.23623" lon="0.90733">
        <ele>308.72</ele>
        <time>2016-12-04T10:52:54Z</time>
      </trkpt>
      <trkpt lat="43.23626" lon="0.9072">
        <ele>309.2</ele>
        <time>2016-12-04T10:53:07Z</time>
      </trkpt>
      <trkpt lat="43.23628" lon="0.90707">
        <ele>309.2</ele>
        <time>2016-12-04T10:53:16Z</time>
      </trkpt>
      <trkpt lat="43.23621" lon="0.90686">
        <ele>307.76</ele>
        <time>2016-12-04T10:53:29Z</time>
      </trkpt>
      <trkpt lat="43.2362" lon="0.90669">
        <ele>302.47</ele>
        <time>2016-12-04T10:53:40Z</time>
      </trkpt>
      <trkpt lat="43.2362" lon="0.90668">
        <ele>311.12</ele>
        <time>2016-12-04T10:53:41Z</time>
      </trkpt>
      <trkpt lat="43.23621" lon="0.90667">
        <ele>305.84</ele>
        <time>2016-12-04T10:53:42Z</time>
      </trkpt>
      <trkpt lat="43.23623" lon="0.90664">
        <ele>307.76</ele>
        <time>2016-12-04T10:53:45Z</time>
      </trkpt>
      <trkpt lat="43.23631" lon="0.90665">
        <ele>307.76</ele>
        <time>2016-12-04T10:53:54Z</time>
      </trkpt>
      <trkpt lat="43.23644" lon="0.90666">
        <ele>309.2</ele>
        <time>2016-12-04T10:54:07Z</time>
      </trkpt>
      <trkpt lat="43.23653" lon="0.90661">
        <ele>310.16</ele>
        <time>2016-12-04T10:54:19Z</time>
      </trkpt>
      <trkpt lat="43.23665" lon="0.90652">
        <ele>310.64</ele>
        <time>2016-12-04T10:54:32Z</time>
      </trkpt>
      <trkpt lat="43.23676" lon="0.90645">
        <ele>312.09</ele>
        <time>2016-12-04T10:54:44Z</time>
      </trkpt>
      <trkpt lat="43.23688" lon="0.90637">
        <ele>314.97</ele>
        <time>2016-12-04T10:55:00Z</time>
      </trkpt>
      <trkpt lat="43.23696" lon="0.90627">
        <ele>316.41</ele>
        <time>2016-12-04T10:55:13Z</time>
      </trkpt>
      <trkpt lat="43.23704" lon="0.90614">
        <ele>318.33</ele>
        <time>2016-12-04T10:55:26Z</time>
      </trkpt>
      <trkpt lat="43.23711" lon="0.90603">
        <ele>319.78</ele>
        <time>2016-12-04T10:55:36Z</time>
      </trkpt>
      <trkpt lat="43.23718" lon="0.90592">
        <ele>320.26</ele>
        <time>2016-12-04T10:55:50Z</time>
      </trkpt>
      <trkpt lat="43.23725" lon="0.90577">
        <ele>321.7</ele>
        <time>2016-12-04T10:56:04Z</time>
      </trkpt>
      <trkpt lat="43.23734" lon="0.90561">
        <ele>323.62</ele>
        <time>2016-12-04T10:56:17Z</time>
      </trkpt>
      <trkpt lat="43.23741" lon="0.90546">
        <ele>325.54</ele>
        <time>2016-12-04T10:56:30Z</time>
      </trkpt>
      <trkpt lat="43.23748" lon="0.90542">
        <ele>326.5</ele>
        <time>2016-12-04T10:56:40Z</time>
      </trkpt>
      <trkpt lat="43.23759" lon="0.90539">
        <ele>327.95</ele>
        <time>2016-12-04T10:56:52Z</time>
      </trkpt>
      <trkpt lat="43.23768" lon="0.90536">
        <ele>329.39</ele>
        <time>2016-12-04T10:57:02Z</time>
      </trkpt>
      <trkpt lat="43.23771" lon="0.90533">
        <ele>329.87</ele>
        <time>2016-12-04T10:57:06Z</time>
      </trkpt>
      <trkpt lat="43.23786" lon="0.90526">
        <ele>332.27</ele>
        <time>2016-12-04T10:57:20Z</time>
      </trkpt>
      <trkpt lat="43.23794" lon="0.90517">
        <ele>334.68</ele>
        <time>2016-12-04T10:57:34Z</time>
      </trkpt>
      <trkpt lat="43.23804" lon="0.90507">
        <ele>336.6</ele>
        <time>2016-12-04T10:57:47Z</time>
      </trkpt>
      <trkpt lat="43.2381" lon="0.90492">
        <ele>338.04</ele>
        <time>2016-12-04T10:57:59Z</time>
      </trkpt>
      <trkpt lat="43.23812" lon="0.90487">
        <ele>339</ele>
        <time>2016-12-04T10:58:04Z</time>
      </trkpt>
      <trkpt lat="43.23819" lon="0.90471">
        <ele>339.96</ele>
        <time>2016-12-04T10:58:17Z</time>
      </trkpt>
      <trkpt lat="43.23823" lon="0.90458">
        <ele>340.44</ele>
        <time>2016-12-04T10:58:28Z</time>
      </trkpt>
      <trkpt lat="43.23828" lon="0.90447">
        <ele>341.41</ele>
        <time>2016-12-04T10:58:38Z</time>
      </trkpt>
      <trkpt lat="43.23835" lon="0.90433">
        <ele>342.37</ele>
        <time>2016-12-04T10:58:51Z</time>
      </trkpt>
      <trkpt lat="43.23843" lon="0.90414">
        <ele>343.33</ele>
        <time>2016-12-04T10:59:04Z</time>
      </trkpt>
      <trkpt lat="43.2385" lon="0.90401">
        <ele>343.81</ele>
        <time>2016-12-04T10:59:15Z</time>
      </trkpt>
      <trkpt lat="43.23859" lon="0.90385">
        <ele>344.77</ele>
        <time>2016-12-04T10:59:29Z</time>
      </trkpt>
      <trkpt lat="43.23864" lon="0.90372">
        <ele>345.73</ele>
        <time>2016-12-04T10:59:40Z</time>
      </trkpt>
      <trkpt lat="43.23875" lon="0.9036">
        <ele>347.65</ele>
        <time>2016-12-04T10:59:54Z</time>
      </trkpt>
      <trkpt lat="43.23883" lon="0.90347">
        <ele>348.62</ele>
        <time>2016-12-04T11:00:06Z</time>
      </trkpt>
      <trkpt lat="43.2389" lon="0.90326">
        <ele>349.58</ele>
        <time>2016-12-04T11:00:18Z</time>
      </trkpt>
      <trkpt lat="43.23893" lon="0.90312">
        <ele>350.06</ele>
        <time>2016-12-04T11:00:28Z</time>
      </trkpt>
      <trkpt lat="43.23899" lon="0.903">
        <ele>351.02</ele>
        <time>2016-12-04T11:00:39Z</time>
      </trkpt>
      <trkpt lat="43.23908" lon="0.90288">
        <ele>351.98</ele>
        <time>2016-12-04T11:00:51Z</time>
      </trkpt>
      <trkpt lat="43.23917" lon="0.90272">
        <ele>352.94</ele>
        <time>2016-12-04T11:01:05Z</time>
      </trkpt>
      <trkpt lat="43.23921" lon="0.90256">
        <ele>354.86</ele>
        <time>2016-12-04T11:01:17Z</time>
      </trkpt>
      <trkpt lat="43.23924" lon="0.90241">
        <ele>357.27</ele>
        <time>2016-12-04T11:01:31Z</time>
      </trkpt>
      <trkpt lat="43.23927" lon="0.90225">
        <ele>358.71</ele>
        <time>2016-12-04T11:01:45Z</time>
      </trkpt>
      <trkpt lat="43.23929" lon="0.9021">
        <ele>360.15</ele>
        <time>2016-12-04T11:01:57Z</time>
      </trkpt>
      <trkpt lat="43.23935" lon="0.90199">
        <ele>362.07</ele>
        <time>2016-12-04T11:02:10Z</time>
      </trkpt>
      <trkpt lat="43.23938" lon="0.90183">
        <ele>364</ele>
        <time>2016-12-04T11:02:21Z</time>
      </trkpt>
      <trkpt lat="43.23942" lon="0.90176">
        <ele>364.96</ele>
        <time>2016-12-04T11:02:27Z</time>
      </trkpt>
      <trkpt lat="43.23944" lon="0.90159">
        <ele>365.44</ele>
        <time>2016-12-04T11:02:40Z</time>
      </trkpt>
      <trkpt lat="43.23946" lon="0.90144">
        <ele>366.4</ele>
        <time>2016-12-04T11:02:51Z</time>
      </trkpt>
      <trkpt lat="43.23947" lon="0.90136">
        <ele>366.88</ele>
        <time>2016-12-04T11:03:03Z</time>
      </trkpt>
      <trkpt lat="43.23947" lon="0.90133">
        <ele>366.4</ele>
        <time>2016-12-04T11:03:19Z</time>
      </trkpt>
      <trkpt lat="43.23946" lon="0.9013">
        <ele>366.88</ele>
        <time>2016-12-04T11:03:30Z</time>
      </trkpt>
      <trkpt lat="43.23946" lon="0.90132">
        <ele>366.88</ele>
        <time>2016-12-04T11:03:46Z</time>
      </trkpt>
      <trkpt lat="43.23944" lon="0.90132">
        <ele>366.88</ele>
        <time>2016-12-04T11:04:03Z</time>
      </trkpt>
      <trkpt lat="43.23945" lon="0.90138">
        <ele>366.88</ele>
        <time>2016-12-04T11:04:29Z</time>
      </trkpt>
      <trkpt lat="43.23943" lon="0.90137">
        <ele>367.36</ele>
        <time>2016-12-04T11:04:52Z</time>
      </trkpt>
      <trkpt lat="43.23945" lon="0.90139">
        <ele>367.84</ele>
        <time>2016-12-04T11:05:15Z</time>
      </trkpt>
      <trkpt lat="43.23941" lon="0.90134">
        <ele>367.84</ele>
        <time>2016-12-04T11:05:42Z</time>
      </trkpt>
      <trkpt lat="43.23946" lon="0.90127">
        <ele>370.24</ele>
        <time>2016-12-04T11:05:52Z</time>
      </trkpt>
      <trkpt lat="43.23946" lon="0.90127">
        <ele>366.4</ele>
        <time>2016-12-04T11:05:53Z</time>
      </trkpt>
      <trkpt lat="43.23946" lon="0.90128">
        <ele>370.24</ele>
        <time>2016-12-04T11:05:56Z</time>
      </trkpt>
      <trkpt lat="43.23946" lon="0.90128">
        <ele>367.84</ele>
        <time>2016-12-04T11:05:57Z</time>
      </trkpt>
      <trkpt lat="43.23943" lon="0.9012">
        <ele>368.32</ele>
        <time>2016-12-04T11:06:09Z</time>
      </trkpt>
      <trkpt lat="43.23938" lon="0.90115">
        <ele>368.8</ele>
        <time>2016-12-04T11:06:21Z</time>
      </trkpt>
      <trkpt lat="43.23927" lon="0.90101">
        <ele>370.24</ele>
        <time>2016-12-04T11:06:36Z</time>
      </trkpt>
      <trkpt lat="43.23923" lon="0.90091">
        <ele>370.73</ele>
        <time>2016-12-04T11:06:42Z</time>
      </trkpt>
      <trkpt lat="43.23916" lon="0.90076">
        <ele>371.21</ele>
        <time>2016-12-04T11:06:54Z</time>
      </trkpt>
      <trkpt lat="43.23908" lon="0.90063">
        <ele>372.65</ele>
        <time>2016-12-04T11:07:06Z</time>
      </trkpt>
      <trkpt lat="43.239" lon="0.90055">
        <ele>373.61</ele>
        <time>2016-12-04T11:07:18Z</time>
      </trkpt>
      <trkpt lat="43.23896" lon="0.90055">
        <ele>374.57</ele>
        <time>2016-12-04T11:07:27Z</time>
      </trkpt>
      <trkpt lat="43.23891" lon="0.90029">
        <ele>376.01</ele>
        <time>2016-12-04T11:07:40Z</time>
      </trkpt>
      <trkpt lat="43.23882" lon="0.90013">
        <ele>377.94</ele>
        <time>2016-12-04T11:07:53Z</time>
      </trkpt>
      <trkpt lat="43.23869" lon="0.89997">
        <ele>377.94</ele>
        <time>2016-12-04T11:08:08Z</time>
      </trkpt>
      <trkpt lat="43.23868" lon="0.89996">
        <ele>381.3</ele>
        <time>2016-12-04T11:08:09Z</time>
      </trkpt>
      <trkpt lat="43.23861" lon="0.89987">
        <ele>381.78</ele>
        <time>2016-12-04T11:08:21Z</time>
      </trkpt>
      <trkpt lat="43.2386" lon="0.89971">
        <ele>383.7</ele>
        <time>2016-12-04T11:08:35Z</time>
      </trkpt>
      <trkpt lat="43.23865" lon="0.89954">
        <ele>385.15</ele>
        <time>2016-12-04T11:08:49Z</time>
      </trkpt>
      <trkpt lat="43.23869" lon="0.89939">
        <ele>386.11</ele>
        <time>2016-12-04T11:09:01Z</time>
      </trkpt>
      <trkpt lat="43.23876" lon="0.89924">
        <ele>386.59</ele>
        <time>2016-12-04T11:09:14Z</time>
      </trkpt>
      <trkpt lat="43.23881" lon="0.89918">
        <ele>386.11</ele>
        <time>2016-12-04T11:09:35Z</time>
      </trkpt>
      <trkpt lat="43.23889" lon="0.89907">
        <ele>385.15</ele>
        <time>2016-12-04T11:09:46Z</time>
      </trkpt>
      <trkpt lat="43.23895" lon="0.89895">
        <ele>385.15</ele>
        <time>2016-12-04T11:09:57Z</time>
      </trkpt>
      <trkpt lat="43.23901" lon="0.89882">
        <ele>385.15</ele>
        <time>2016-12-04T11:10:06Z</time>
      </trkpt>
      <trkpt lat="43.23904" lon="0.89864">
        <ele>385.63</ele>
        <time>2016-12-04T11:10:19Z</time>
      </trkpt>
      <trkpt lat="43.23904" lon="0.89853">
        <ele>386.11</ele>
        <time>2016-12-04T11:10:29Z</time>
      </trkpt>
      <trkpt lat="43.23897" lon="0.89837">
        <ele>388.51</ele>
        <time>2016-12-04T11:10:42Z</time>
      </trkpt>
      <trkpt lat="43.23891" lon="0.89827">
        <ele>389.47</ele>
        <time>2016-12-04T11:10:51Z</time>
      </trkpt>
      <trkpt lat="43.23884" lon="0.89816">
        <ele>391.87</ele>
        <time>2016-12-04T11:11:03Z</time>
      </trkpt>
      <trkpt lat="43.23877" lon="0.89805">
        <ele>393.32</ele>
        <time>2016-12-04T11:11:14Z</time>
      </trkpt>
      <trkpt lat="43.23872" lon="0.8979">
        <ele>395.24</ele>
        <time>2016-12-04T11:11:27Z</time>
      </trkpt>
      <trkpt lat="43.23868" lon="0.89786">
        <ele>396.2</ele>
        <time>2016-12-04T11:11:31Z</time>
      </trkpt>
      <trkpt lat="43.23859" lon="0.89774">
        <ele>398.6</ele>
        <time>2016-12-04T11:11:43Z</time>
      </trkpt>
      <trkpt lat="43.2385" lon="0.89762">
        <ele>400.05</ele>
        <time>2016-12-04T11:11:54Z</time>
      </trkpt>
      <trkpt lat="43.23841" lon="0.89755">
        <ele>397.64</ele>
        <time>2016-12-04T11:12:06Z</time>
      </trkpt>
      <trkpt lat="43.23841" lon="0.89755">
        <ele>402.45</ele>
        <time>2016-12-04T11:12:07Z</time>
      </trkpt>
      <trkpt lat="43.23841" lon="0.89755">
        <ele>399.08</ele>
        <time>2016-12-04T11:12:13Z</time>
      </trkpt>
      <trkpt lat="43.2384" lon="0.89755">
        <ele>402.93</ele>
        <time>2016-12-04T11:12:14Z</time>
      </trkpt>
      <trkpt lat="43.23839" lon="0.89755">
        <ele>401.01</ele>
        <time>2016-12-04T11:12:22Z</time>
      </trkpt>
      <trkpt lat="43.23833" lon="0.8975">
        <ele>404.37</ele>
        <time>2016-12-04T11:12:32Z</time>
      </trkpt>
      <trkpt lat="43.23833" lon="0.89749">
        <ele>401.49</ele>
        <time>2016-12-04T11:12:33Z</time>
      </trkpt>
      <trkpt lat="43.2383" lon="0.89744">
        <ele>401.97</ele>
        <time>2016-12-04T11:12:44Z</time>
      </trkpt>
      <trkpt lat="43.23825" lon="0.89736">
        <ele>405.33</ele>
        <time>2016-12-04T11:12:58Z</time>
      </trkpt>
      <trkpt lat="43.23825" lon="0.89734">
        <ele>401.01</ele>
        <time>2016-12-04T11:12:59Z</time>
      </trkpt>
      <trkpt lat="43.23818" lon="0.89723">
        <ele>402.45</ele>
        <time>2016-12-04T11:13:13Z</time>
      </trkpt>
      <trkpt lat="43.23815" lon="0.89724">
        <ele>402.93</ele>
        <time>2016-12-04T11:13:18Z</time>
      </trkpt>
      <trkpt lat="43.23811" lon="0.89726">
        <ele>402.93</ele>
        <time>2016-12-04T11:13:29Z</time>
      </trkpt>
      <trkpt lat="43.23811" lon="0.89727">
        <ele>402.93</ele>
        <time>2016-12-04T11:13:41Z</time>
      </trkpt>
      <trkpt lat="43.23809" lon="0.89727">
        <ele>401.97</ele>
        <time>2016-12-04T11:13:49Z</time>
      </trkpt>
      <trkpt lat="43.2381" lon="0.89727">
        <ele>400.53</ele>
        <time>2016-12-04T11:14:08Z</time>
      </trkpt>
      <trkpt lat="43.23811" lon="0.89725">
        <ele>401.49</ele>
        <time>2016-12-04T11:14:32Z</time>
      </trkpt>
      <trkpt lat="43.23809" lon="0.89725">
        <ele>401.01</ele>
        <time>2016-12-04T11:14:57Z</time>
      </trkpt>
      <trkpt lat="43.23809" lon="0.89723">
        <ele>401.97</ele>
        <time>2016-12-04T11:15:19Z</time>
      </trkpt>
      <trkpt lat="43.23811" lon="0.89722">
        <ele>401.97</ele>
        <time>2016-12-04T11:15:54Z</time>
      </trkpt>
      <trkpt lat="43.2381" lon="0.8972">
        <ele>401.97</ele>
        <time>2016-12-04T11:16:25Z</time>
      </trkpt>
      <trkpt lat="43.23809" lon="0.89725">
        <ele>401.49</ele>
        <time>2016-12-04T11:16:56Z</time>
      </trkpt>
      <trkpt lat="43.23808" lon="0.89724">
        <ele>401.49</ele>
        <time>2016-12-04T11:17:26Z</time>
      </trkpt>
      <trkpt lat="43.23807" lon="0.89725">
        <ele>401.97</ele>
        <time>2016-12-04T11:17:53Z</time>
      </trkpt>
      <trkpt lat="43.23809" lon="0.89726">
        <ele>401.49</ele>
        <time>2016-12-04T11:18:14Z</time>
      </trkpt>
      <trkpt lat="43.23809" lon="0.89726">
        <ele>401.01</ele>
        <time>2016-12-04T11:18:38Z</time>
      </trkpt>
      <trkpt lat="43.23809" lon="0.89727">
        <ele>401.49</ele>
        <time>2016-12-04T11:19:06Z</time>
      </trkpt>
      <trkpt lat="43.2381" lon="0.89728">
        <ele>401.49</ele>
        <time>2016-12-04T11:19:30Z</time>
      </trkpt>
      <trkpt lat="43.23809" lon="0.89727">
        <ele>401.01</ele>
        <time>2016-12-04T11:19:54Z</time>
      </trkpt>
      <trkpt lat="43.23808" lon="0.89727">
        <ele>401.01</ele>
        <time>2016-12-04T11:20:08Z</time>
      </trkpt>
      <trkpt lat="43.23808" lon="0.89725">
        <ele>400.53</ele>
        <time>2016-12-04T11:20:35Z</time>
      </trkpt>
      <trkpt lat="43.23809" lon="0.89726">
        <ele>401.01</ele>
        <time>2016-12-04T11:21:03Z</time>
      </trkpt>
      <trkpt lat="43.2381" lon="0.89724">
        <ele>401.01</ele>
        <time>2016-12-04T11:21:28Z</time>
      </trkpt>
      <trkpt lat="43.23809" lon="0.89725">
        <ele>401.01</ele>
        <time>2016-12-04T11:21:57Z</time>
      </trkpt>
      <trkpt lat="43.23813" lon="0.89724">
        <ele>401.01</ele>
        <time>2016-12-04T11:22:33Z</time>
      </trkpt>
      <trkpt lat="43.23812" lon="0.89724">
        <ele>401.49</ele>
        <time>2016-12-04T11:22:57Z</time>
      </trkpt>
      <trkpt lat="43.2381" lon="0.89724">
        <ele>401.49</ele>
        <time>2016-12-04T11:23:25Z</time>
      </trkpt>
      <trkpt lat="43.2381" lon="0.89723">
        <ele>401.49</ele>
        <time>2016-12-04T11:23:50Z</time>
      </trkpt>
      <trkpt lat="43.23808" lon="0.89726">
        <ele>401.49</ele>
        <time>2016-12-04T11:24:17Z</time>
      </trkpt>
      <trkpt lat="43.2381" lon="0.89724">
        <ele>401.97</ele>
        <time>2016-12-04T11:24:43Z</time>
      </trkpt>
      <trkpt lat="43.23811" lon="0.89724">
        <ele>401.49</ele>
        <time>2016-12-04T11:25:15Z</time>
      </trkpt>
      <trkpt lat="43.23808" lon="0.89722">
        <ele>401.49</ele>
        <time>2016-12-04T11:25:46Z</time>
      </trkpt>
      <trkpt lat="43.23806" lon="0.89724">
        <ele>401.49</ele>
        <time>2016-12-04T11:26:14Z</time>
      </trkpt>
      <trkpt lat="43.23808" lon="0.89725">
        <ele>401.97</ele>
        <time>2016-12-04T11:26:41Z</time>
      </trkpt>
      <trkpt lat="43.23811" lon="0.89725">
        <ele>401.97</ele>
        <time>2016-12-04T11:27:13Z</time>
      </trkpt>
      <trkpt lat="43.23809" lon="0.89724">
        <ele>401.97</ele>
        <time>2016-12-04T11:27:39Z</time>
      </trkpt>
      <trkpt lat="43.23808" lon="0.89724">
        <ele>402.45</ele>
        <time>2016-12-04T11:28:06Z</time>
      </trkpt>
      <trkpt lat="43.23811" lon="0.89723">
        <ele>402.45</ele>
        <time>2016-12-04T11:28:32Z</time>
      </trkpt>
      <trkpt lat="43.23809" lon="0.89723">
        <ele>401.97</ele>
        <time>2016-12-04T11:29:05Z</time>
      </trkpt>
      <trkpt lat="43.23811" lon="0.89722">
        <ele>401.97</ele>
        <time>2016-12-04T11:29:36Z</time>
      </trkpt>
      <trkpt lat="43.23811" lon="0.8972">
        <ele>402.45</ele>
        <time>2016-12-04T11:30:00Z</time>
      </trkpt>
      <trkpt lat="43.23807" lon="0.89723">
        <ele>403.41</ele>
        <time>2016-12-04T11:30:32Z</time>
      </trkpt>
      <trkpt lat="43.23809" lon="0.89725">
        <ele>402.45</ele>
        <time>2016-12-04T11:31:10Z</time>
      </trkpt>
      <trkpt lat="43.23808" lon="0.89725">
        <ele>402.93</ele>
        <time>2016-12-04T11:31:41Z</time>
      </trkpt>
      <trkpt lat="43.23807" lon="0.89725">
        <ele>402.93</ele>
        <time>2016-12-04T11:32:09Z</time>
      </trkpt>
      <trkpt lat="43.23808" lon="0.8972">
        <ele>402.93</ele>
        <time>2016-12-04T11:32:40Z</time>
      </trkpt>
      <trkpt lat="43.23811" lon="0.89723">
        <ele>402.93</ele>
        <time>2016-12-04T11:33:12Z</time>
      </trkpt>
      <trkpt lat="43.23808" lon="0.89724">
        <ele>402.93</ele>
        <time>2016-12-04T11:33:44Z</time>
      </trkpt>
      <trkpt lat="43.23814" lon="0.89723">
        <ele>402.93</ele>
        <time>2016-12-04T11:34:17Z</time>
      </trkpt>
      <trkpt lat="43.23813" lon="0.89723">
        <ele>402.93</ele>
        <time>2016-12-04T11:34:45Z</time>
      </trkpt>
      <trkpt lat="43.23811" lon="0.89723">
        <ele>403.41</ele>
        <time>2016-12-04T11:35:12Z</time>
      </trkpt>
      <trkpt lat="43.23814" lon="0.89722">
        <ele>402.93</ele>
        <time>2016-12-04T11:35:38Z</time>
      </trkpt>
      <trkpt lat="43.23814" lon="0.8972">
        <ele>402.93</ele>
        <time>2016-12-04T11:36:08Z</time>
      </trkpt>
      <trkpt lat="43.23813" lon="0.89724">
        <ele>403.41</ele>
        <time>2016-12-04T11:36:38Z</time>
      </trkpt>
      <trkpt lat="43.2381" lon="0.89724">
        <ele>403.89</ele>
        <time>2016-12-04T11:37:05Z</time>
      </trkpt>
      <trkpt lat="43.23812" lon="0.89725">
        <ele>403.41</ele>
        <time>2016-12-04T11:37:33Z</time>
      </trkpt>
      <trkpt lat="43.23814" lon="0.89725">
        <ele>404.37</ele>
        <time>2016-12-04T11:37:57Z</time>
      </trkpt>
      <trkpt lat="43.23811" lon="0.89724">
        <ele>403.89</ele>
        <time>2016-12-04T11:38:25Z</time>
      </trkpt>
      <trkpt lat="43.2381" lon="0.89725">
        <ele>404.37</ele>
        <time>2016-12-04T11:38:51Z</time>
      </trkpt>
      <trkpt lat="43.23811" lon="0.89725">
        <ele>403.89</ele>
        <time>2016-12-04T11:39:16Z</time>
      </trkpt>
      <trkpt lat="43.23812" lon="0.89724">
        <ele>403.41</ele>
        <time>2016-12-04T11:39:46Z</time>
      </trkpt>
      <trkpt lat="43.23812" lon="0.89725">
        <ele>403.41</ele>
        <time>2016-12-04T11:40:09Z</time>
      </trkpt>
      <trkpt lat="43.23812" lon="0.89727">
        <ele>403.89</ele>
        <time>2016-12-04T11:40:34Z</time>
      </trkpt>
      <trkpt lat="43.23808" lon="0.89724">
        <ele>403.89</ele>
        <time>2016-12-04T11:41:03Z</time>
      </trkpt>
      <trkpt lat="43.23812" lon="0.89724">
        <ele>403.89</ele>
        <time>2016-12-04T11:41:34Z</time>
      </trkpt>
      <trkpt lat="43.2381" lon="0.89724">
        <ele>404.37</ele>
        <time>2016-12-04T11:42:01Z</time>
      </trkpt>
      <trkpt lat="43.23809" lon="0.89721">
        <ele>404.85</ele>
        <time>2016-12-04T11:42:22Z</time>
      </trkpt>
      <trkpt lat="43.23811" lon="0.89723">
        <ele>404.37</ele>
        <time>2016-12-04T11:42:47Z</time>
      </trkpt>
      <trkpt lat="43.23812" lon="0.89725">
        <ele>404.37</ele>
        <time>2016-12-04T11:43:11Z</time>
      </trkpt>
      <trkpt lat="43.23811" lon="0.89724">
        <ele>404.37</ele>
        <time>2016-12-04T11:43:34Z</time>
      </trkpt>
      <trkpt lat="43.23811" lon="0.89725">
        <ele>404.85</ele>
        <time>2016-12-04T11:43:58Z</time>
      </trkpt>
      <trkpt lat="43.23813" lon="0.89723">
        <ele>404.85</ele>
        <time>2016-12-04T11:44:29Z</time>
      </trkpt>
      <trkpt lat="43.23813" lon="0.89724">
        <ele>404.85</ele>
        <time>2016-12-04T11:44:50Z</time>
      </trkpt>
      <trkpt lat="43.23811" lon="0.89723">
        <ele>404.85</ele>
        <time>2016-12-04T11:45:18Z</time>
      </trkpt>
      <trkpt lat="43.23812" lon="0.89723">
        <ele>404.85</ele>
        <time>2016-12-04T11:45:42Z</time>
      </trkpt>
      <trkpt lat="43.23812" lon="0.89722">
        <ele>404.85</ele>
        <time>2016-12-04T11:46:05Z</time>
      </trkpt>
      <trkpt lat="43.23812" lon="0.89724">
        <ele>405.33</ele>
        <time>2016-12-04T11:46:32Z</time>
      </trkpt>
      <trkpt lat="43.23812" lon="0.89723">
        <ele>404.85</ele>
        <time>2016-12-04T11:46:56Z</time>
      </trkpt>
      <trkpt lat="43.23814" lon="0.89723">
        <ele>405.33</ele>
        <time>2016-12-04T11:47:24Z</time>
      </trkpt>
      <trkpt lat="43.23815" lon="0.89722">
        <ele>404.85</ele>
        <time>2016-12-04T11:47:51Z</time>
      </trkpt>
      <trkpt lat="43.23814" lon="0.89724">
        <ele>404.85</ele>
        <time>2016-12-04T11:48:15Z</time>
      </trkpt>
      <trkpt lat="43.23813" lon="0.89722">
        <ele>405.33</ele>
        <time>2016-12-04T11:48:43Z</time>
      </trkpt>
      <trkpt lat="43.23814" lon="0.89722">
        <ele>405.33</ele>
        <time>2016-12-04T11:49:05Z</time>
      </trkpt>
      <trkpt lat="43.23812" lon="0.89721">
        <ele>405.81</ele>
        <time>2016-12-04T11:49:27Z</time>
      </trkpt>
      <trkpt lat="43.23812" lon="0.89722">
        <ele>405.81</ele>
        <time>2016-12-04T11:49:54Z</time>
      </trkpt>
      <trkpt lat="43.23813" lon="0.89721">
        <ele>405.81</ele>
        <time>2016-12-04T11:50:23Z</time>
      </trkpt>
      <trkpt lat="43.23813" lon="0.89721">
        <ele>405.33</ele>
        <time>2016-12-04T11:50:45Z</time>
      </trkpt>
      <trkpt lat="43.23812" lon="0.89721">
        <ele>405.33</ele>
        <time>2016-12-04T11:51:07Z</time>
      </trkpt>
      <trkpt lat="43.23814" lon="0.89723">
        <ele>405.81</ele>
        <time>2016-12-04T11:51:39Z</time>
      </trkpt>
      <trkpt lat="43.23813" lon="0.8972">
        <ele>405.81</ele>
        <time>2016-12-04T11:52:07Z</time>
      </trkpt>
      <trkpt lat="43.23811" lon="0.89723">
        <ele>405.33</ele>
        <time>2016-12-04T11:52:35Z</time>
      </trkpt>
      <trkpt lat="43.2381" lon="0.89723">
        <ele>405.33</ele>
        <time>2016-12-04T11:53:01Z</time>
      </trkpt>
      <trkpt lat="43.23814" lon="0.89722">
        <ele>406.29</ele>
        <time>2016-12-04T11:53:26Z</time>
      </trkpt>
      <trkpt lat="43.23812" lon="0.89723">
        <ele>405.81</ele>
        <time>2016-12-04T11:53:52Z</time>
      </trkpt>
      <trkpt lat="43.23812" lon="0.89724">
        <ele>405.81</ele>
        <time>2016-12-04T11:54:16Z</time>
      </trkpt>
      <trkpt lat="43.23813" lon="0.89723">
        <ele>405.81</ele>
        <time>2016-12-04T11:54:40Z</time>
      </trkpt>
      <trkpt lat="43.23813" lon="0.89721">
        <ele>405.81</ele>
        <time>2016-12-04T11:55:06Z</time>
      </trkpt>
      <trkpt lat="43.23811" lon="0.89721">
        <ele>406.29</ele>
        <time>2016-12-04T11:55:28Z</time>
      </trkpt>
      <trkpt lat="43.23809" lon="0.89722">
        <ele>406.29</ele>
        <time>2016-12-04T11:55:49Z</time>
      </trkpt>
      <trkpt lat="43.23807" lon="0.89723">
        <ele>405.81</ele>
        <time>2016-12-04T11:56:07Z</time>
      </trkpt>
      <trkpt lat="43.23809" lon="0.8972">
        <ele>406.29</ele>
        <time>2016-12-04T11:56:32Z</time>
      </trkpt>
      <trkpt lat="43.23808" lon="0.89721">
        <ele>406.29</ele>
        <time>2016-12-04T11:56:52Z</time>
      </trkpt>
      <trkpt lat="43.2381" lon="0.89723">
        <ele>406.29</ele>
        <time>2016-12-04T11:57:14Z</time>
      </trkpt>
      <trkpt lat="43.2381" lon="0.89724">
        <ele>405.81</ele>
        <time>2016-12-04T11:57:45Z</time>
      </trkpt>
      <trkpt lat="43.2381" lon="0.89722">
        <ele>406.29</ele>
        <time>2016-12-04T11:58:11Z</time>
      </trkpt>
      <trkpt lat="43.2381" lon="0.89723">
        <ele>406.77</ele>
        <time>2016-12-04T11:58:34Z</time>
      </trkpt>
      <trkpt lat="43.23811" lon="0.89725">
        <ele>406.77</ele>
        <time>2016-12-04T11:58:59Z</time>
      </trkpt>
      <trkpt lat="43.2381" lon="0.89724">
        <ele>405.81</ele>
        <time>2016-12-04T11:59:28Z</time>
      </trkpt>
      <trkpt lat="43.23808" lon="0.89725">
        <ele>406.77</ele>
        <time>2016-12-04T11:59:52Z</time>
      </trkpt>
      <trkpt lat="43.23808" lon="0.89723">
        <ele>406.77</ele>
        <time>2016-12-04T12:00:17Z</time>
      </trkpt>
      <trkpt lat="43.23808" lon="0.89724">
        <ele>407.26</ele>
        <time>2016-12-04T12:00:45Z</time>
      </trkpt>
      <trkpt lat="43.23808" lon="0.89723">
        <ele>406.77</ele>
        <time>2016-12-04T12:01:04Z</time>
      </trkpt>
      <trkpt lat="43.23811" lon="0.89722">
        <ele>406.77</ele>
        <time>2016-12-04T12:01:26Z</time>
      </trkpt>
      <trkpt lat="43.23812" lon="0.89722">
        <ele>406.29</ele>
        <time>2016-12-04T12:01:44Z</time>
      </trkpt>
      <trkpt lat="43.23812" lon="0.89721">
        <ele>406.77</ele>
        <time>2016-12-04T12:02:02Z</time>
      </trkpt>
      <trkpt lat="43.23815" lon="0.89721">
        <ele>406.77</ele>
        <time>2016-12-04T12:02:25Z</time>
      </trkpt>
      <trkpt lat="43.23813" lon="0.89722">
        <ele>406.77</ele>
        <time>2016-12-04T12:02:48Z</time>
      </trkpt>
      <trkpt lat="43.23813" lon="0.89722">
        <ele>406.77</ele>
        <time>2016-12-04T12:03:13Z</time>
      </trkpt>
      <trkpt lat="43.23813" lon="0.89722">
        <ele>406.77</ele>
        <time>2016-12-04T12:03:38Z</time>
      </trkpt>
      <trkpt lat="43.23811" lon="0.8972">
        <ele>406.77</ele>
        <time>2016-12-04T12:04:03Z</time>
      </trkpt>
      <trkpt lat="43.23814" lon="0.89717">
        <ele>406.77</ele>
        <time>2016-12-04T12:04:28Z</time>
      </trkpt>
      <trkpt lat="43.23814" lon="0.89716">
        <ele>407.26</ele>
        <time>2016-12-04T12:04:49Z</time>
      </trkpt>
      <trkpt lat="43.23813" lon="0.8972">
        <ele>406.77</ele>
        <time>2016-12-04T12:05:14Z</time>
      </trkpt>
      <trkpt lat="43.23812" lon="0.89721">
        <ele>406.77</ele>
        <time>2016-12-04T12:05:37Z</time>
      </trkpt>
      <trkpt lat="43.23812" lon="0.8972">
        <ele>406.77</ele>
        <time>2016-12-04T12:06:01Z</time>
      </trkpt>
      <trkpt lat="43.23812" lon="0.89718">
        <ele>406.77</ele>
        <time>2016-12-04T12:06:24Z</time>
      </trkpt>
      <trkpt lat="43.23812" lon="0.89719">
        <ele>406.77</ele>
        <time>2016-12-04T12:06:46Z</time>
      </trkpt>
      <trkpt lat="43.23812" lon="0.89718">
        <ele>406.77</ele>
        <time>2016-12-04T12:07:12Z</time>
      </trkpt>
      <trkpt lat="43.23807" lon="0.89727">
        <ele>406.77</ele>
        <time>2016-12-04T12:07:21Z</time>
      </trkpt>
      <trkpt lat="43.23809" lon="0.89724">
        <ele>407.26</ele>
        <time>2016-12-04T12:07:45Z</time>
      </trkpt>
      <trkpt lat="43.23812" lon="0.89723">
        <ele>406.77</ele>
        <time>2016-12-04T12:08:15Z</time>
      </trkpt>
      <trkpt lat="43.23811" lon="0.89724">
        <ele>406.77</ele>
        <time>2016-12-04T12:08:38Z</time>
      </trkpt>
      <trkpt lat="43.2381" lon="0.89725">
        <ele>407.26</ele>
        <time>2016-12-04T12:09:06Z</time>
      </trkpt>
      <trkpt lat="43.2381" lon="0.89724">
        <ele>406.77</ele>
        <time>2016-12-04T12:09:21Z</time>
      </trkpt>
      <trkpt lat="43.23811" lon="0.89722">
        <ele>406.77</ele>
        <time>2016-12-04T12:09:44Z</time>
      </trkpt>
      <trkpt lat="43.23811" lon="0.89719">
        <ele>407.26</ele>
        <time>2016-12-04T12:10:06Z</time>
      </trkpt>
      <trkpt lat="43.23812" lon="0.89731">
        <ele>407.26</ele>
        <time>2016-12-04T12:10:32Z</time>
      </trkpt>
      <trkpt lat="43.23813" lon="0.89725">
        <ele>407.26</ele>
        <time>2016-12-04T12:10:55Z</time>
      </trkpt>
      <trkpt lat="43.23812" lon="0.89721">
        <ele>406.77</ele>
        <time>2016-12-04T12:11:29Z</time>
      </trkpt>
      <trkpt lat="43.23812" lon="0.89724">
        <ele>407.74</ele>
        <time>2016-12-04T12:11:54Z</time>
      </trkpt>
      <trkpt lat="43.23812" lon="0.89724">
        <ele>407.74</ele>
        <time>2016-12-04T12:12:19Z</time>
      </trkpt>
      <trkpt lat="43.23811" lon="0.89726">
        <ele>407.26</ele>
        <time>2016-12-04T12:12:46Z</time>
      </trkpt>
      <trkpt lat="43.23812" lon="0.89723">
        <ele>407.74</ele>
        <time>2016-12-04T12:13:13Z</time>
      </trkpt>
      <trkpt lat="43.23817" lon="0.89726">
        <ele>408.7</ele>
        <time>2016-12-04T12:13:38Z</time>
      </trkpt>
      <trkpt lat="43.23817" lon="0.89727">
        <ele>409.18</ele>
        <time>2016-12-04T12:13:46Z</time>
      </trkpt>
      <trkpt lat="43.23814" lon="0.89729">
        <ele>408.7</ele>
        <time>2016-12-04T12:14:06Z</time>
      </trkpt>
      <trkpt lat="43.23815" lon="0.89724">
        <ele>408.7</ele>
        <time>2016-12-04T12:14:23Z</time>
      </trkpt>
      <trkpt lat="43.23814" lon="0.89717">
        <ele>409.18</ele>
        <time>2016-12-04T12:14:49Z</time>
      </trkpt>
      <trkpt lat="43.23811" lon="0.89716">
        <ele>409.18</ele>
        <time>2016-12-04T12:15:05Z</time>
      </trkpt>
      <trkpt lat="43.23811" lon="0.8972">
        <ele>408.7</ele>
        <time>2016-12-04T12:15:22Z</time>
      </trkpt>
      <trkpt lat="43.23812" lon="0.89726">
        <ele>408.7</ele>
        <time>2016-12-04T12:15:38Z</time>
      </trkpt>
      <trkpt lat="43.23811" lon="0.89732">
        <ele>408.7</ele>
        <time>2016-12-04T12:15:43Z</time>
      </trkpt>
      <trkpt lat="43.23816" lon="0.89727">
        <ele>409.18</ele>
        <time>2016-12-04T12:15:54Z</time>
      </trkpt>
      <trkpt lat="43.23817" lon="0.89728">
        <ele>409.18</ele>
        <time>2016-12-04T12:16:08Z</time>
      </trkpt>
      <trkpt lat="43.23813" lon="0.89726">
        <ele>409.18</ele>
        <time>2016-12-04T12:16:25Z</time>
      </trkpt>
      <trkpt lat="43.23806" lon="0.89722">
        <ele>409.18</ele>
        <time>2016-12-04T12:16:36Z</time>
      </trkpt>
      <trkpt lat="43.23806" lon="0.89715">
        <ele>408.7</ele>
        <time>2016-12-04T12:16:47Z</time>
      </trkpt>
      <trkpt lat="43.23803" lon="0.8971">
        <ele>408.7</ele>
        <time>2016-12-04T12:16:51Z</time>
      </trkpt>
      <trkpt lat="43.23797" lon="0.89705">
        <ele>408.7</ele>
        <time>2016-12-04T12:16:58Z</time>
      </trkpt>
      <trkpt lat="43.23796" lon="0.89702">
        <ele>408.7</ele>
        <time>2016-12-04T12:17:00Z</time>
      </trkpt>
      <trkpt lat="43.2379" lon="0.89689">
        <ele>408.7</ele>
        <time>2016-12-04T12:17:13Z</time>
      </trkpt>
      <trkpt lat="43.23793" lon="0.89687">
        <ele>409.18</ele>
        <time>2016-12-04T12:17:24Z</time>
      </trkpt>
      <trkpt lat="43.23797" lon="0.89687">
        <ele>409.66</ele>
        <time>2016-12-04T12:17:33Z</time>
      </trkpt>
      <trkpt lat="43.23796" lon="0.89682">
        <ele>409.66</ele>
        <time>2016-12-04T12:17:42Z</time>
      </trkpt>
      <trkpt lat="43.23796" lon="0.89678">
        <ele>409.18</ele>
        <time>2016-12-04T12:17:52Z</time>
      </trkpt>
      <trkpt lat="43.23792" lon="0.89675">
        <ele>410.14</ele>
        <time>2016-12-04T12:18:07Z</time>
      </trkpt>
      <trkpt lat="43.2378" lon="0.89674">
        <ele>408.7</ele>
        <time>2016-12-04T12:18:20Z</time>
      </trkpt>
      <trkpt lat="43.23771" lon="0.89676">
        <ele>408.22</ele>
        <time>2016-12-04T12:18:30Z</time>
      </trkpt>
      <trkpt lat="43.23759" lon="0.89679">
        <ele>406.77</ele>
        <time>2016-12-04T12:18:41Z</time>
      </trkpt>
      <trkpt lat="43.2375" lon="0.89682">
        <ele>405.81</ele>
        <time>2016-12-04T12:18:53Z</time>
      </trkpt>
      <trkpt lat="43.23741" lon="0.89689">
        <ele>406.29</ele>
        <time>2016-12-04T12:19:08Z</time>
      </trkpt>
      <trkpt lat="43.23737" lon="0.89687">
        <ele>403.89</ele>
        <time>2016-12-04T12:19:19Z</time>
      </trkpt>
      <trkpt lat="43.23737" lon="0.89687">
        <ele>405.81</ele>
        <time>2016-12-04T12:19:21Z</time>
      </trkpt>
      <trkpt lat="43.2373" lon="0.8969">
        <ele>405.33</ele>
        <time>2016-12-04T12:19:45Z</time>
      </trkpt>
      <trkpt lat="43.23728" lon="0.89692">
        <ele>404.85</ele>
        <time>2016-12-04T12:19:46Z</time>
      </trkpt>
      <trkpt lat="43.23712" lon="0.89697">
        <ele>402.93</ele>
        <time>2016-12-04T12:19:58Z</time>
      </trkpt>
      <trkpt lat="43.2371" lon="0.89698">
        <ele>402.45</ele>
        <time>2016-12-04T12:20:01Z</time>
      </trkpt>
      <trkpt lat="43.23708" lon="0.897">
        <ele>402.93</ele>
        <time>2016-12-04T12:20:03Z</time>
      </trkpt>
      <trkpt lat="43.23696" lon="0.89701">
        <ele>400.53</ele>
        <time>2016-12-04T12:20:15Z</time>
      </trkpt>
      <trkpt lat="43.23684" lon="0.89688">
        <ele>399.57</ele>
        <time>2016-12-04T12:20:27Z</time>
      </trkpt>
      <trkpt lat="43.23671" lon="0.89676">
        <ele>399.08</ele>
        <time>2016-12-04T12:20:39Z</time>
      </trkpt>
      <trkpt lat="43.23662" lon="0.89668">
        <ele>398.6</ele>
        <time>2016-12-04T12:20:49Z</time>
      </trkpt>
      <trkpt lat="43.23649" lon="0.89655">
        <ele>398.12</ele>
        <time>2016-12-04T12:21:01Z</time>
      </trkpt>
      <trkpt lat="43.23637" lon="0.89642">
        <ele>399.08</ele>
        <time>2016-12-04T12:21:14Z</time>
      </trkpt>
      <trkpt lat="43.23624" lon="0.89628">
        <ele>399.57</ele>
        <time>2016-12-04T12:21:26Z</time>
      </trkpt>
      <trkpt lat="43.23612" lon="0.89615">
        <ele>399.57</ele>
        <time>2016-12-04T12:21:37Z</time>
      </trkpt>
      <trkpt lat="43.23601" lon="0.89601">
        <ele>400.05</ele>
        <time>2016-12-04T12:21:49Z</time>
      </trkpt>
      <trkpt lat="43.23599" lon="0.89598">
        <ele>400.53</ele>
        <time>2016-12-04T12:21:51Z</time>
      </trkpt>
      <trkpt lat="43.23588" lon="0.89588">
        <ele>400.05</ele>
        <time>2016-12-04T12:22:01Z</time>
      </trkpt>
      <trkpt lat="43.23577" lon="0.89574">
        <ele>399.57</ele>
        <time>2016-12-04T12:22:11Z</time>
      </trkpt>
      <trkpt lat="43.23567" lon="0.8956">
        <ele>396.2</ele>
        <time>2016-12-04T12:22:19Z</time>
      </trkpt>
      <trkpt lat="43.23566" lon="0.89558">
        <ele>401.49</ele>
        <time>2016-12-04T12:22:20Z</time>
      </trkpt>
      <trkpt lat="43.23563" lon="0.89555">
        <ele>397.16</ele>
        <time>2016-12-04T12:22:22Z</time>
      </trkpt>
      <trkpt lat="43.23555" lon="0.89544">
        <ele>399.08</ele>
        <time>2016-12-04T12:22:34Z</time>
      </trkpt>
      <trkpt lat="43.23546" lon="0.8953">
        <ele>399.57</ele>
        <time>2016-12-04T12:22:47Z</time>
      </trkpt>
      <trkpt lat="43.23537" lon="0.89519">
        <ele>400.53</ele>
        <time>2016-12-04T12:22:58Z</time>
      </trkpt>
      <trkpt lat="43.23529" lon="0.89508">
        <ele>400.53</ele>
        <time>2016-12-04T12:23:08Z</time>
      </trkpt>
      <trkpt lat="43.23529" lon="0.89505">
        <ele>400.53</ele>
        <time>2016-12-04T12:23:10Z</time>
      </trkpt>
      <trkpt lat="43.23528" lon="0.89488">
        <ele>401.49</ele>
        <time>2016-12-04T12:23:23Z</time>
      </trkpt>
      <trkpt lat="43.2353" lon="0.89473">
        <ele>403.41</ele>
        <time>2016-12-04T12:23:36Z</time>
      </trkpt>
      <trkpt lat="43.2353" lon="0.89454">
        <ele>403.89</ele>
        <time>2016-12-04T12:23:49Z</time>
      </trkpt>
      <trkpt lat="43.23527" lon="0.8944">
        <ele>404.37</ele>
        <time>2016-12-04T12:23:59Z</time>
      </trkpt>
      <trkpt lat="43.23525" lon="0.89439">
        <ele>404.85</ele>
        <time>2016-12-04T12:24:01Z</time>
      </trkpt>
      <trkpt lat="43.23516" lon="0.89423">
        <ele>404.37</ele>
        <time>2016-12-04T12:24:14Z</time>
      </trkpt>
      <trkpt lat="43.23509" lon="0.8941">
        <ele>403.41</ele>
        <time>2016-12-04T12:24:26Z</time>
      </trkpt>
      <trkpt lat="43.23501" lon="0.89396">
        <ele>402.93</ele>
        <time>2016-12-04T12:24:37Z</time>
      </trkpt>
      <trkpt lat="43.2349" lon="0.89381">
        <ele>400.53</ele>
        <time>2016-12-04T12:24:51Z</time>
      </trkpt>
      <trkpt lat="43.23481" lon="0.8937">
        <ele>401.01</ele>
        <time>2016-12-04T12:25:03Z</time>
      </trkpt>
      <trkpt lat="43.23475" lon="0.89356">
        <ele>401.97</ele>
        <time>2016-12-04T12:25:16Z</time>
      </trkpt>
      <trkpt lat="43.23467" lon="0.89348">
        <ele>403.41</ele>
        <time>2016-12-04T12:25:27Z</time>
      </trkpt>
      <trkpt lat="43.23456" lon="0.8934">
        <ele>403.89</ele>
        <time>2016-12-04T12:25:40Z</time>
      </trkpt>
      <trkpt lat="43.23442" lon="0.89331">
        <ele>403.89</ele>
        <time>2016-12-04T12:25:54Z</time>
      </trkpt>
      <trkpt lat="43.23423" lon="0.89323">
        <ele>404.37</ele>
        <time>2016-12-04T12:26:07Z</time>
      </trkpt>
      <trkpt lat="43.23411" lon="0.89315">
        <ele>406.77</ele>
        <time>2016-12-04T12:26:22Z</time>
      </trkpt>
      <trkpt lat="43.23408" lon="0.89307">
        <ele>408.22</ele>
        <time>2016-12-04T12:26:35Z</time>
      </trkpt>
      <trkpt lat="43.23402" lon="0.8929">
        <ele>409.66</ele>
        <time>2016-12-04T12:26:50Z</time>
      </trkpt>
      <trkpt lat="43.23396" lon="0.89278">
        <ele>412.06</ele>
        <time>2016-12-04T12:27:04Z</time>
      </trkpt>
      <trkpt lat="43.23392" lon="0.89268">
        <ele>413.98</ele>
        <time>2016-12-04T12:27:19Z</time>
      </trkpt>
      <trkpt lat="43.23388" lon="0.89258">
        <ele>415.43</ele>
        <time>2016-12-04T12:27:29Z</time>
      </trkpt>
      <trkpt lat="43.23387" lon="0.89244">
        <ele>417.83</ele>
        <time>2016-12-04T12:27:41Z</time>
      </trkpt>
      <trkpt lat="43.23385" lon="0.89234">
        <ele>419.75</ele>
        <time>2016-12-04T12:27:52Z</time>
      </trkpt>
      <trkpt lat="43.23382" lon="0.89221">
        <ele>421.68</ele>
        <time>2016-12-04T12:28:04Z</time>
      </trkpt>
      <trkpt lat="43.23379" lon="0.89209">
        <ele>422.64</ele>
        <time>2016-12-04T12:28:14Z</time>
      </trkpt>
      <trkpt lat="43.23373" lon="0.89196">
        <ele>424.08</ele>
        <time>2016-12-04T12:28:26Z</time>
      </trkpt>
      <trkpt lat="43.23365" lon="0.89185">
        <ele>425.52</ele>
        <time>2016-12-04T12:28:39Z</time>
      </trkpt>
      <trkpt lat="43.23355" lon="0.89169">
        <ele>426.96</ele>
        <time>2016-12-04T12:28:52Z</time>
      </trkpt>
      <trkpt lat="43.23348" lon="0.89165">
        <ele>426.96</ele>
        <time>2016-12-04T12:28:57Z</time>
      </trkpt>
      <trkpt lat="43.23342" lon="0.89165">
        <ele>426.96</ele>
        <time>2016-12-04T12:29:03Z</time>
      </trkpt>
      <trkpt lat="43.23336" lon="0.89164">
        <ele>426.96</ele>
        <time>2016-12-04T12:29:08Z</time>
      </trkpt>
      <trkpt lat="43.23322" lon="0.89164">
        <ele>428.4</ele>
        <time>2016-12-04T12:29:22Z</time>
      </trkpt>
      <trkpt lat="43.23309" lon="0.89159">
        <ele>429.37</ele>
        <time>2016-12-04T12:29:35Z</time>
      </trkpt>
      <trkpt lat="43.233" lon="0.89155">
        <ele>430.33</ele>
        <time>2016-12-04T12:29:46Z</time>
      </trkpt>
      <trkpt lat="43.23297" lon="0.89147">
        <ele>431.29</ele>
        <time>2016-12-04T12:30:04Z</time>
      </trkpt>
      <trkpt lat="43.23293" lon="0.89143">
        <ele>431.77</ele>
        <time>2016-12-04T12:30:12Z</time>
      </trkpt>
      <trkpt lat="43.23289" lon="0.89138">
        <ele>433.21</ele>
        <time>2016-12-04T12:30:22Z</time>
      </trkpt>
      <trkpt lat="43.23282" lon="0.8913">
        <ele>434.17</ele>
        <time>2016-12-04T12:30:35Z</time>
      </trkpt>
      <trkpt lat="43.23276" lon="0.89126">
        <ele>435.13</ele>
        <time>2016-12-04T12:30:45Z</time>
      </trkpt>
      <trkpt lat="43.23258" lon="0.89118">
        <ele>436.58</ele>
        <time>2016-12-04T12:30:57Z</time>
      </trkpt>
      <trkpt lat="43.23245" lon="0.89112">
        <ele>438.5</ele>
        <time>2016-12-04T12:31:08Z</time>
      </trkpt>
      <trkpt lat="43.23235" lon="0.89106">
        <ele>438.98</ele>
        <time>2016-12-04T12:31:19Z</time>
      </trkpt>
      <trkpt lat="43.23223" lon="0.89103">
        <ele>439.46</ele>
        <time>2016-12-04T12:31:31Z</time>
      </trkpt>
      <trkpt lat="43.23215" lon="0.89101">
        <ele>439.94</ele>
        <time>2016-12-04T12:31:41Z</time>
      </trkpt>
      <trkpt lat="43.23203" lon="0.89094">
        <ele>441.38</ele>
        <time>2016-12-04T12:31:54Z</time>
      </trkpt>
      <trkpt lat="43.23196" lon="0.89091">
        <ele>441.38</ele>
        <time>2016-12-04T12:32:02Z</time>
      </trkpt>
      <trkpt lat="43.23186" lon="0.89084">
        <ele>441.38</ele>
        <time>2016-12-04T12:32:13Z</time>
      </trkpt>
      <trkpt lat="43.23183" lon="0.89084">
        <ele>441.38</ele>
        <time>2016-12-04T12:32:15Z</time>
      </trkpt>
      <trkpt lat="43.23169" lon="0.89078">
        <ele>437.54</ele>
        <time>2016-12-04T12:32:28Z</time>
      </trkpt>
      <trkpt lat="43.23168" lon="0.89078">
        <ele>443.31</ele>
        <time>2016-12-04T12:32:29Z</time>
      </trkpt>
      <trkpt lat="43.23165" lon="0.89076">
        <ele>439.46</ele>
        <time>2016-12-04T12:32:32Z</time>
      </trkpt>
      <trkpt lat="43.23163" lon="0.89075">
        <ele>443.31</ele>
        <time>2016-12-04T12:32:33Z</time>
      </trkpt>
      <trkpt lat="43.23152" lon="0.89066">
        <ele>441.38</ele>
        <time>2016-12-04T12:32:44Z</time>
      </trkpt>
      <trkpt lat="43.23142" lon="0.89056">
        <ele>441.86</ele>
        <time>2016-12-04T12:32:57Z</time>
      </trkpt>
      <trkpt lat="43.23127" lon="0.89047">
        <ele>441.86</ele>
        <time>2016-12-04T12:33:09Z</time>
      </trkpt>
      <trkpt lat="43.23115" lon="0.8904">
        <ele>441.86</ele>
        <time>2016-12-04T12:33:21Z</time>
      </trkpt>
      <trkpt lat="43.23107" lon="0.89033">
        <ele>442.34</ele>
        <time>2016-12-04T12:33:31Z</time>
      </trkpt>
      <trkpt lat="43.23098" lon="0.89025">
        <ele>442.34</ele>
        <time>2016-12-04T12:33:43Z</time>
      </trkpt>
      <trkpt lat="43.23095" lon="0.89023">
        <ele>443.79</ele>
        <time>2016-12-04T12:33:46Z</time>
      </trkpt>
      <trkpt lat="43.23079" lon="0.89012">
        <ele>442.34</ele>
        <time>2016-12-04T12:33:59Z</time>
      </trkpt>
      <trkpt lat="43.23072" lon="0.89004">
        <ele>443.79</ele>
        <time>2016-12-04T12:34:04Z</time>
      </trkpt>
      <trkpt lat="43.2306" lon="0.89002">
        <ele>444.75</ele>
        <time>2016-12-04T12:34:16Z</time>
      </trkpt>
      <trkpt lat="43.2305" lon="0.88998">
        <ele>445.23</ele>
        <time>2016-12-04T12:34:28Z</time>
      </trkpt>
      <trkpt lat="43.23042" lon="0.8899">
        <ele>445.71</ele>
        <time>2016-12-04T12:34:39Z</time>
      </trkpt>
      <trkpt lat="43.23035" lon="0.88981">
        <ele>446.19</ele>
        <time>2016-12-04T12:34:50Z</time>
      </trkpt>
      <trkpt lat="43.23029" lon="0.88974">
        <ele>447.15</ele>
        <time>2016-12-04T12:34:59Z</time>
      </trkpt>
      <trkpt lat="43.23021" lon="0.88966">
        <ele>446.19</ele>
        <time>2016-12-04T12:35:08Z</time>
      </trkpt>
      <trkpt lat="43.2302" lon="0.88964">
        <ele>446.67</ele>
        <time>2016-12-04T12:35:10Z</time>
      </trkpt>
      <trkpt lat="43.23011" lon="0.88951">
        <ele>447.63</ele>
        <time>2016-12-04T12:35:21Z</time>
      </trkpt>
      <trkpt lat="43.23001" lon="0.88941">
        <ele>447.63</ele>
        <time>2016-12-04T12:35:33Z</time>
      </trkpt>
      <trkpt lat="43.22993" lon="0.88934">
        <ele>448.11</ele>
        <time>2016-12-04T12:35:43Z</time>
      </trkpt>
      <trkpt lat="43.22986" lon="0.88923">
        <ele>448.11</ele>
        <time>2016-12-04T12:35:54Z</time>
      </trkpt>
      <trkpt lat="43.22977" lon="0.88914">
        <ele>448.59</ele>
        <time>2016-12-04T12:36:06Z</time>
      </trkpt>
      <trkpt lat="43.22965" lon="0.88899">
        <ele>449.55</ele>
        <time>2016-12-04T12:36:21Z</time>
      </trkpt>
      <trkpt lat="43.22958" lon="0.88889">
        <ele>450.03</ele>
        <time>2016-12-04T12:36:35Z</time>
      </trkpt>
      <trkpt lat="43.22952" lon="0.88878">
        <ele>450.03</ele>
        <time>2016-12-04T12:36:47Z</time>
      </trkpt>
      <trkpt lat="43.22943" lon="0.88867">
        <ele>450.52</ele>
        <time>2016-12-04T12:36:58Z</time>
      </trkpt>
      <trkpt lat="43.22929" lon="0.88856">
        <ele>450.52</ele>
        <time>2016-12-04T12:37:09Z</time>
      </trkpt>
      <trkpt lat="43.2292" lon="0.88846">
        <ele>451.48</ele>
        <time>2016-12-04T12:37:22Z</time>
      </trkpt>
      <trkpt lat="43.22913" lon="0.88829">
        <ele>451.96</ele>
        <time>2016-12-04T12:37:36Z</time>
      </trkpt>
      <trkpt lat="43.22903" lon="0.88812">
        <ele>452.44</ele>
        <time>2016-12-04T12:37:49Z</time>
      </trkpt>
      <trkpt lat="43.22893" lon="0.88793">
        <ele>451.96</ele>
        <time>2016-12-04T12:38:03Z</time>
      </trkpt>
      <trkpt lat="43.22886" lon="0.88783">
        <ele>451.48</ele>
        <time>2016-12-04T12:38:15Z</time>
      </trkpt>
      <trkpt lat="43.22873" lon="0.88767">
        <ele>451</ele>
        <time>2016-12-04T12:38:26Z</time>
      </trkpt>
      <trkpt lat="43.22861" lon="0.88758">
        <ele>451</ele>
        <time>2016-12-04T12:38:37Z</time>
      </trkpt>
      <trkpt lat="43.22851" lon="0.88751">
        <ele>450.52</ele>
        <time>2016-12-04T12:38:47Z</time>
      </trkpt>
      <trkpt lat="43.22841" lon="0.88741">
        <ele>449.55</ele>
        <time>2016-12-04T12:38:58Z</time>
      </trkpt>
      <trkpt lat="43.22839" lon="0.88739">
        <ele>449.55</ele>
        <time>2016-12-04T12:39:00Z</time>
      </trkpt>
      <trkpt lat="43.22828" lon="0.88723">
        <ele>449.07</ele>
        <time>2016-12-04T12:39:12Z</time>
      </trkpt>
      <trkpt lat="43.22826" lon="0.88722">
        <ele>449.55</ele>
        <time>2016-12-04T12:39:14Z</time>
      </trkpt>
      <trkpt lat="43.22814" lon="0.88719">
        <ele>448.11</ele>
        <time>2016-12-04T12:39:26Z</time>
      </trkpt>
      <trkpt lat="43.22798" lon="0.88711">
        <ele>446.67</ele>
        <time>2016-12-04T12:39:38Z</time>
      </trkpt>
      <trkpt lat="43.22789" lon="0.88707">
        <ele>445.23</ele>
        <time>2016-12-04T12:39:51Z</time>
      </trkpt>
      <trkpt lat="43.22775" lon="0.88702">
        <ele>443.31</ele>
        <time>2016-12-04T12:40:05Z</time>
      </trkpt>
      <trkpt lat="43.22761" lon="0.88696">
        <ele>440.9</ele>
        <time>2016-12-04T12:40:20Z</time>
      </trkpt>
      <trkpt lat="43.22747" lon="0.88689">
        <ele>438.5</ele>
        <time>2016-12-04T12:40:33Z</time>
      </trkpt>
      <trkpt lat="43.22737" lon="0.88681">
        <ele>437.06</ele>
        <time>2016-12-04T12:40:46Z</time>
      </trkpt>
      <trkpt lat="43.22723" lon="0.88667">
        <ele>435.13</ele>
        <time>2016-12-04T12:40:59Z</time>
      </trkpt>
      <trkpt lat="43.2272" lon="0.88663">
        <ele>435.61</ele>
        <time>2016-12-04T12:41:01Z</time>
      </trkpt>
      <trkpt lat="43.22712" lon="0.88655">
        <ele>435.13</ele>
        <time>2016-12-04T12:41:11Z</time>
      </trkpt>
      <trkpt lat="43.22707" lon="0.88651">
        <ele>434.17</ele>
        <time>2016-12-04T12:41:17Z</time>
      </trkpt>
      <trkpt lat="43.22695" lon="0.88647">
        <ele>432.73</ele>
        <time>2016-12-04T12:41:28Z</time>
      </trkpt>
      <trkpt lat="43.22689" lon="0.88643">
        <ele>431.77</ele>
        <time>2016-12-04T12:41:38Z</time>
      </trkpt>
      <trkpt lat="43.22688" lon="0.88644">
        <ele>431.77</ele>
        <time>2016-12-04T12:41:44Z</time>
      </trkpt>
      <trkpt lat="43.22682" lon="0.88646">
        <ele>430.81</ele>
        <time>2016-12-04T12:41:57Z</time>
      </trkpt>
      <trkpt lat="43.22682" lon="0.88649">
        <ele>430.81</ele>
        <time>2016-12-04T12:42:14Z</time>
      </trkpt>
      <trkpt lat="43.2268" lon="0.88644">
        <ele>430.33</ele>
        <time>2016-12-04T12:42:28Z</time>
      </trkpt>
      <trkpt lat="43.22681" lon="0.88634">
        <ele>429.37</ele>
        <time>2016-12-04T12:42:39Z</time>
      </trkpt>
      <trkpt lat="43.2268" lon="0.88625">
        <ele>427.92</ele>
        <time>2016-12-04T12:42:53Z</time>
      </trkpt>
      <trkpt lat="43.2268" lon="0.88612">
        <ele>425.04</ele>
        <time>2016-12-04T12:43:05Z</time>
      </trkpt>
      <trkpt lat="43.22676" lon="0.88598">
        <ele>422.64</ele>
        <time>2016-12-04T12:43:17Z</time>
      </trkpt>
      <trkpt lat="43.22677" lon="0.88584">
        <ele>420.71</ele>
        <time>2016-12-04T12:43:29Z</time>
      </trkpt>
      <trkpt lat="43.22678" lon="0.88576">
        <ele>419.27</ele>
        <time>2016-12-04T12:43:38Z</time>
      </trkpt>
      <trkpt lat="43.22674" lon="0.88558">
        <ele>417.35</ele>
        <time>2016-12-04T12:43:51Z</time>
      </trkpt>
      <trkpt lat="43.22672" lon="0.88546">
        <ele>414.95</ele>
        <time>2016-12-04T12:44:02Z</time>
      </trkpt>
      <trkpt lat="43.2267" lon="0.88531">
        <ele>413.02</ele>
        <time>2016-12-04T12:44:15Z</time>
      </trkpt>
      <trkpt lat="43.22668" lon="0.88512">
        <ele>411.58</ele>
        <time>2016-12-04T12:44:26Z</time>
      </trkpt>
      <trkpt lat="43.22665" lon="0.88492">
        <ele>410.62</ele>
        <time>2016-12-04T12:44:37Z</time>
      </trkpt>
      <trkpt lat="43.22665" lon="0.88468">
        <ele>408.22</ele>
        <time>2016-12-04T12:44:50Z</time>
      </trkpt>
      <trkpt lat="43.22663" lon="0.88447">
        <ele>407.26</ele>
        <time>2016-12-04T12:45:04Z</time>
      </trkpt>
      <trkpt lat="43.22659" lon="0.88426">
        <ele>406.77</ele>
        <time>2016-12-04T12:45:18Z</time>
      </trkpt>
      <trkpt lat="43.22654" lon="0.88407">
        <ele>405.81</ele>
        <time>2016-12-04T12:45:31Z</time>
      </trkpt>
      <trkpt lat="43.22653" lon="0.8838">
        <ele>403.89</ele>
        <time>2016-12-04T12:45:47Z</time>
      </trkpt>
      <trkpt lat="43.22648" lon="0.88362">
        <ele>401.49</ele>
        <time>2016-12-04T12:45:59Z</time>
      </trkpt>
      <trkpt lat="43.22644" lon="0.88344">
        <ele>399.57</ele>
        <time>2016-12-04T12:46:12Z</time>
      </trkpt>
      <trkpt lat="43.22643" lon="0.88327">
        <ele>398.6</ele>
        <time>2016-12-04T12:46:24Z</time>
      </trkpt>
      <trkpt lat="43.22641" lon="0.8831">
        <ele>397.64</ele>
        <time>2016-12-04T12:46:35Z</time>
      </trkpt>
      <trkpt lat="43.22637" lon="0.88291">
        <ele>395.24</ele>
        <time>2016-12-04T12:46:46Z</time>
      </trkpt>
      <trkpt lat="43.22634" lon="0.88272">
        <ele>393.8</ele>
        <time>2016-12-04T12:46:59Z</time>
      </trkpt>
      <trkpt lat="43.2263" lon="0.88254">
        <ele>391.87</ele>
        <time>2016-12-04T12:47:10Z</time>
      </trkpt>
      <trkpt lat="43.22626" lon="0.88235">
        <ele>390.43</ele>
        <time>2016-12-04T12:47:23Z</time>
      </trkpt>
      <trkpt lat="43.22621" lon="0.88216">
        <ele>388.03</ele>
        <time>2016-12-04T12:47:36Z</time>
      </trkpt>
      <trkpt lat="43.22615" lon="0.882">
        <ele>386.59</ele>
        <time>2016-12-04T12:47:47Z</time>
      </trkpt>
      <trkpt lat="43.22611" lon="0.88192">
        <ele>386.11</ele>
        <time>2016-12-04T12:47:52Z</time>
      </trkpt>
      <trkpt lat="43.2261" lon="0.88177">
        <ele>384.18</ele>
        <time>2016-12-04T12:48:02Z</time>
      </trkpt>
      <trkpt lat="43.22604" lon="0.88159">
        <ele>382.26</ele>
        <time>2016-12-04T12:48:13Z</time>
      </trkpt>
      <trkpt lat="43.22603" lon="0.88143">
        <ele>379.86</ele>
        <time>2016-12-04T12:48:24Z</time>
      </trkpt>
      <trkpt lat="43.226" lon="0.8814">
        <ele>379.38</ele>
        <time>2016-12-04T12:48:35Z</time>
      </trkpt>
      <trkpt lat="43.22594" lon="0.8812">
        <ele>377.94</ele>
        <time>2016-12-04T12:48:48Z</time>
      </trkpt>
      <trkpt lat="43.22589" lon="0.88102">
        <ele>375.53</ele>
        <time>2016-12-04T12:49:00Z</time>
      </trkpt>
      <trkpt lat="43.22587" lon="0.88085">
        <ele>373.61</ele>
        <time>2016-12-04T12:49:10Z</time>
      </trkpt>
      <trkpt lat="43.22583" lon="0.88065">
        <ele>370.73</ele>
        <time>2016-12-04T12:49:23Z</time>
      </trkpt>
      <trkpt lat="43.22586" lon="0.88053">
        <ele>370.24</ele>
        <time>2016-12-04T12:49:34Z</time>
      </trkpt>
      <trkpt lat="43.22598" lon="0.88057">
        <ele>371.69</ele>
        <time>2016-12-04T12:49:47Z</time>
      </trkpt>
      <trkpt lat="43.22613" lon="0.88062">
        <ele>373.13</ele>
        <time>2016-12-04T12:50:03Z</time>
      </trkpt>
      <trkpt lat="43.22619" lon="0.88063">
        <ele>373.13</ele>
        <time>2016-12-04T12:50:08Z</time>
      </trkpt>
      <trkpt lat="43.22622" lon="0.88063">
        <ele>371.69</ele>
        <time>2016-12-04T12:50:10Z</time>
      </trkpt>
      <trkpt lat="43.22622" lon="0.88064">
        <ele>375.53</ele>
        <time>2016-12-04T12:50:11Z</time>
      </trkpt>
      <trkpt lat="43.22633" lon="0.88068">
        <ele>375.05</ele>
        <time>2016-12-04T12:50:23Z</time>
      </trkpt>
      <trkpt lat="43.22648" lon="0.88069">
        <ele>376.49</ele>
        <time>2016-12-04T12:50:36Z</time>
      </trkpt>
      <trkpt lat="43.22659" lon="0.88071">
        <ele>377.45</ele>
        <time>2016-12-04T12:50:47Z</time>
      </trkpt>
      <trkpt lat="43.2267" lon="0.88076">
        <ele>378.9</ele>
        <time>2016-12-04T12:51:00Z</time>
      </trkpt>
      <trkpt lat="43.22681" lon="0.88081">
        <ele>380.82</ele>
        <time>2016-12-04T12:51:12Z</time>
      </trkpt>
      <trkpt lat="43.2269" lon="0.88087">
        <ele>382.26</ele>
        <time>2016-12-04T12:51:24Z</time>
      </trkpt>
      <trkpt lat="43.22701" lon="0.88093">
        <ele>384.18</ele>
        <time>2016-12-04T12:51:37Z</time>
      </trkpt>
      <trkpt lat="43.2271" lon="0.88102">
        <ele>385.15</ele>
        <time>2016-12-04T12:51:50Z</time>
      </trkpt>
      <trkpt lat="43.22722" lon="0.88106">
        <ele>387.07</ele>
        <time>2016-12-04T12:52:02Z</time>
      </trkpt>
      <trkpt lat="43.22732" lon="0.88114">
        <ele>388.51</ele>
        <time>2016-12-04T12:52:17Z</time>
      </trkpt>
      <trkpt lat="43.22744" lon="0.88122">
        <ele>390.43</ele>
        <time>2016-12-04T12:52:32Z</time>
      </trkpt>
      <trkpt lat="43.22753" lon="0.88134">
        <ele>391.39</ele>
        <time>2016-12-04T12:52:49Z</time>
      </trkpt>
      <trkpt lat="43.2276" lon="0.88141">
        <ele>393.32</ele>
        <time>2016-12-04T12:53:01Z</time>
      </trkpt>
      <trkpt lat="43.2277" lon="0.88145">
        <ele>393.8</ele>
        <time>2016-12-04T12:53:08Z</time>
      </trkpt>
      <trkpt lat="43.22782" lon="0.88152">
        <ele>393.8</ele>
        <time>2016-12-04T12:53:19Z</time>
      </trkpt>
      <trkpt lat="43.22787" lon="0.88158">
        <ele>390.91</ele>
        <time>2016-12-04T12:53:24Z</time>
      </trkpt>
      <trkpt lat="43.22788" lon="0.88159">
        <ele>396.2</ele>
        <time>2016-12-04T12:53:25Z</time>
      </trkpt>
      <trkpt lat="43.2279" lon="0.88161">
        <ele>392.36</ele>
        <time>2016-12-04T12:53:27Z</time>
      </trkpt>
      <trkpt lat="43.22791" lon="0.88162">
        <ele>397.16</ele>
        <time>2016-12-04T12:53:28Z</time>
      </trkpt>
      <trkpt lat="43.22793" lon="0.88164">
        <ele>393.8</ele>
        <time>2016-12-04T12:53:30Z</time>
      </trkpt>
      <trkpt lat="43.22795" lon="0.88158">
        <ele>394.76</ele>
        <time>2016-12-04T12:53:42Z</time>
      </trkpt>
      <trkpt lat="43.22792" lon="0.88141">
        <ele>393.32</ele>
        <time>2016-12-04T12:53:53Z</time>
      </trkpt>
      <trkpt lat="43.22789" lon="0.88133">
        <ele>390.43</ele>
        <time>2016-12-04T12:53:58Z</time>
      </trkpt>
      <trkpt lat="43.22789" lon="0.88129">
        <ele>393.8</ele>
        <time>2016-12-04T12:54:01Z</time>
      </trkpt>
      <trkpt lat="43.22789" lon="0.88127">
        <ele>388.51</ele>
        <time>2016-12-04T12:54:02Z</time>
      </trkpt>
      <trkpt lat="43.22789" lon="0.88126">
        <ele>395.24</ele>
        <time>2016-12-04T12:54:03Z</time>
      </trkpt>
      <trkpt lat="43.2279" lon="0.88125">
        <ele>390.91</ele>
        <time>2016-12-04T12:54:04Z</time>
      </trkpt>
      <trkpt lat="43.2279" lon="0.88121">
        <ele>391.87</ele>
        <time>2016-12-04T12:54:07Z</time>
      </trkpt>
      <trkpt lat="43.22792" lon="0.88118">
        <ele>388.03</ele>
        <time>2016-12-04T12:54:09Z</time>
      </trkpt>
      <trkpt lat="43.22792" lon="0.88117">
        <ele>392.84</ele>
        <time>2016-12-04T12:54:10Z</time>
      </trkpt>
      <trkpt lat="43.22795" lon="0.8811">
        <ele>389.47</ele>
        <time>2016-12-04T12:54:17Z</time>
      </trkpt>
      <trkpt lat="43.22797" lon="0.88098">
        <ele>387.07</ele>
        <time>2016-12-04T12:54:28Z</time>
      </trkpt>
      <trkpt lat="43.22801" lon="0.88084">
        <ele>385.15</ele>
        <time>2016-12-04T12:54:39Z</time>
      </trkpt>
      <trkpt lat="43.22805" lon="0.88065">
        <ele>384.18</ele>
        <time>2016-12-04T12:54:53Z</time>
      </trkpt>
      <trkpt lat="43.22807" lon="0.88048">
        <ele>385.15</ele>
        <time>2016-12-04T12:55:04Z</time>
      </trkpt>
      <trkpt lat="43.22814" lon="0.88035">
        <ele>386.11</ele>
        <time>2016-12-04T12:55:16Z</time>
      </trkpt>
      <trkpt lat="43.22823" lon="0.88026">
        <ele>387.55</ele>
        <time>2016-12-04T12:55:31Z</time>
      </trkpt>
      <trkpt lat="43.22829" lon="0.88016">
        <ele>390.43</ele>
        <time>2016-12-04T12:55:45Z</time>
      </trkpt>
      <trkpt lat="43.22834" lon="0.8801">
        <ele>393.32</ele>
        <time>2016-12-04T12:55:56Z</time>
      </trkpt>
      <trkpt lat="43.22841" lon="0.87998">
        <ele>395.24</ele>
        <time>2016-12-04T12:56:08Z</time>
      </trkpt>
      <trkpt lat="43.2285" lon="0.87987">
        <ele>397.16</ele>
        <time>2016-12-04T12:56:19Z</time>
      </trkpt>
      <trkpt lat="43.22854" lon="0.87975">
        <ele>396.68</ele>
        <time>2016-12-04T12:56:25Z</time>
      </trkpt>
      <trkpt lat="43.22855" lon="0.87968">
        <ele>397.16</ele>
        <time>2016-12-04T12:56:30Z</time>
      </trkpt>
      <trkpt lat="43.22859" lon="0.87957">
        <ele>396.2</ele>
        <time>2016-12-04T12:56:39Z</time>
      </trkpt>
      <trkpt lat="43.22859" lon="0.87937">
        <ele>396.2</ele>
        <time>2016-12-04T12:56:51Z</time>
      </trkpt>
      <trkpt lat="43.22858" lon="0.87934">
        <ele>396.68</ele>
        <time>2016-12-04T12:56:53Z</time>
      </trkpt>
      <trkpt lat="43.22848" lon="0.87919">
        <ele>395.72</ele>
        <time>2016-12-04T12:57:05Z</time>
      </trkpt>
      <trkpt lat="43.22845" lon="0.87905">
        <ele>393.32</ele>
        <time>2016-12-04T12:57:17Z</time>
      </trkpt>
      <trkpt lat="43.22854" lon="0.87893">
        <ele>391.87</ele>
        <time>2016-12-04T12:57:30Z</time>
      </trkpt>
      <trkpt lat="43.22857" lon="0.87877">
        <ele>389.95</ele>
        <time>2016-12-04T12:57:43Z</time>
      </trkpt>
      <trkpt lat="43.2286" lon="0.87855">
        <ele>388.03</ele>
        <time>2016-12-04T12:57:55Z</time>
      </trkpt>
      <trkpt lat="43.22862" lon="0.87833">
        <ele>385.63</ele>
        <time>2016-12-04T12:58:07Z</time>
      </trkpt>
      <trkpt lat="43.2286" lon="0.87815">
        <ele>384.66</ele>
        <time>2016-12-04T12:58:19Z</time>
      </trkpt>
      <trkpt lat="43.22854" lon="0.87806">
        <ele>384.18</ele>
        <time>2016-12-04T12:58:30Z</time>
      </trkpt>
      <trkpt lat="43.22847" lon="0.87795">
        <ele>383.22</ele>
        <time>2016-12-04T12:58:39Z</time>
      </trkpt>
      <trkpt lat="43.22838" lon="0.87781">
        <ele>381.78</ele>
        <time>2016-12-04T12:58:50Z</time>
      </trkpt>
      <trkpt lat="43.22831" lon="0.87776">
        <ele>381.3</ele>
        <time>2016-12-04T12:59:03Z</time>
      </trkpt>
      <trkpt lat="43.22821" lon="0.87759">
        <ele>380.34</ele>
        <time>2016-12-04T12:59:18Z</time>
      </trkpt>
      <trkpt lat="43.22822" lon="0.87752">
        <ele>380.34</ele>
        <time>2016-12-04T12:59:32Z</time>
      </trkpt>
      <trkpt lat="43.22814" lon="0.87748">
        <ele>379.86</ele>
        <time>2016-12-04T12:59:48Z</time>
      </trkpt>
      <trkpt lat="43.22813" lon="0.87749">
        <ele>379.86</ele>
        <time>2016-12-04T13:00:05Z</time>
      </trkpt>
      <trkpt lat="43.22817" lon="0.87749">
        <ele>378.9</ele>
        <time>2016-12-04T13:00:25Z</time>
      </trkpt>
      <trkpt lat="43.22817" lon="0.87746">
        <ele>383.22</ele>
        <time>2016-12-04T13:00:36Z</time>
      </trkpt>
      <trkpt lat="43.22817" lon="0.87746">
        <ele>378.42</ele>
        <time>2016-12-04T13:00:37Z</time>
      </trkpt>
      <trkpt lat="43.22817" lon="0.87744">
        <ele>381.78</ele>
        <time>2016-12-04T13:00:42Z</time>
      </trkpt>
      <trkpt lat="43.22817" lon="0.87744">
        <ele>378.42</ele>
        <time>2016-12-04T13:00:43Z</time>
      </trkpt>
      <trkpt lat="43.22816" lon="0.87745">
        <ele>383.22</ele>
        <time>2016-12-04T13:00:49Z</time>
      </trkpt>
      <trkpt lat="43.22816" lon="0.87745">
        <ele>381.78</ele>
        <time>2016-12-04T13:00:50Z</time>
      </trkpt>
      <trkpt lat="43.22815" lon="0.87745">
        <ele>379.38</ele>
        <time>2016-12-04T13:00:53Z</time>
      </trkpt>
      <trkpt lat="43.22812" lon="0.87751">
        <ele>379.38</ele>
        <time>2016-12-04T13:01:18Z</time>
      </trkpt>
      <trkpt lat="43.22809" lon="0.87751">
        <ele>379.86</ele>
        <time>2016-12-04T13:01:30Z</time>
      </trkpt>
      <trkpt lat="43.22804" lon="0.87743">
        <ele>380.34</ele>
        <time>2016-12-04T13:01:49Z</time>
      </trkpt>
      <trkpt lat="43.22802" lon="0.8772">
        <ele>378.9</ele>
        <time>2016-12-04T13:02:03Z</time>
      </trkpt>
      <trkpt lat="43.228" lon="0.87706">
        <ele>374.09</ele>
        <time>2016-12-04T13:02:10Z</time>
      </trkpt>
      <trkpt lat="43.22802" lon="0.87702">
        <ele>376.49</ele>
        <time>2016-12-04T13:02:12Z</time>
      </trkpt>
      <trkpt lat="43.22814" lon="0.87689">
        <ele>376.49</ele>
        <time>2016-12-04T13:02:24Z</time>
      </trkpt>
      <trkpt lat="43.22823" lon="0.87676">
        <ele>374.57</ele>
        <time>2016-12-04T13:02:37Z</time>
      </trkpt>
      <trkpt lat="43.22824" lon="0.87656">
        <ele>375.05</ele>
        <time>2016-12-04T13:02:50Z</time>
      </trkpt>
      <trkpt lat="43.2283" lon="0.87627">
        <ele>374.09</ele>
        <time>2016-12-04T13:03:04Z</time>
      </trkpt>
      <trkpt lat="43.22834" lon="0.87619">
        <ele>371.21</ele>
        <time>2016-12-04T13:03:10Z</time>
      </trkpt>
      <trkpt lat="43.22835" lon="0.87618">
        <ele>375.05</ele>
        <time>2016-12-04T13:03:11Z</time>
      </trkpt>
      <trkpt lat="43.22841" lon="0.87602">
        <ele>372.65</ele>
        <time>2016-12-04T13:03:23Z</time>
      </trkpt>
      <trkpt lat="43.22843" lon="0.876">
        <ele>372.17</ele>
        <time>2016-12-04T13:03:25Z</time>
      </trkpt>
      <trkpt lat="43.22859" lon="0.87594">
        <ele>372.65</ele>
        <time>2016-12-04T13:03:40Z</time>
      </trkpt>
      <trkpt lat="43.2287" lon="0.87593">
        <ele>373.13</ele>
        <time>2016-12-04T13:03:51Z</time>
      </trkpt>
      <trkpt lat="43.22882" lon="0.87591">
        <ele>372.17</ele>
        <time>2016-12-04T13:04:02Z</time>
      </trkpt>
      <trkpt lat="43.22884" lon="0.87592">
        <ele>372.17</ele>
        <time>2016-12-04T13:04:06Z</time>
      </trkpt>
      <trkpt lat="43.22898" lon="0.87594">
        <ele>371.69</ele>
        <time>2016-12-04T13:04:18Z</time>
      </trkpt>
      <trkpt lat="43.22908" lon="0.87592">
        <ele>372.17</ele>
        <time>2016-12-04T13:04:29Z</time>
      </trkpt>
      <trkpt lat="43.22913" lon="0.87598">
        <ele>371.69</ele>
        <time>2016-12-04T13:04:40Z</time>
      </trkpt>
      <trkpt lat="43.22925" lon="0.87602">
        <ele>371.69</ele>
        <time>2016-12-04T13:04:56Z</time>
      </trkpt>
      <trkpt lat="43.22936" lon="0.87605">
        <ele>370.24</ele>
        <time>2016-12-04T13:05:06Z</time>
      </trkpt>
      <trkpt lat="43.22949" lon="0.87603">
        <ele>369.76</ele>
        <time>2016-12-04T13:05:17Z</time>
      </trkpt>
      <trkpt lat="43.22961" lon="0.87599">
        <ele>369.28</ele>
        <time>2016-12-04T13:05:29Z</time>
      </trkpt>
      <trkpt lat="43.22977" lon="0.87594">
        <ele>368.32</ele>
        <time>2016-12-04T13:05:41Z</time>
      </trkpt>
      <trkpt lat="43.22991" lon="0.87582">
        <ele>367.84</ele>
        <time>2016-12-04T13:05:53Z</time>
      </trkpt>
      <trkpt lat="43.23003" lon="0.8758">
        <ele>368.32</ele>
        <time>2016-12-04T13:06:06Z</time>
      </trkpt>
      <trkpt lat="43.23015" lon="0.87568">
        <ele>367.36</ele>
        <time>2016-12-04T13:06:16Z</time>
      </trkpt>
      <trkpt lat="43.23027" lon="0.87563">
        <ele>365.92</ele>
        <time>2016-12-04T13:06:29Z</time>
      </trkpt>
      <trkpt lat="43.23041" lon="0.87552">
        <ele>366.4</ele>
        <time>2016-12-04T13:06:39Z</time>
      </trkpt>
      <trkpt lat="43.23053" lon="0.87543">
        <ele>364.96</ele>
        <time>2016-12-04T13:06:52Z</time>
      </trkpt>
      <trkpt lat="43.23059" lon="0.87533">
        <ele>365.92</ele>
        <time>2016-12-04T13:07:05Z</time>
      </trkpt>
      <trkpt lat="43.2307" lon="0.87531">
        <ele>365.44</ele>
        <time>2016-12-04T13:07:18Z</time>
      </trkpt>
      <trkpt lat="43.23084" lon="0.87516">
        <ele>364.96</ele>
        <time>2016-12-04T13:07:31Z</time>
      </trkpt>
      <trkpt lat="43.23099" lon="0.87492">
        <ele>363.52</ele>
        <time>2016-12-04T13:07:46Z</time>
      </trkpt>
      <trkpt lat="43.23102" lon="0.87487">
        <ele>363.52</ele>
        <time>2016-12-04T13:07:56Z</time>
      </trkpt>
      <trkpt lat="43.23113" lon="0.87477">
        <ele>363.04</ele>
        <time>2016-12-04T13:08:06Z</time>
      </trkpt>
      <trkpt lat="43.23128" lon="0.87461">
        <ele>361.59</ele>
        <time>2016-12-04T13:08:20Z</time>
      </trkpt>
      <trkpt lat="43.23135" lon="0.87453">
        <ele>364.96</ele>
        <time>2016-12-04T13:08:25Z</time>
      </trkpt>
      <trkpt lat="43.23137" lon="0.87449">
        <ele>362.07</ele>
        <time>2016-12-04T13:08:28Z</time>
      </trkpt>
      <trkpt lat="43.23138" lon="0.87448">
        <ele>362.55</ele>
        <time>2016-12-04T13:08:29Z</time>
      </trkpt>
      <trkpt lat="43.23144" lon="0.87438">
        <ele>362.07</ele>
        <time>2016-12-04T13:08:35Z</time>
      </trkpt>
      <trkpt lat="43.23141" lon="0.87414">
        <ele>361.11</ele>
        <time>2016-12-04T13:08:47Z</time>
      </trkpt>
      <trkpt lat="43.23131" lon="0.87395">
        <ele>361.59</ele>
        <time>2016-12-04T13:08:59Z</time>
      </trkpt>
      <trkpt lat="43.23127" lon="0.8739">
        <ele>360.15</ele>
        <time>2016-12-04T13:09:02Z</time>
      </trkpt>
      <trkpt lat="43.23112" lon="0.87376">
        <ele>358.71</ele>
        <time>2016-12-04T13:09:16Z</time>
      </trkpt>
      <trkpt lat="43.23105" lon="0.87359">
        <ele>357.75</ele>
        <time>2016-12-04T13:09:28Z</time>
      </trkpt>
      <trkpt lat="43.2311" lon="0.87351">
        <ele>357.75</ele>
        <time>2016-12-04T13:09:39Z</time>
      </trkpt>
      <trkpt lat="43.23113" lon="0.87347">
        <ele>355.83</ele>
        <time>2016-12-04T13:09:55Z</time>
      </trkpt>
      <trkpt lat="43.23127" lon="0.87335">
        <ele>353.9</ele>
        <time>2016-12-04T13:10:09Z</time>
      </trkpt>
      <trkpt lat="43.23133" lon="0.87331">
        <ele>351.98</ele>
        <time>2016-12-04T13:10:14Z</time>
      </trkpt>
      <trkpt lat="43.23141" lon="0.87329">
        <ele>350.54</ele>
        <time>2016-12-04T13:10:27Z</time>
      </trkpt>
      <trkpt lat="43.23144" lon="0.87322">
        <ele>347.65</ele>
        <time>2016-12-04T13:10:37Z</time>
      </trkpt>
      <trkpt lat="43.23149" lon="0.8731">
        <ele>346.69</ele>
        <time>2016-12-04T13:10:50Z</time>
      </trkpt>
      <trkpt lat="43.23153" lon="0.87304">
        <ele>346.69</ele>
        <time>2016-12-04T13:11:11Z</time>
      </trkpt>
      <trkpt lat="43.23153" lon="0.87293">
        <ele>347.17</ele>
        <time>2016-12-04T13:11:23Z</time>
      </trkpt>
      <trkpt lat="43.23158" lon="0.87286">
        <ele>349.1</ele>
        <time>2016-12-04T13:11:39Z</time>
      </trkpt>
      <trkpt lat="43.2316" lon="0.87279">
        <ele>351.5</ele>
        <time>2016-12-04T13:11:49Z</time>
      </trkpt>
      <trkpt lat="43.23165" lon="0.8727">
        <ele>354.38</ele>
        <time>2016-12-04T13:12:01Z</time>
      </trkpt>
      <trkpt lat="43.23172" lon="0.87258">
        <ele>356.31</ele>
        <time>2016-12-04T13:12:16Z</time>
      </trkpt>
      <trkpt lat="43.23183" lon="0.87241">
        <ele>357.75</ele>
        <time>2016-12-04T13:12:30Z</time>
      </trkpt>
      <trkpt lat="43.23184" lon="0.87221">
        <ele>357.27</ele>
        <time>2016-12-04T13:12:42Z</time>
      </trkpt>
      <trkpt lat="43.23184" lon="0.87196">
        <ele>355.83</ele>
        <time>2016-12-04T13:12:56Z</time>
      </trkpt>
      <trkpt lat="43.23176" lon="0.87185">
        <ele>356.79</ele>
        <time>2016-12-04T13:13:07Z</time>
      </trkpt>
      <trkpt lat="43.2317" lon="0.87184">
        <ele>359.19</ele>
        <time>2016-12-04T13:13:17Z</time>
      </trkpt>
      <trkpt lat="43.2317" lon="0.87183">
        <ele>357.27</ele>
        <time>2016-12-04T13:13:19Z</time>
      </trkpt>
      <trkpt lat="43.23168" lon="0.87177">
        <ele>356.31</ele>
        <time>2016-12-04T13:13:40Z</time>
      </trkpt>
      <trkpt lat="43.23165" lon="0.87169">
        <ele>357.27</ele>
        <time>2016-12-04T13:13:52Z</time>
      </trkpt>
      <trkpt lat="43.23167" lon="0.87158">
        <ele>359.19</ele>
        <time>2016-12-04T13:14:03Z</time>
      </trkpt>
      <trkpt lat="43.23165" lon="0.87154">
        <ele>355.34</ele>
        <time>2016-12-04T13:14:09Z</time>
      </trkpt>
      <trkpt lat="43.23164" lon="0.87153">
        <ele>361.11</ele>
        <time>2016-12-04T13:14:10Z</time>
      </trkpt>
      <trkpt lat="43.23164" lon="0.87152">
        <ele>360.63</ele>
        <time>2016-12-04T13:14:11Z</time>
      </trkpt>
      <trkpt lat="43.23166" lon="0.87138">
        <ele>362.07</ele>
        <time>2016-12-04T13:14:23Z</time>
      </trkpt>
      <trkpt lat="43.23162" lon="0.87125">
        <ele>364.48</ele>
        <time>2016-12-04T13:14:36Z</time>
      </trkpt>
      <trkpt lat="43.23159" lon="0.87118">
        <ele>367.84</ele>
        <time>2016-12-04T13:14:48Z</time>
      </trkpt>
      <trkpt lat="43.23154" lon="0.87104">
        <ele>370.73</ele>
        <time>2016-12-04T13:15:00Z</time>
      </trkpt>
      <trkpt lat="43.23154" lon="0.87088">
        <ele>373.61</ele>
        <time>2016-12-04T13:15:13Z</time>
      </trkpt>
      <trkpt lat="43.23157" lon="0.8708">
        <ele>376.01</ele>
        <time>2016-12-04T13:15:24Z</time>
      </trkpt>
      <trkpt lat="43.23163" lon="0.87074">
        <ele>377.94</ele>
        <time>2016-12-04T13:15:36Z</time>
      </trkpt>
      <trkpt lat="43.23169" lon="0.87066">
        <ele>380.34</ele>
        <time>2016-12-04T13:15:48Z</time>
      </trkpt>
      <trkpt lat="43.23177" lon="0.87053">
        <ele>382.74</ele>
        <time>2016-12-04T13:16:03Z</time>
      </trkpt>
      <trkpt lat="43.23185" lon="0.87047">
        <ele>384.66</ele>
        <time>2016-12-04T13:16:13Z</time>
      </trkpt>
      <trkpt lat="43.2319" lon="0.87046">
        <ele>385.15</ele>
        <time>2016-12-04T13:16:23Z</time>
      </trkpt>
      <trkpt lat="43.23188" lon="0.87044">
        <ele>388.03</ele>
        <time>2016-12-04T13:16:34Z</time>
      </trkpt>
      <trkpt lat="43.23188" lon="0.87044">
        <ele>387.55</ele>
        <time>2016-12-04T13:16:35Z</time>
      </trkpt>
      <trkpt lat="43.23188" lon="0.87044">
        <ele>384.18</ele>
        <time>2016-12-04T13:16:36Z</time>
      </trkpt>
      <trkpt lat="43.23188" lon="0.87044">
        <ele>386.11</ele>
        <time>2016-12-04T13:16:37Z</time>
      </trkpt>
      <trkpt lat="43.23187" lon="0.87043">
        <ele>385.15</ele>
        <time>2016-12-04T13:16:51Z</time>
      </trkpt>
      <trkpt lat="43.23189" lon="0.87033">
        <ele>385.63</ele>
        <time>2016-12-04T13:17:05Z</time>
      </trkpt>
      <trkpt lat="43.23188" lon="0.87039">
        <ele>385.63</ele>
        <time>2016-12-04T13:17:27Z</time>
      </trkpt>
      <trkpt lat="43.23184" lon="0.87044">
        <ele>385.63</ele>
        <time>2016-12-04T13:17:55Z</time>
      </trkpt>
      <trkpt lat="43.23199" lon="0.87032">
        <ele>386.11</ele>
        <time>2016-12-04T13:18:07Z</time>
      </trkpt>
      <trkpt lat="43.23202" lon="0.87028">
        <ele>386.11</ele>
        <time>2016-12-04T13:18:26Z</time>
      </trkpt>
      <trkpt lat="43.23207" lon="0.87022">
        <ele>386.59</ele>
        <time>2016-12-04T13:18:41Z</time>
      </trkpt>
      <trkpt lat="43.23218" lon="0.87009">
        <ele>389.47</ele>
        <time>2016-12-04T13:18:54Z</time>
      </trkpt>
      <trkpt lat="43.23225" lon="0.87005">
        <ele>390.43</ele>
        <time>2016-12-04T13:19:04Z</time>
      </trkpt>
      <trkpt lat="43.23231" lon="0.86999">
        <ele>388.03</ele>
        <time>2016-12-04T13:19:15Z</time>
      </trkpt>
      <trkpt lat="43.23246" lon="0.86989">
        <ele>386.11</ele>
        <time>2016-12-04T13:19:29Z</time>
      </trkpt>
      <trkpt lat="43.23248" lon="0.86987">
        <ele>385.63</ele>
        <time>2016-12-04T13:19:32Z</time>
      </trkpt>
      <trkpt lat="43.23263" lon="0.86987">
        <ele>384.18</ele>
        <time>2016-12-04T13:19:43Z</time>
      </trkpt>
      <trkpt lat="43.23273" lon="0.86983">
        <ele>384.66</ele>
        <time>2016-12-04T13:19:53Z</time>
      </trkpt>
      <trkpt lat="43.23281" lon="0.86983">
        <ele>385.63</ele>
        <time>2016-12-04T13:20:02Z</time>
      </trkpt>
      <trkpt lat="43.23281" lon="0.86984">
        <ele>385.15</ele>
        <time>2016-12-04T13:20:03Z</time>
      </trkpt>
      <trkpt lat="43.23284" lon="0.86989">
        <ele>387.07</ele>
        <time>2016-12-04T13:20:08Z</time>
      </trkpt>
      <trkpt lat="43.23286" lon="0.86993">
        <ele>386.59</ele>
        <time>2016-12-04T13:20:12Z</time>
      </trkpt>
      <trkpt lat="43.23292" lon="0.86997">
        <ele>386.59</ele>
        <time>2016-12-04T13:20:18Z</time>
      </trkpt>
      <trkpt lat="43.23302" lon="0.86998">
        <ele>387.55</ele>
        <time>2016-12-04T13:20:30Z</time>
      </trkpt>
      <trkpt lat="43.23309" lon="0.86996">
        <ele>386.59</ele>
        <time>2016-12-04T13:20:38Z</time>
      </trkpt>
      <trkpt lat="43.23313" lon="0.86996">
        <ele>386.59</ele>
        <time>2016-12-04T13:20:40Z</time>
      </trkpt>
      <trkpt lat="43.23331" lon="0.86994">
        <ele>386.11</ele>
        <time>2016-12-04T13:20:52Z</time>
      </trkpt>
      <trkpt lat="43.23337" lon="0.86991">
        <ele>386.11</ele>
        <time>2016-12-04T13:20:56Z</time>
      </trkpt>
      <trkpt lat="43.23351" lon="0.86982">
        <ele>385.15</ele>
        <time>2016-12-04T13:21:07Z</time>
      </trkpt>
      <trkpt lat="43.23367" lon="0.86976">
        <ele>385.63</ele>
        <time>2016-12-04T13:21:20Z</time>
      </trkpt>
      <trkpt lat="43.23376" lon="0.86967">
        <ele>386.11</ele>
        <time>2016-12-04T13:21:31Z</time>
      </trkpt>
      <trkpt lat="43.23391" lon="0.86957">
        <ele>387.07</ele>
        <time>2016-12-04T13:21:45Z</time>
      </trkpt>
      <trkpt lat="43.23397" lon="0.86954">
        <ele>388.51</ele>
        <time>2016-12-04T13:21:53Z</time>
      </trkpt>
      <trkpt lat="43.23408" lon="0.8695">
        <ele>388.99</ele>
        <time>2016-12-04T13:22:04Z</time>
      </trkpt>
      <trkpt lat="43.2342" lon="0.86937">
        <ele>388.51</ele>
        <time>2016-12-04T13:22:15Z</time>
      </trkpt>
      <trkpt lat="43.23432" lon="0.86926">
        <ele>387.07</ele>
        <time>2016-12-04T13:22:27Z</time>
      </trkpt>
      <trkpt lat="43.23444" lon="0.86914">
        <ele>385.15</ele>
        <time>2016-12-04T13:22:40Z</time>
      </trkpt>
      <trkpt lat="43.23456" lon="0.86906">
        <ele>385.63</ele>
        <time>2016-12-04T13:22:50Z</time>
      </trkpt>
      <trkpt lat="43.23469" lon="0.86891">
        <ele>386.59</ele>
        <time>2016-12-04T13:23:02Z</time>
      </trkpt>
      <trkpt lat="43.23476" lon="0.86878">
        <ele>388.03</ele>
        <time>2016-12-04T13:23:12Z</time>
      </trkpt>
      <trkpt lat="43.23479" lon="0.86864">
        <ele>390.43</ele>
        <time>2016-12-04T13:23:24Z</time>
      </trkpt>
      <trkpt lat="43.23484" lon="0.86847">
        <ele>391.39</ele>
        <time>2016-12-04T13:23:37Z</time>
      </trkpt>
      <trkpt lat="43.23493" lon="0.8683">
        <ele>393.8</ele>
        <time>2016-12-04T13:23:50Z</time>
      </trkpt>
      <trkpt lat="43.23499" lon="0.86816">
        <ele>396.2</ele>
        <time>2016-12-04T13:24:02Z</time>
      </trkpt>
      <trkpt lat="43.23501" lon="0.86802">
        <ele>399.08</ele>
        <time>2016-12-04T13:24:14Z</time>
      </trkpt>
      <trkpt lat="43.23504" lon="0.86792">
        <ele>401.01</ele>
        <time>2016-12-04T13:24:24Z</time>
      </trkpt>
      <trkpt lat="43.23503" lon="0.86772">
        <ele>403.41</ele>
        <time>2016-12-04T13:24:36Z</time>
      </trkpt>
      <trkpt lat="43.2349" lon="0.86767">
        <ele>404.85</ele>
        <time>2016-12-04T13:24:49Z</time>
      </trkpt>
      <trkpt lat="43.23486" lon="0.86765">
        <ele>405.81</ele>
        <time>2016-12-04T13:25:01Z</time>
      </trkpt>
      <trkpt lat="43.2348" lon="0.86768">
        <ele>406.77</ele>
        <time>2016-12-04T13:25:12Z</time>
      </trkpt>
      <trkpt lat="43.23484" lon="0.86769">
        <ele>406.29</ele>
        <time>2016-12-04T13:25:27Z</time>
      </trkpt>
      <trkpt lat="43.23491" lon="0.86771">
        <ele>406.29</ele>
        <time>2016-12-04T13:25:50Z</time>
      </trkpt>
      <trkpt lat="43.23479" lon="0.86776">
        <ele>407.26</ele>
        <time>2016-12-04T13:26:06Z</time>
      </trkpt>
      <trkpt lat="43.2347" lon="0.86786">
        <ele>409.66</ele>
        <time>2016-12-04T13:26:17Z</time>
      </trkpt>
      <trkpt lat="43.23461" lon="0.86797">
        <ele>411.58</ele>
        <time>2016-12-04T13:26:30Z</time>
      </trkpt>
      <trkpt lat="43.23452" lon="0.86804">
        <ele>413.5</ele>
        <time>2016-12-04T13:26:41Z</time>
      </trkpt>
      <trkpt lat="43.23444" lon="0.86804">
        <ele>416.39</ele>
        <time>2016-12-04T13:26:52Z</time>
      </trkpt>
      <trkpt lat="43.23435" lon="0.86808">
        <ele>419.27</ele>
        <time>2016-12-04T13:27:04Z</time>
      </trkpt>
      <trkpt lat="43.23427" lon="0.86814">
        <ele>420.71</ele>
        <time>2016-12-04T13:27:14Z</time>
      </trkpt>
      <trkpt lat="43.23415" lon="0.8682">
        <ele>423.6</ele>
        <time>2016-12-04T13:27:27Z</time>
      </trkpt>
      <trkpt lat="43.23405" lon="0.86826">
        <ele>425.04</ele>
        <time>2016-12-04T13:27:38Z</time>
      </trkpt>
      <trkpt lat="43.23396" lon="0.86831">
        <ele>426.96</ele>
        <time>2016-12-04T13:27:49Z</time>
      </trkpt>
      <trkpt lat="43.23397" lon="0.86834">
        <ele>426.96</ele>
        <time>2016-12-04T13:28:02Z</time>
      </trkpt>
      <trkpt lat="43.23401" lon="0.86835">
        <ele>426.96</ele>
        <time>2016-12-04T13:28:23Z</time>
      </trkpt>
      <trkpt lat="43.23393" lon="0.86833">
        <ele>427.44</ele>
        <time>2016-12-04T13:28:34Z</time>
      </trkpt>
      <trkpt lat="43.23381" lon="0.86839">
        <ele>429.37</ele>
        <time>2016-12-04T13:28:47Z</time>
      </trkpt>
      <trkpt lat="43.23376" lon="0.8684">
        <ele>429.85</ele>
        <time>2016-12-04T13:28:53Z</time>
      </trkpt>
      <trkpt lat="43.23361" lon="0.86838">
        <ele>430.81</ele>
        <time>2016-12-04T13:29:05Z</time>
      </trkpt>
      <trkpt lat="43.2336" lon="0.86838">
        <ele>430.81</ele>
        <time>2016-12-04T13:29:06Z</time>
      </trkpt>
      <trkpt lat="43.23351" lon="0.86841">
        <ele>431.29</ele>
        <time>2016-12-04T13:29:14Z</time>
      </trkpt>
      <trkpt lat="43.23349" lon="0.86843">
        <ele>431.29</ele>
        <time>2016-12-04T13:29:16Z</time>
      </trkpt>
      <trkpt lat="43.2334" lon="0.86849">
        <ele>431.77</ele>
        <time>2016-12-04T13:29:28Z</time>
      </trkpt>
      <trkpt lat="43.23339" lon="0.86848">
        <ele>432.25</ele>
        <time>2016-12-04T13:29:38Z</time>
      </trkpt>
      <trkpt lat="43.23338" lon="0.86848">
        <ele>430.81</ele>
        <time>2016-12-04T13:30:02Z</time>
      </trkpt>
      <trkpt lat="43.23332" lon="0.86843">
        <ele>431.77</ele>
        <time>2016-12-04T13:30:18Z</time>
      </trkpt>
      <trkpt lat="43.23329" lon="0.8684">
        <ele>431.29</ele>
        <time>2016-12-04T13:30:30Z</time>
      </trkpt>
      <trkpt lat="43.23327" lon="0.86843">
        <ele>431.29</ele>
        <time>2016-12-04T13:30:43Z</time>
      </trkpt>
      <trkpt lat="43.2333" lon="0.86846">
        <ele>430.81</ele>
        <time>2016-12-04T13:31:05Z</time>
      </trkpt>
      <trkpt lat="43.23329" lon="0.86845">
        <ele>431.29</ele>
        <time>2016-12-04T13:31:32Z</time>
      </trkpt>
      <trkpt lat="43.23325" lon="0.86837">
        <ele>430.81</ele>
        <time>2016-12-04T13:31:43Z</time>
      </trkpt>
      <trkpt lat="43.23319" lon="0.86829">
        <ele>429.37</ele>
        <time>2016-12-04T13:31:55Z</time>
      </trkpt>
      <trkpt lat="43.23311" lon="0.86825">
        <ele>428.89</ele>
        <time>2016-12-04T13:32:04Z</time>
      </trkpt>
      <trkpt lat="43.23297" lon="0.86821">
        <ele>427.92</ele>
        <time>2016-12-04T13:32:17Z</time>
      </trkpt>
      <trkpt lat="43.23284" lon="0.86818">
        <ele>427.44</ele>
        <time>2016-12-04T13:32:29Z</time>
      </trkpt>
      <trkpt lat="43.23272" lon="0.86818">
        <ele>426.48</ele>
        <time>2016-12-04T13:32:41Z</time>
      </trkpt>
      <trkpt lat="43.2326" lon="0.86823">
        <ele>426.48</ele>
        <time>2016-12-04T13:32:50Z</time>
      </trkpt>
      <trkpt lat="43.23243" lon="0.86824">
        <ele>425.04</ele>
        <time>2016-12-04T13:33:04Z</time>
      </trkpt>
      <trkpt lat="43.23241" lon="0.86824">
        <ele>425.04</ele>
        <time>2016-12-04T13:33:06Z</time>
      </trkpt>
      <trkpt lat="43.2323" lon="0.86821">
        <ele>424.08</ele>
        <time>2016-12-04T13:33:18Z</time>
      </trkpt>
      <trkpt lat="43.23219" lon="0.86815">
        <ele>424.56</ele>
        <time>2016-12-04T13:33:29Z</time>
      </trkpt>
      <trkpt lat="43.2321" lon="0.86817">
        <ele>423.6</ele>
        <time>2016-12-04T13:33:37Z</time>
      </trkpt>
      <trkpt lat="43.23196" lon="0.86805">
        <ele>424.08</ele>
        <time>2016-12-04T13:33:50Z</time>
      </trkpt>
      <trkpt lat="43.23182" lon="0.86796">
        <ele>423.12</ele>
        <time>2016-12-04T13:34:01Z</time>
      </trkpt>
      <trkpt lat="43.23167" lon="0.86785">
        <ele>422.16</ele>
        <time>2016-12-04T13:34:12Z</time>
      </trkpt>
      <trkpt lat="43.23158" lon="0.86786">
        <ele>422.16</ele>
        <time>2016-12-04T13:34:19Z</time>
      </trkpt>
      <trkpt lat="43.23145" lon="0.868">
        <ele>423.12</ele>
        <time>2016-12-04T13:34:33Z</time>
      </trkpt>
      <trkpt lat="43.23135" lon="0.86802">
        <ele>423.12</ele>
        <time>2016-12-04T13:34:42Z</time>
      </trkpt>
      <trkpt lat="43.2312" lon="0.86799">
        <ele>420.71</ele>
        <time>2016-12-04T13:34:57Z</time>
      </trkpt>
      <trkpt lat="43.23109" lon="0.86793">
        <ele>419.75</ele>
        <time>2016-12-04T13:35:07Z</time>
      </trkpt>
      <trkpt lat="43.23096" lon="0.86791">
        <ele>417.83</ele>
        <time>2016-12-04T13:35:19Z</time>
      </trkpt>
      <trkpt lat="43.23087" lon="0.86787">
        <ele>416.39</ele>
        <time>2016-12-04T13:35:27Z</time>
      </trkpt>
      <trkpt lat="43.23077" lon="0.86777">
        <ele>413.5</ele>
        <time>2016-12-04T13:35:40Z</time>
      </trkpt>
      <trkpt lat="43.23075" lon="0.86775">
        <ele>413.02</ele>
        <time>2016-12-04T13:35:44Z</time>
      </trkpt>
      <trkpt lat="43.2307" lon="0.86773">
        <ele>412.06</ele>
        <time>2016-12-04T13:35:48Z</time>
      </trkpt>
      <trkpt lat="43.2306" lon="0.86774">
        <ele>411.1</ele>
        <time>2016-12-04T13:35:59Z</time>
      </trkpt>
      <trkpt lat="43.23048" lon="0.86771">
        <ele>409.18</ele>
        <time>2016-12-04T13:36:11Z</time>
      </trkpt>
      <trkpt lat="43.23036" lon="0.86763">
        <ele>407.74</ele>
        <time>2016-12-04T13:36:23Z</time>
      </trkpt>
      <trkpt lat="43.23031" lon="0.86763">
        <ele>405.33</ele>
        <time>2016-12-04T13:36:34Z</time>
      </trkpt>
      <trkpt lat="43.23026" lon="0.86764">
        <ele>401.97</ele>
        <time>2016-12-04T13:36:41Z</time>
      </trkpt>
      <trkpt lat="43.23025" lon="0.86765">
        <ele>406.77</ele>
        <time>2016-12-04T13:36:42Z</time>
      </trkpt>
      <trkpt lat="43.23023" lon="0.86763">
        <ele>404.37</ele>
        <time>2016-12-04T13:36:56Z</time>
      </trkpt>
      <trkpt lat="43.23018" lon="0.86756">
        <ele>403.41</ele>
        <time>2016-12-04T13:37:07Z</time>
      </trkpt>
      <trkpt lat="43.23015" lon="0.86744">
        <ele>400.05</ele>
        <time>2016-12-04T13:37:16Z</time>
      </trkpt>
      <trkpt lat="43.2301" lon="0.86732">
        <ele>397.64</ele>
        <time>2016-12-04T13:37:29Z</time>
      </trkpt>
      <trkpt lat="43.23005" lon="0.86722">
        <ele>395.72</ele>
        <time>2016-12-04T13:37:40Z</time>
      </trkpt>
      <trkpt lat="43.23003" lon="0.86717">
        <ele>394.28</ele>
        <time>2016-12-04T13:37:45Z</time>
      </trkpt>
      <trkpt lat="43.22997" lon="0.86704">
        <ele>391.39</ele>
        <time>2016-12-04T13:37:57Z</time>
      </trkpt>
      <trkpt lat="43.22993" lon="0.8669">
        <ele>388.51</ele>
        <time>2016-12-04T13:38:09Z</time>
      </trkpt>
      <trkpt lat="43.22985" lon="0.86683">
        <ele>386.59</ele>
        <time>2016-12-04T13:38:19Z</time>
      </trkpt>
      <trkpt lat="43.22971" lon="0.86684">
        <ele>385.15</ele>
        <time>2016-12-04T13:38:30Z</time>
      </trkpt>
      <trkpt lat="43.22968" lon="0.86684">
        <ele>385.15</ele>
        <time>2016-12-04T13:38:32Z</time>
      </trkpt>
      <trkpt lat="43.22965" lon="0.86684">
        <ele>384.18</ele>
        <time>2016-12-04T13:38:34Z</time>
      </trkpt>
      <trkpt lat="43.22951" lon="0.86682">
        <ele>382.74</ele>
        <time>2016-12-04T13:38:44Z</time>
      </trkpt>
      <trkpt lat="43.22945" lon="0.86684">
        <ele>382.26</ele>
        <time>2016-12-04T13:38:55Z</time>
      </trkpt>
      <trkpt lat="43.22942" lon="0.86685">
        <ele>382.26</ele>
        <time>2016-12-04T13:39:05Z</time>
      </trkpt>
      <trkpt lat="43.22934" lon="0.86685">
        <ele>380.82</ele>
        <time>2016-12-04T13:39:17Z</time>
      </trkpt>
      <trkpt lat="43.2292" lon="0.86689">
        <ele>380.34</ele>
        <time>2016-12-04T13:39:29Z</time>
      </trkpt>
      <trkpt lat="43.22907" lon="0.86689">
        <ele>378.42</ele>
        <time>2016-12-04T13:39:43Z</time>
      </trkpt>
      <trkpt lat="43.22892" lon="0.86693">
        <ele>376.49</ele>
        <time>2016-12-04T13:39:58Z</time>
      </trkpt>
      <trkpt lat="43.22879" lon="0.86688">
        <ele>374.09</ele>
        <time>2016-12-04T13:40:10Z</time>
      </trkpt>
      <trkpt lat="43.22869" lon="0.8669">
        <ele>375.05</ele>
        <time>2016-12-04T13:40:22Z</time>
      </trkpt>
      <trkpt lat="43.22858" lon="0.86702">
        <ele>376.01</ele>
        <time>2016-12-04T13:40:35Z</time>
      </trkpt>
      <trkpt lat="43.22857" lon="0.86703">
        <ele>376.01</ele>
        <time>2016-12-04T13:40:36Z</time>
      </trkpt>
      <trkpt lat="43.22843" lon="0.86717">
        <ele>376.97</ele>
        <time>2016-12-04T13:40:50Z</time>
      </trkpt>
      <trkpt lat="43.22833" lon="0.86726">
        <ele>377.45</ele>
        <time>2016-12-04T13:41:03Z</time>
      </trkpt>
      <trkpt lat="43.22823" lon="0.86737">
        <ele>378.42</ele>
        <time>2016-12-04T13:41:15Z</time>
      </trkpt>
      <trkpt lat="43.22819" lon="0.86741">
        <ele>377.94</ele>
        <time>2016-12-04T13:41:19Z</time>
      </trkpt>
      <trkpt lat="43.22808" lon="0.86752">
        <ele>378.9</ele>
        <time>2016-12-04T13:41:31Z</time>
      </trkpt>
      <trkpt lat="43.22796" lon="0.86765">
        <ele>379.38</ele>
        <time>2016-12-04T13:41:44Z</time>
      </trkpt>
      <trkpt lat="43.22785" lon="0.86775">
        <ele>379.86</ele>
        <time>2016-12-04T13:41:57Z</time>
      </trkpt>
      <trkpt lat="43.22773" lon="0.86786">
        <ele>380.82</ele>
        <time>2016-12-04T13:42:10Z</time>
      </trkpt>
      <trkpt lat="43.22762" lon="0.86796">
        <ele>381.3</ele>
        <time>2016-12-04T13:42:22Z</time>
      </trkpt>
      <trkpt lat="43.22753" lon="0.86808">
        <ele>382.26</ele>
        <time>2016-12-04T13:42:35Z</time>
      </trkpt>
      <trkpt lat="43.22742" lon="0.86824">
        <ele>382.74</ele>
        <time>2016-12-04T13:42:48Z</time>
      </trkpt>
      <trkpt lat="43.22733" lon="0.86834">
        <ele>383.22</ele>
        <time>2016-12-04T13:43:00Z</time>
      </trkpt>
      <trkpt lat="43.22726" lon="0.86842">
        <ele>383.7</ele>
        <time>2016-12-04T13:43:11Z</time>
      </trkpt>
      <trkpt lat="43.22715" lon="0.86857">
        <ele>383.7</ele>
        <time>2016-12-04T13:43:24Z</time>
      </trkpt>
      <trkpt lat="43.22704" lon="0.86871">
        <ele>385.15</ele>
        <time>2016-12-04T13:43:37Z</time>
      </trkpt>
      <trkpt lat="43.22695" lon="0.86879">
        <ele>385.63</ele>
        <time>2016-12-04T13:43:48Z</time>
      </trkpt>
      <trkpt lat="43.22687" lon="0.86891">
        <ele>386.11</ele>
        <time>2016-12-04T13:44:00Z</time>
      </trkpt>
      <trkpt lat="43.22678" lon="0.86902">
        <ele>388.03</ele>
        <time>2016-12-04T13:44:11Z</time>
      </trkpt>
      <trkpt lat="43.22666" lon="0.86914">
        <ele>388.51</ele>
        <time>2016-12-04T13:44:24Z</time>
      </trkpt>
      <trkpt lat="43.22654" lon="0.86928">
        <ele>389.95</ele>
        <time>2016-12-04T13:44:38Z</time>
      </trkpt>
      <trkpt lat="43.22645" lon="0.86936">
        <ele>390.43</ele>
        <time>2016-12-04T13:44:49Z</time>
      </trkpt>
      <trkpt lat="43.22634" lon="0.86947">
        <ele>391.39</ele>
        <time>2016-12-04T13:45:01Z</time>
      </trkpt>
      <trkpt lat="43.22626" lon="0.86957">
        <ele>392.84</ele>
        <time>2016-12-04T13:45:11Z</time>
      </trkpt>
      <trkpt lat="43.22618" lon="0.86967">
        <ele>392.84</ele>
        <time>2016-12-04T13:45:23Z</time>
      </trkpt>
      <trkpt lat="43.22609" lon="0.86977">
        <ele>393.8</ele>
        <time>2016-12-04T13:45:35Z</time>
      </trkpt>
      <trkpt lat="43.22596" lon="0.86994">
        <ele>395.24</ele>
        <time>2016-12-04T13:45:46Z</time>
      </trkpt>
      <trkpt lat="43.2259" lon="0.87004">
        <ele>395.72</ele>
        <time>2016-12-04T13:45:57Z</time>
      </trkpt>
      <trkpt lat="43.22578" lon="0.87017">
        <ele>397.16</ele>
        <time>2016-12-04T13:46:12Z</time>
      </trkpt>
      <trkpt lat="43.22569" lon="0.87028">
        <ele>397.64</ele>
        <time>2016-12-04T13:46:23Z</time>
      </trkpt>
      <trkpt lat="43.22557" lon="0.87041">
        <ele>398.6</ele>
        <time>2016-12-04T13:46:35Z</time>
      </trkpt>
      <trkpt lat="43.22548" lon="0.87057">
        <ele>400.53</ele>
        <time>2016-12-04T13:46:50Z</time>
      </trkpt>
      <trkpt lat="43.22543" lon="0.87067">
        <ele>402.45</ele>
        <time>2016-12-04T13:46:59Z</time>
      </trkpt>
      <trkpt lat="43.22541" lon="0.8707">
        <ele>401.01</ele>
        <time>2016-12-04T13:47:01Z</time>
      </trkpt>
      <trkpt lat="43.22533" lon="0.87073">
        <ele>400.05</ele>
        <time>2016-12-04T13:47:12Z</time>
      </trkpt>
      <trkpt lat="43.22527" lon="0.87065">
        <ele>398.6</ele>
        <time>2016-12-04T13:47:23Z</time>
      </trkpt>
      <trkpt lat="43.22519" lon="0.87051">
        <ele>399.08</ele>
        <time>2016-12-04T13:47:38Z</time>
      </trkpt>
      <trkpt lat="43.22508" lon="0.87033">
        <ele>399.08</ele>
        <time>2016-12-04T13:47:51Z</time>
      </trkpt>
      <trkpt lat="43.22505" lon="0.87029">
        <ele>399.57</ele>
        <time>2016-12-04T13:47:55Z</time>
      </trkpt>
      <trkpt lat="43.22504" lon="0.87025">
        <ele>400.05</ele>
        <time>2016-12-04T13:48:04Z</time>
      </trkpt>
      <trkpt lat="43.22504" lon="0.87013">
        <ele>400.05</ele>
        <time>2016-12-04T13:48:15Z</time>
      </trkpt>
      <trkpt lat="43.22501" lon="0.86991">
        <ele>400.05</ele>
        <time>2016-12-04T13:48:30Z</time>
      </trkpt>
      <trkpt lat="43.22499" lon="0.86971">
        <ele>399.57</ele>
        <time>2016-12-04T13:48:43Z</time>
      </trkpt>
      <trkpt lat="43.225" lon="0.86955">
        <ele>397.64</ele>
        <time>2016-12-04T13:48:54Z</time>
      </trkpt>
      <trkpt lat="43.22501" lon="0.86934">
        <ele>395.24</ele>
        <time>2016-12-04T13:49:07Z</time>
      </trkpt>
      <trkpt lat="43.22507" lon="0.86915">
        <ele>394.28</ele>
        <time>2016-12-04T13:49:19Z</time>
      </trkpt>
      <trkpt lat="43.22508" lon="0.86901">
        <ele>393.8</ele>
        <time>2016-12-04T13:49:27Z</time>
      </trkpt>
      <trkpt lat="43.22502" lon="0.86887">
        <ele>394.28</ele>
        <time>2016-12-04T13:49:39Z</time>
      </trkpt>
      <trkpt lat="43.22502" lon="0.86873">
        <ele>393.8</ele>
        <time>2016-12-04T13:49:49Z</time>
      </trkpt>
      <trkpt lat="43.22504" lon="0.86853">
        <ele>392.36</ele>
        <time>2016-12-04T13:50:01Z</time>
      </trkpt>
      <trkpt lat="43.22507" lon="0.86839">
        <ele>391.87</ele>
        <time>2016-12-04T13:50:12Z</time>
      </trkpt>
      <trkpt lat="43.22514" lon="0.86819">
        <ele>391.39</ele>
        <time>2016-12-04T13:50:25Z</time>
      </trkpt>
      <trkpt lat="43.22518" lon="0.86801">
        <ele>390.91</ele>
        <time>2016-12-04T13:50:37Z</time>
      </trkpt>
      <trkpt lat="43.2252" lon="0.86781">
        <ele>389.95</ele>
        <time>2016-12-04T13:50:51Z</time>
      </trkpt>
      <trkpt lat="43.22525" lon="0.86761">
        <ele>388.51</ele>
        <time>2016-12-04T13:51:01Z</time>
      </trkpt>
      <trkpt lat="43.22529" lon="0.86742">
        <ele>386.59</ele>
        <time>2016-12-04T13:51:13Z</time>
      </trkpt>
      <trkpt lat="43.22532" lon="0.86724">
        <ele>384.66</ele>
        <time>2016-12-04T13:51:24Z</time>
      </trkpt>
      <trkpt lat="43.22533" lon="0.86707">
        <ele>383.7</ele>
        <time>2016-12-04T13:51:35Z</time>
      </trkpt>
      <trkpt lat="43.22534" lon="0.86701">
        <ele>382.26</ele>
        <time>2016-12-04T13:51:38Z</time>
      </trkpt>
      <trkpt lat="43.22523" lon="0.86691">
        <ele>382.26</ele>
        <time>2016-12-04T13:51:50Z</time>
      </trkpt>
      <trkpt lat="43.22513" lon="0.86683">
        <ele>379.86</ele>
        <time>2016-12-04T13:52:01Z</time>
      </trkpt>
      <trkpt lat="43.2251" lon="0.86682">
        <ele>379.38</ele>
        <time>2016-12-04T13:52:03Z</time>
      </trkpt>
      <trkpt lat="43.22498" lon="0.86683">
        <ele>377.94</ele>
        <time>2016-12-04T13:52:14Z</time>
      </trkpt>
      <trkpt lat="43.22487" lon="0.86687">
        <ele>375.53</ele>
        <time>2016-12-04T13:52:27Z</time>
      </trkpt>
      <trkpt lat="43.22482" lon="0.86687">
        <ele>374.57</ele>
        <time>2016-12-04T13:52:40Z</time>
      </trkpt>
      <trkpt lat="43.22467" lon="0.86691">
        <ele>371.69</ele>
        <time>2016-12-04T13:52:54Z</time>
      </trkpt>
      <trkpt lat="43.22456" lon="0.86693">
        <ele>366.4</ele>
        <time>2016-12-04T13:53:02Z</time>
      </trkpt>
      <trkpt lat="43.22455" lon="0.86693">
        <ele>370.73</ele>
        <time>2016-12-04T13:53:03Z</time>
      </trkpt>
      <trkpt lat="43.22452" lon="0.86692">
        <ele>367.36</ele>
        <time>2016-12-04T13:53:06Z</time>
      </trkpt>
      <trkpt lat="43.22451" lon="0.86691">
        <ele>370.24</ele>
        <time>2016-12-04T13:53:07Z</time>
      </trkpt>
      <trkpt lat="43.2245" lon="0.86684">
        <ele>369.76</ele>
        <time>2016-12-04T13:53:13Z</time>
      </trkpt>
      <trkpt lat="43.2245" lon="0.86682">
        <ele>367.84</ele>
        <time>2016-12-04T13:53:15Z</time>
      </trkpt>
      <trkpt lat="43.2245" lon="0.86673">
        <ele>367.84</ele>
        <time>2016-12-04T13:53:25Z</time>
      </trkpt>
      <trkpt lat="43.22451" lon="0.8667">
        <ele>366.4</ele>
        <time>2016-12-04T13:53:38Z</time>
      </trkpt>
      <trkpt lat="43.22444" lon="0.8667">
        <ele>366.88</ele>
        <time>2016-12-04T13:54:00Z</time>
      </trkpt>
      <trkpt lat="43.22441" lon="0.86668">
        <ele>366.88</ele>
        <time>2016-12-04T13:54:19Z</time>
      </trkpt>
      <trkpt lat="43.22436" lon="0.86669">
        <ele>366.88</ele>
        <time>2016-12-04T13:54:44Z</time>
      </trkpt>
      <trkpt lat="43.22439" lon="0.86669">
        <ele>366.88</ele>
        <time>2016-12-04T13:55:13Z</time>
      </trkpt>
      <trkpt lat="43.22438" lon="0.86669">
        <ele>366.88</ele>
        <time>2016-12-04T13:55:39Z</time>
      </trkpt>
      <trkpt lat="43.22441" lon="0.86667">
        <ele>366.4</ele>
        <time>2016-12-04T13:56:04Z</time>
      </trkpt>
      <trkpt lat="43.22443" lon="0.86664">
        <ele>366.4</ele>
        <time>2016-12-04T13:56:24Z</time>
      </trkpt>
      <trkpt lat="43.22443" lon="0.86655">
        <ele>364.48</ele>
        <time>2016-12-04T13:56:36Z</time>
      </trkpt>
      <trkpt lat="43.22437" lon="0.86636">
        <ele>362.07</ele>
        <time>2016-12-04T13:56:50Z</time>
      </trkpt>
      <trkpt lat="43.22436" lon="0.86619">
        <ele>361.11</ele>
        <time>2016-12-04T13:57:01Z</time>
      </trkpt>
      <trkpt lat="43.22426" lon="0.86605">
        <ele>358.71</ele>
        <time>2016-12-04T13:57:14Z</time>
      </trkpt>
      <trkpt lat="43.22418" lon="0.866">
        <ele>357.27</ele>
        <time>2016-12-04T13:57:26Z</time>
      </trkpt>
      <trkpt lat="43.22417" lon="0.86598">
        <ele>357.27</ele>
        <time>2016-12-04T13:57:28Z</time>
      </trkpt>
      <trkpt lat="43.22407" lon="0.86581">
        <ele>355.34</ele>
        <time>2016-12-04T13:57:42Z</time>
      </trkpt>
      <trkpt lat="43.22402" lon="0.86566">
        <ele>353.9</ele>
        <time>2016-12-04T13:57:55Z</time>
      </trkpt>
      <trkpt lat="43.22402" lon="0.86561">
        <ele>353.9</ele>
        <time>2016-12-04T13:57:58Z</time>
      </trkpt>
      <trkpt lat="43.22402" lon="0.86541">
        <ele>353.9</ele>
        <time>2016-12-04T13:58:10Z</time>
      </trkpt>
      <trkpt lat="43.22399" lon="0.86529">
        <ele>352.94</ele>
        <time>2016-12-04T13:58:18Z</time>
      </trkpt>
      <trkpt lat="43.22394" lon="0.86513">
        <ele>351.02</ele>
        <time>2016-12-04T13:58:29Z</time>
      </trkpt>
      <trkpt lat="43.22393" lon="0.8651">
        <ele>350.06</ele>
        <time>2016-12-04T13:58:31Z</time>
      </trkpt>
      <trkpt lat="43.22388" lon="0.86493">
        <ele>348.13</ele>
        <time>2016-12-04T13:58:42Z</time>
      </trkpt>
      <trkpt lat="43.22384" lon="0.86485">
        <ele>345.73</ele>
        <time>2016-12-04T13:58:48Z</time>
      </trkpt>
      <trkpt lat="43.22381" lon="0.8647">
        <ele>344.77</ele>
        <time>2016-12-04T13:58:58Z</time>
      </trkpt>
      <trkpt lat="43.22379" lon="0.86454">
        <ele>342.85</ele>
        <time>2016-12-04T13:59:08Z</time>
      </trkpt>
      <trkpt lat="43.22381" lon="0.86441">
        <ele>341.89</ele>
        <time>2016-12-04T13:59:19Z</time>
      </trkpt>
      <trkpt lat="43.22381" lon="0.86434">
        <ele>341.41</ele>
        <time>2016-12-04T13:59:23Z</time>
      </trkpt>
      <trkpt lat="43.2238" lon="0.86429">
        <ele>341.41</ele>
        <time>2016-12-04T13:59:26Z</time>
      </trkpt>
      <trkpt lat="43.2238" lon="0.86408">
        <ele>339.48</ele>
        <time>2016-12-04T13:59:37Z</time>
      </trkpt>
      <trkpt lat="43.22378" lon="0.86394">
        <ele>337.08</ele>
        <time>2016-12-04T13:59:49Z</time>
      </trkpt>
      <trkpt lat="43.22379" lon="0.86373">
        <ele>335.64</ele>
        <time>2016-12-04T14:00:02Z</time>
      </trkpt>
      <trkpt lat="43.22378" lon="0.86353">
        <ele>332.75</ele>
        <time>2016-12-04T14:00:16Z</time>
      </trkpt>
      <trkpt lat="43.22369" lon="0.86343">
        <ele>332.75</ele>
        <time>2016-12-04T14:00:29Z</time>
      </trkpt>
      <trkpt lat="43.22368" lon="0.86341">
        <ele>332.27</ele>
        <time>2016-12-04T14:00:38Z</time>
      </trkpt>
      <trkpt lat="43.2236" lon="0.86351">
        <ele>332.75</ele>
        <time>2016-12-04T14:00:48Z</time>
      </trkpt>
      <trkpt lat="43.22357" lon="0.86356">
        <ele>332.75</ele>
        <time>2016-12-04T14:00:53Z</time>
      </trkpt>
      <trkpt lat="43.22351" lon="0.86367">
        <ele>333.23</ele>
        <time>2016-12-04T14:01:03Z</time>
      </trkpt>
      <trkpt lat="43.22349" lon="0.86374">
        <ele>333.23</ele>
        <time>2016-12-04T14:01:08Z</time>
      </trkpt>
      <trkpt lat="43.22348" lon="0.86377">
        <ele>333.71</ele>
        <time>2016-12-04T14:01:10Z</time>
      </trkpt>
      <trkpt lat="43.22343" lon="0.86393">
        <ele>334.2</ele>
        <time>2016-12-04T14:01:21Z</time>
      </trkpt>
      <trkpt lat="43.22338" lon="0.86406">
        <ele>335.16</ele>
        <time>2016-12-04T14:01:31Z</time>
      </trkpt>
      <trkpt lat="43.22333" lon="0.8642">
        <ele>335.16</ele>
        <time>2016-12-04T14:01:41Z</time>
      </trkpt>
      <trkpt lat="43.22332" lon="0.86424">
        <ele>335.16</ele>
        <time>2016-12-04T14:01:44Z</time>
      </trkpt>
      <trkpt lat="43.22328" lon="0.86443">
        <ele>335.16</ele>
        <time>2016-12-04T14:01:55Z</time>
      </trkpt>
      <trkpt lat="43.22326" lon="0.86461">
        <ele>335.16</ele>
        <time>2016-12-04T14:02:06Z</time>
      </trkpt>
      <trkpt lat="43.22322" lon="0.8648">
        <ele>336.12</ele>
        <time>2016-12-04T14:02:17Z</time>
      </trkpt>
      <trkpt lat="43.22312" lon="0.86488">
        <ele>334.2</ele>
        <time>2016-12-04T14:02:28Z</time>
      </trkpt>
      <trkpt lat="43.22314" lon="0.86495">
        <ele>334.68</ele>
        <time>2016-12-04T14:02:42Z</time>
      </trkpt>
      <trkpt lat="43.22317" lon="0.86509">
        <ele>335.16</ele>
        <time>2016-12-04T14:02:52Z</time>
      </trkpt>
      <trkpt lat="43.22315" lon="0.86513">
        <ele>330.83</ele>
        <time>2016-12-04T14:02:58Z</time>
      </trkpt>
      <trkpt lat="43.22315" lon="0.86514">
        <ele>335.64</ele>
        <time>2016-12-04T14:02:59Z</time>
      </trkpt>
      <trkpt lat="43.22314" lon="0.86518">
        <ele>330.83</ele>
        <time>2016-12-04T14:03:03Z</time>
      </trkpt>
      <trkpt lat="43.22314" lon="0.86519">
        <ele>335.16</ele>
        <time>2016-12-04T14:03:04Z</time>
      </trkpt>
      <trkpt lat="43.22314" lon="0.8652">
        <ele>331.79</ele>
        <time>2016-12-04T14:03:06Z</time>
      </trkpt>
      <trkpt lat="43.22313" lon="0.86528">
        <ele>330.83</ele>
        <time>2016-12-04T14:03:14Z</time>
      </trkpt>
      <trkpt lat="43.22312" lon="0.86529">
        <ele>334.2</ele>
        <time>2016-12-04T14:03:15Z</time>
      </trkpt>
      <trkpt lat="43.22312" lon="0.8653">
        <ele>330.83</ele>
        <time>2016-12-04T14:03:16Z</time>
      </trkpt>
      <trkpt lat="43.22299" lon="0.86533">
        <ele>329.39</ele>
        <time>2016-12-04T14:03:30Z</time>
      </trkpt>
      <trkpt lat="43.2229" lon="0.86533">
        <ele>329.87</ele>
        <time>2016-12-04T14:03:44Z</time>
      </trkpt>
      <trkpt lat="43.22289" lon="0.86537">
        <ele>329.39</ele>
        <time>2016-12-04T14:04:00Z</time>
      </trkpt>
      <trkpt lat="43.22289" lon="0.86535">
        <ele>329.39</ele>
        <time>2016-12-04T14:04:24Z</time>
      </trkpt>
      <trkpt lat="43.22289" lon="0.86539">
        <ele>329.39</ele>
        <time>2016-12-04T14:04:48Z</time>
      </trkpt>
      <trkpt lat="43.22288" lon="0.86537">
        <ele>329.39</ele>
        <time>2016-12-04T14:05:05Z</time>
      </trkpt>
      <trkpt lat="43.2229" lon="0.86546">
        <ele>329.87</ele>
        <time>2016-12-04T14:05:21Z</time>
      </trkpt>
      <trkpt lat="43.22288" lon="0.86545">
        <ele>329.39</ele>
        <time>2016-12-04T14:05:34Z</time>
      </trkpt>
      <trkpt lat="43.22286" lon="0.86544">
        <ele>329.39</ele>
        <time>2016-12-04T14:05:55Z</time>
      </trkpt>
      <trkpt lat="43.2229" lon="0.86536">
        <ele>329.39</ele>
        <time>2016-12-04T14:06:18Z</time>
      </trkpt>
      <trkpt lat="43.22289" lon="0.86531">
        <ele>329.39</ele>
        <time>2016-12-04T14:06:45Z</time>
      </trkpt>
      <trkpt lat="43.22289" lon="0.86533">
        <ele>328.91</ele>
        <time>2016-12-04T14:07:08Z</time>
      </trkpt>
      <trkpt lat="43.2229" lon="0.86532">
        <ele>329.39</ele>
        <time>2016-12-04T14:07:22Z</time>
      </trkpt>
      <trkpt lat="43.2229" lon="0.8653">
        <ele>328.43</ele>
        <time>2016-12-04T14:07:44Z</time>
      </trkpt>
      <trkpt lat="43.22291" lon="0.86532">
        <ele>328.91</ele>
        <time>2016-12-04T14:07:59Z</time>
      </trkpt>
      <trkpt lat="43.22289" lon="0.8653">
        <ele>327.95</ele>
        <time>2016-12-04T14:08:11Z</time>
      </trkpt>
      <trkpt lat="43.22286" lon="0.86531">
        <ele>328.43</ele>
        <time>2016-12-04T14:08:29Z</time>
      </trkpt>
      <trkpt lat="43.22287" lon="0.86526">
        <ele>329.39</ele>
        <time>2016-12-04T14:08:46Z</time>
      </trkpt>
      <trkpt lat="43.22285" lon="0.86513">
        <ele>327.95</ele>
        <time>2016-12-04T14:08:56Z</time>
      </trkpt>
      <trkpt lat="43.22279" lon="0.86505">
        <ele>328.43</ele>
        <time>2016-12-04T14:09:07Z</time>
      </trkpt>
      <trkpt lat="43.22282" lon="0.86506">
        <ele>328.43</ele>
        <time>2016-12-04T14:09:16Z</time>
      </trkpt>
      <trkpt lat="43.22288" lon="0.86522">
        <ele>327.95</ele>
        <time>2016-12-04T14:09:30Z</time>
      </trkpt>
      <trkpt lat="43.2229" lon="0.86539">
        <ele>328.91</ele>
        <time>2016-12-04T14:09:40Z</time>
      </trkpt>
      <trkpt lat="43.22292" lon="0.86536">
        <ele>328.43</ele>
        <time>2016-12-04T14:09:50Z</time>
      </trkpt>
      <trkpt lat="43.22288" lon="0.86527">
        <ele>327.95</ele>
        <time>2016-12-04T14:10:00Z</time>
      </trkpt>
      <trkpt lat="43.22287" lon="0.86523">
        <ele>327.47</ele>
        <time>2016-12-04T14:10:15Z</time>
      </trkpt>
      <trkpt lat="43.22285" lon="0.86509">
        <ele>327.95</ele>
        <time>2016-12-04T14:10:27Z</time>
      </trkpt>
      <trkpt lat="43.22275" lon="0.86506">
        <ele>327.47</ele>
        <time>2016-12-04T14:10:40Z</time>
      </trkpt>
      <trkpt lat="43.22274" lon="0.86516">
        <ele>329.87</ele>
        <time>2016-12-04T14:10:51Z</time>
      </trkpt>
      <trkpt lat="43.22275" lon="0.86523">
        <ele>331.79</ele>
        <time>2016-12-04T14:11:01Z</time>
      </trkpt>
      <trkpt lat="43.22274" lon="0.86533">
        <ele>333.71</ele>
        <time>2016-12-04T14:11:10Z</time>
      </trkpt>
      <trkpt lat="43.22271" lon="0.86543">
        <ele>335.16</ele>
        <time>2016-12-04T14:11:20Z</time>
      </trkpt>
      <trkpt lat="43.22268" lon="0.8655">
        <ele>336.12</ele>
        <time>2016-12-04T14:11:29Z</time>
      </trkpt>
      <trkpt lat="43.22272" lon="0.86563">
        <ele>337.56</ele>
        <time>2016-12-04T14:11:40Z</time>
      </trkpt>
      <trkpt lat="43.22272" lon="0.86564">
        <ele>338.04</ele>
        <time>2016-12-04T14:11:59Z</time>
      </trkpt>
      <trkpt lat="43.22266" lon="0.86566">
        <ele>338.52</ele>
        <time>2016-12-04T14:12:08Z</time>
      </trkpt>
      <trkpt lat="43.22262" lon="0.86577">
        <ele>339.48</ele>
        <time>2016-12-04T14:12:17Z</time>
      </trkpt>
      <trkpt lat="43.22264" lon="0.86589">
        <ele>339.96</ele>
        <time>2016-12-04T14:12:26Z</time>
      </trkpt>
      <trkpt lat="43.22264" lon="0.86591">
        <ele>340.92</ele>
        <time>2016-12-04T14:12:29Z</time>
      </trkpt>
      <trkpt lat="43.22264" lon="0.86607">
        <ele>342.85</ele>
        <time>2016-12-04T14:12:41Z</time>
      </trkpt>
      <trkpt lat="43.22265" lon="0.86622">
        <ele>344.29</ele>
        <time>2016-12-04T14:12:52Z</time>
      </trkpt>
      <trkpt lat="43.22266" lon="0.86628">
        <ele>343.33</ele>
        <time>2016-12-04T14:13:04Z</time>
      </trkpt>
      <trkpt lat="43.22261" lon="0.86638">
        <ele>345.25</ele>
        <time>2016-12-04T14:13:16Z</time>
      </trkpt>
      <trkpt lat="43.22259" lon="0.86649">
        <ele>346.21</ele>
        <time>2016-12-04T14:13:25Z</time>
      </trkpt>
      <trkpt lat="43.22252" lon="0.86653">
        <ele>349.1</ele>
        <time>2016-12-04T14:13:34Z</time>
      </trkpt>
      <trkpt lat="43.22244" lon="0.86664">
        <ele>349.58</ele>
        <time>2016-12-04T14:13:44Z</time>
      </trkpt>
      <trkpt lat="43.2224" lon="0.86674">
        <ele>350.54</ele>
        <time>2016-12-04T14:13:56Z</time>
      </trkpt>
      <trkpt lat="43.22239" lon="0.86676">
        <ele>350.54</ele>
        <time>2016-12-04T14:14:01Z</time>
      </trkpt>
      <trkpt lat="43.22233" lon="0.86684">
        <ele>350.54</ele>
        <time>2016-12-04T14:14:09Z</time>
      </trkpt>
      <trkpt lat="43.22228" lon="0.86691">
        <ele>351.5</ele>
        <time>2016-12-04T14:14:20Z</time>
      </trkpt>
      <trkpt lat="43.22222" lon="0.86704">
        <ele>352.94</ele>
        <time>2016-12-04T14:14:31Z</time>
      </trkpt>
      <trkpt lat="43.22215" lon="0.86716">
        <ele>354.38</ele>
        <time>2016-12-04T14:14:40Z</time>
      </trkpt>
      <trkpt lat="43.22209" lon="0.86733">
        <ele>355.34</ele>
        <time>2016-12-04T14:14:52Z</time>
      </trkpt>
      <trkpt lat="43.22202" lon="0.86747">
        <ele>356.31</ele>
        <time>2016-12-04T14:15:04Z</time>
      </trkpt>
      <trkpt lat="43.22195" lon="0.86762">
        <ele>357.75</ele>
        <time>2016-12-04T14:15:15Z</time>
      </trkpt>
      <trkpt lat="43.2219" lon="0.86772">
        <ele>358.23</ele>
        <time>2016-12-04T14:15:26Z</time>
      </trkpt>
      <trkpt lat="43.22186" lon="0.8678">
        <ele>359.19</ele>
        <time>2016-12-04T14:15:36Z</time>
      </trkpt>
      <trkpt lat="43.22187" lon="0.86786">
        <ele>360.15</ele>
        <time>2016-12-04T14:15:53Z</time>
      </trkpt>
      <trkpt lat="43.22191" lon="0.86785">
        <ele>360.15</ele>
        <time>2016-12-04T14:16:07Z</time>
      </trkpt>
      <trkpt lat="43.22188" lon="0.86791">
        <ele>360.15</ele>
        <time>2016-12-04T14:16:24Z</time>
      </trkpt>
      <trkpt lat="43.22183" lon="0.86796">
        <ele>361.11</ele>
        <time>2016-12-04T14:16:34Z</time>
      </trkpt>
      <trkpt lat="43.22174" lon="0.86807">
        <ele>361.59</ele>
        <time>2016-12-04T14:16:46Z</time>
      </trkpt>
      <trkpt lat="43.22167" lon="0.8682">
        <ele>362.07</ele>
        <time>2016-12-04T14:16:58Z</time>
      </trkpt>
      <trkpt lat="43.22161" lon="0.86832">
        <ele>363.04</ele>
        <time>2016-12-04T14:17:08Z</time>
      </trkpt>
      <trkpt lat="43.22153" lon="0.86848">
        <ele>364</ele>
        <time>2016-12-04T14:17:19Z</time>
      </trkpt>
      <trkpt lat="43.22147" lon="0.86863">
        <ele>364.96</ele>
        <time>2016-12-04T14:17:30Z</time>
      </trkpt>
      <trkpt lat="43.22139" lon="0.86881">
        <ele>365.92</ele>
        <time>2016-12-04T14:17:44Z</time>
      </trkpt>
      <trkpt lat="43.22133" lon="0.86895">
        <ele>366.4</ele>
        <time>2016-12-04T14:17:55Z</time>
      </trkpt>
      <trkpt lat="43.22124" lon="0.86908">
        <ele>365.92</ele>
        <time>2016-12-04T14:18:07Z</time>
      </trkpt>
      <trkpt lat="43.2211" lon="0.8692">
        <ele>364.48</ele>
        <time>2016-12-04T14:18:20Z</time>
      </trkpt>
      <trkpt lat="43.221" lon="0.86917">
        <ele>364</ele>
        <time>2016-12-04T14:18:31Z</time>
      </trkpt>
      <trkpt lat="43.22086" lon="0.86925">
        <ele>364.48</ele>
        <time>2016-12-04T14:18:43Z</time>
      </trkpt>
      <trkpt lat="43.22079" lon="0.86933">
        <ele>364.48</ele>
        <time>2016-12-04T14:18:49Z</time>
      </trkpt>
      <trkpt lat="43.22067" lon="0.86949">
        <ele>364.48</ele>
        <time>2016-12-04T14:19:02Z</time>
      </trkpt>
      <trkpt lat="43.22057" lon="0.86968">
        <ele>364.48</ele>
        <time>2016-12-04T14:19:16Z</time>
      </trkpt>
      <trkpt lat="43.22049" lon="0.86987">
        <ele>364.48</ele>
        <time>2016-12-04T14:19:29Z</time>
      </trkpt>
      <trkpt lat="43.2204" lon="0.87002">
        <ele>364.96</ele>
        <time>2016-12-04T14:19:40Z</time>
      </trkpt>
      <trkpt lat="43.22031" lon="0.87012">
        <ele>365.44</ele>
        <time>2016-12-04T14:19:52Z</time>
      </trkpt>
      <trkpt lat="43.22023" lon="0.87032">
        <ele>366.4</ele>
        <time>2016-12-04T14:20:04Z</time>
      </trkpt>
      <trkpt lat="43.22015" lon="0.87046">
        <ele>366.88</ele>
        <time>2016-12-04T14:20:15Z</time>
      </trkpt>
      <trkpt lat="43.22011" lon="0.87054">
        <ele>367.36</ele>
        <time>2016-12-04T14:20:21Z</time>
      </trkpt>
      <trkpt lat="43.22005" lon="0.87074">
        <ele>367.84</ele>
        <time>2016-12-04T14:20:35Z</time>
      </trkpt>
      <trkpt lat="43.22002" lon="0.87091">
        <ele>368.8</ele>
        <time>2016-12-04T14:20:48Z</time>
      </trkpt>
      <trkpt lat="43.21993" lon="0.87111">
        <ele>370.24</ele>
        <time>2016-12-04T14:21:03Z</time>
      </trkpt>
      <trkpt lat="43.21987" lon="0.87126">
        <ele>370.24</ele>
        <time>2016-12-04T14:21:13Z</time>
      </trkpt>
      <trkpt lat="43.21978" lon="0.87142">
        <ele>371.21</ele>
        <time>2016-12-04T14:21:26Z</time>
      </trkpt>
      <trkpt lat="43.21968" lon="0.87156">
        <ele>372.17</ele>
        <time>2016-12-04T14:21:38Z</time>
      </trkpt>
      <trkpt lat="43.2196" lon="0.87166">
        <ele>371.69</ele>
        <time>2016-12-04T14:21:48Z</time>
      </trkpt>
      <trkpt lat="43.21951" lon="0.87182">
        <ele>371.69</ele>
        <time>2016-12-04T14:22:00Z</time>
      </trkpt>
      <trkpt lat="43.21943" lon="0.87196">
        <ele>372.17</ele>
        <time>2016-12-04T14:22:11Z</time>
      </trkpt>
      <trkpt lat="43.21936" lon="0.8721">
        <ele>372.65</ele>
        <time>2016-12-04T14:22:23Z</time>
      </trkpt>
      <trkpt lat="43.21929" lon="0.8722">
        <ele>373.61</ele>
        <time>2016-12-04T14:22:33Z</time>
      </trkpt>
      <trkpt lat="43.21921" lon="0.87236">
        <ele>374.57</ele>
        <time>2016-12-04T14:22:45Z</time>
      </trkpt>
      <trkpt lat="43.21915" lon="0.87251">
        <ele>375.53</ele>
        <time>2016-12-04T14:22:57Z</time>
      </trkpt>
      <trkpt lat="43.2191" lon="0.87264">
        <ele>375.53</ele>
        <time>2016-12-04T14:23:08Z</time>
      </trkpt>
      <trkpt lat="43.21902" lon="0.87276">
        <ele>376.49</ele>
        <time>2016-12-04T14:23:18Z</time>
      </trkpt>
      <trkpt lat="43.21897" lon="0.87293">
        <ele>376.97</ele>
        <time>2016-12-04T14:23:30Z</time>
      </trkpt>
      <trkpt lat="43.21891" lon="0.87304">
        <ele>377.45</ele>
        <time>2016-12-04T14:23:41Z</time>
      </trkpt>
      <trkpt lat="43.2188" lon="0.8732">
        <ele>377.94</ele>
        <time>2016-12-04T14:23:54Z</time>
      </trkpt>
      <trkpt lat="43.21871" lon="0.8733">
        <ele>378.42</ele>
        <time>2016-12-04T14:24:05Z</time>
      </trkpt>
      <trkpt lat="43.21861" lon="0.87343">
        <ele>379.38</ele>
        <time>2016-12-04T14:24:18Z</time>
      </trkpt>
      <trkpt lat="43.21852" lon="0.87352">
        <ele>379.86</ele>
        <time>2016-12-04T14:24:28Z</time>
      </trkpt>
      <trkpt lat="43.21843" lon="0.87366">
        <ele>380.82</ele>
        <time>2016-12-04T14:24:40Z</time>
      </trkpt>
      <trkpt lat="43.2183" lon="0.87373">
        <ele>379.86</ele>
        <time>2016-12-04T14:24:52Z</time>
      </trkpt>
      <trkpt lat="43.2182" lon="0.87375">
        <ele>378.9</ele>
        <time>2016-12-04T14:25:00Z</time>
      </trkpt>
      <trkpt lat="43.2181" lon="0.87385">
        <ele>377.94</ele>
        <time>2016-12-04T14:25:11Z</time>
      </trkpt>
      <trkpt lat="43.21801" lon="0.87394">
        <ele>376.49</ele>
        <time>2016-12-04T14:25:21Z</time>
      </trkpt>
      <trkpt lat="43.21786" lon="0.87405">
        <ele>373.61</ele>
        <time>2016-12-04T14:25:35Z</time>
      </trkpt>
      <trkpt lat="43.21777" lon="0.87415">
        <ele>371.69</ele>
        <time>2016-12-04T14:25:45Z</time>
      </trkpt>
      <trkpt lat="43.21769" lon="0.87424">
        <ele>369.76</ele>
        <time>2016-12-04T14:25:58Z</time>
      </trkpt>
      <trkpt lat="43.21766" lon="0.87428">
        <ele>369.76</ele>
        <time>2016-12-04T14:26:17Z</time>
      </trkpt>
      <trkpt lat="43.21761" lon="0.87441">
        <ele>368.8</ele>
        <time>2016-12-04T14:26:26Z</time>
      </trkpt>
      <trkpt lat="43.21761" lon="0.87457">
        <ele>367.84</ele>
        <time>2016-12-04T14:26:36Z</time>
      </trkpt>
      <trkpt lat="43.21763" lon="0.87467">
        <ele>366.88</ele>
        <time>2016-12-04T14:26:44Z</time>
      </trkpt>
      <trkpt lat="43.21768" lon="0.87487">
        <ele>365.44</ele>
        <time>2016-12-04T14:26:58Z</time>
      </trkpt>
      <trkpt lat="43.21769" lon="0.87504">
        <ele>364</ele>
        <time>2016-12-04T14:27:11Z</time>
      </trkpt>
      <trkpt lat="43.21767" lon="0.87517">
        <ele>362.55</ele>
        <time>2016-12-04T14:27:22Z</time>
      </trkpt>
      <trkpt lat="43.21761" lon="0.87533">
        <ele>362.07</ele>
        <time>2016-12-04T14:27:40Z</time>
      </trkpt>
      <trkpt lat="43.21766" lon="0.87532">
        <ele>362.55</ele>
        <time>2016-12-04T14:27:59Z</time>
      </trkpt>
      <trkpt lat="43.21769" lon="0.87534">
        <ele>362.55</ele>
        <time>2016-12-04T14:28:16Z</time>
      </trkpt>
      <trkpt lat="43.21764" lon="0.87536">
        <ele>362.07</ele>
        <time>2016-12-04T14:28:45Z</time>
      </trkpt>
      <trkpt lat="43.21766" lon="0.87532">
        <ele>362.07</ele>
        <time>2016-12-04T14:29:00Z</time>
      </trkpt>
      <trkpt lat="43.21757" lon="0.87535">
        <ele>361.59</ele>
        <time>2016-12-04T14:29:12Z</time>
      </trkpt>
      <trkpt lat="43.21751" lon="0.87548">
        <ele>359.67</ele>
        <time>2016-12-04T14:29:24Z</time>
      </trkpt>
      <trkpt lat="43.21742" lon="0.87564">
        <ele>355.83</ele>
        <time>2016-12-04T14:29:38Z</time>
      </trkpt>
      <trkpt lat="43.21738" lon="0.87577">
        <ele>353.9</ele>
        <time>2016-12-04T14:29:50Z</time>
      </trkpt>
      <trkpt lat="43.21743" lon="0.87583">
        <ele>353.9</ele>
        <time>2016-12-04T14:30:00Z</time>
      </trkpt>
      <trkpt lat="43.21745" lon="0.87587">
        <ele>353.42</ele>
        <time>2016-12-04T14:30:18Z</time>
      </trkpt>
      <trkpt lat="43.21748" lon="0.87587">
        <ele>353.9</ele>
        <time>2016-12-04T14:30:44Z</time>
      </trkpt>
      <trkpt lat="43.21741" lon="0.87587">
        <ele>354.38</ele>
        <time>2016-12-04T14:30:52Z</time>
      </trkpt>
      <trkpt lat="43.2174" lon="0.87596">
        <ele>354.38</ele>
        <time>2016-12-04T14:31:02Z</time>
      </trkpt>
      <trkpt lat="43.2174" lon="0.876">
        <ele>350.54</ele>
        <time>2016-12-04T14:31:05Z</time>
      </trkpt>
      <trkpt lat="43.2174" lon="0.876">
        <ele>357.27</ele>
        <time>2016-12-04T14:31:06Z</time>
      </trkpt>
      <trkpt lat="43.2174" lon="0.876">
        <ele>356.31</ele>
        <time>2016-12-04T14:31:07Z</time>
      </trkpt>
      <trkpt lat="43.21739" lon="0.876">
        <ele>353.9</ele>
        <time>2016-12-04T14:31:11Z</time>
      </trkpt>
      <trkpt lat="43.21741" lon="0.87608">
        <ele>353.9</ele>
        <time>2016-12-04T14:31:24Z</time>
      </trkpt>
      <trkpt lat="43.21739" lon="0.87606">
        <ele>358.23</ele>
        <time>2016-12-04T14:31:32Z</time>
      </trkpt>
      <trkpt lat="43.21739" lon="0.87606">
        <ele>354.38</ele>
        <time>2016-12-04T14:31:33Z</time>
      </trkpt>
      <trkpt lat="43.21738" lon="0.87607">
        <ele>355.34</ele>
        <time>2016-12-04T14:31:42Z</time>
      </trkpt>
      <trkpt lat="43.21737" lon="0.8761">
        <ele>353.9</ele>
        <time>2016-12-04T14:31:45Z</time>
      </trkpt>
      <trkpt lat="43.2173" lon="0.87617">
        <ele>352.94</ele>
        <time>2016-12-04T14:31:55Z</time>
      </trkpt>
      <trkpt lat="43.21719" lon="0.87622">
        <ele>353.42</ele>
        <time>2016-12-04T14:32:07Z</time>
      </trkpt>
      <trkpt lat="43.2171" lon="0.87631">
        <ele>353.9</ele>
        <time>2016-12-04T14:32:18Z</time>
      </trkpt>
      <trkpt lat="43.21698" lon="0.87644">
        <ele>355.34</ele>
        <time>2016-12-04T14:32:31Z</time>
      </trkpt>
      <trkpt lat="43.21684" lon="0.87657">
        <ele>355.34</ele>
        <time>2016-12-04T14:32:45Z</time>
      </trkpt>
      <trkpt lat="43.21674" lon="0.87667">
        <ele>355.34</ele>
        <time>2016-12-04T14:32:55Z</time>
      </trkpt>
      <trkpt lat="43.2166" lon="0.87683">
        <ele>356.31</ele>
        <time>2016-12-04T14:33:10Z</time>
      </trkpt>
      <trkpt lat="43.21654" lon="0.877">
        <ele>357.27</ele>
        <time>2016-12-04T14:33:21Z</time>
      </trkpt>
      <trkpt lat="43.21649" lon="0.87712">
        <ele>356.79</ele>
        <time>2016-12-04T14:33:32Z</time>
      </trkpt>
      <trkpt lat="43.2164" lon="0.87723">
        <ele>357.27</ele>
        <time>2016-12-04T14:33:41Z</time>
      </trkpt>
      <trkpt lat="43.21632" lon="0.87733">
        <ele>358.23</ele>
        <time>2016-12-04T14:33:53Z</time>
      </trkpt>
      <trkpt lat="43.21627" lon="0.87746">
        <ele>358.23</ele>
        <time>2016-12-04T14:34:03Z</time>
      </trkpt>
      <trkpt lat="43.21618" lon="0.87758">
        <ele>359.19</ele>
        <time>2016-12-04T14:34:17Z</time>
      </trkpt>
      <trkpt lat="43.21609" lon="0.87771">
        <ele>358.71</ele>
        <time>2016-12-04T14:34:29Z</time>
      </trkpt>
      <trkpt lat="43.21602" lon="0.87781">
        <ele>359.67</ele>
        <time>2016-12-04T14:34:40Z</time>
      </trkpt>
      <trkpt lat="43.21595" lon="0.87787">
        <ele>359.67</ele>
        <time>2016-12-04T14:34:51Z</time>
      </trkpt>
      <trkpt lat="43.21583" lon="0.87789">
        <ele>359.67</ele>
        <time>2016-12-04T14:35:03Z</time>
      </trkpt>
      <trkpt lat="43.2157" lon="0.87787">
        <ele>360.15</ele>
        <time>2016-12-04T14:35:15Z</time>
      </trkpt>
      <trkpt lat="43.21556" lon="0.87789">
        <ele>362.07</ele>
        <time>2016-12-04T14:35:28Z</time>
      </trkpt>
      <trkpt lat="43.21553" lon="0.87799">
        <ele>363.52</ele>
        <time>2016-12-04T14:35:38Z</time>
      </trkpt>
      <trkpt lat="43.21554" lon="0.87802">
        <ele>362.55</ele>
        <time>2016-12-04T14:35:55Z</time>
      </trkpt>
      <trkpt lat="43.21553" lon="0.87799">
        <ele>363.52</ele>
        <time>2016-12-04T14:36:19Z</time>
      </trkpt>
      <trkpt lat="43.21551" lon="0.87797">
        <ele>364</ele>
        <time>2016-12-04T14:36:21Z</time>
      </trkpt>
      <trkpt lat="43.21545" lon="0.87796">
        <ele>364</ele>
        <time>2016-12-04T14:36:26Z</time>
      </trkpt>
      <trkpt lat="43.21543" lon="0.87809">
        <ele>365.44</ele>
        <time>2016-12-04T14:36:36Z</time>
      </trkpt>
      <trkpt lat="43.21548" lon="0.87815">
        <ele>366.88</ele>
        <time>2016-12-04T14:36:47Z</time>
      </trkpt>
      <trkpt lat="43.21549" lon="0.87815">
        <ele>366.88</ele>
        <time>2016-12-04T14:36:48Z</time>
      </trkpt>
      <trkpt lat="43.21557" lon="0.87825">
        <ele>369.28</ele>
        <time>2016-12-04T14:37:01Z</time>
      </trkpt>
      <trkpt lat="43.21557" lon="0.87828">
        <ele>369.28</ele>
        <time>2016-12-04T14:37:12Z</time>
      </trkpt>
      <trkpt lat="43.21557" lon="0.87829">
        <ele>369.28</ele>
        <time>2016-12-04T14:37:28Z</time>
      </trkpt>
      <trkpt lat="43.21548" lon="0.8783">
        <ele>369.76</ele>
        <time>2016-12-04T14:37:38Z</time>
      </trkpt>
      <trkpt lat="43.21547" lon="0.87832">
        <ele>369.76</ele>
        <time>2016-12-04T14:37:40Z</time>
      </trkpt>
      <trkpt lat="43.21541" lon="0.87851">
        <ele>369.76</ele>
        <time>2016-12-04T14:37:54Z</time>
      </trkpt>
      <trkpt lat="43.21539" lon="0.87854">
        <ele>369.76</ele>
        <time>2016-12-04T14:37:56Z</time>
      </trkpt>
      <trkpt lat="43.21534" lon="0.87874">
        <ele>369.28</ele>
        <time>2016-12-04T14:38:09Z</time>
      </trkpt>
      <trkpt lat="43.2153" lon="0.87883">
        <ele>369.28</ele>
        <time>2016-12-04T14:38:19Z</time>
      </trkpt>
      <trkpt lat="43.21529" lon="0.87883">
        <ele>368.8</ele>
        <time>2016-12-04T14:38:27Z</time>
      </trkpt>
      <trkpt lat="43.2152" lon="0.87884">
        <ele>369.28</ele>
        <time>2016-12-04T14:38:35Z</time>
      </trkpt>
      <trkpt lat="43.21519" lon="0.87885">
        <ele>369.28</ele>
        <time>2016-12-04T14:38:37Z</time>
      </trkpt>
      <trkpt lat="43.21514" lon="0.87883">
        <ele>365.92</ele>
        <time>2016-12-04T14:38:43Z</time>
      </trkpt>
      <trkpt lat="43.21513" lon="0.87882">
        <ele>372.65</ele>
        <time>2016-12-04T14:38:44Z</time>
      </trkpt>
      <trkpt lat="43.21513" lon="0.87881">
        <ele>369.76</ele>
        <time>2016-12-04T14:38:45Z</time>
      </trkpt>
      <trkpt lat="43.2151" lon="0.87878">
        <ele>369.28</ele>
        <time>2016-12-04T14:38:49Z</time>
      </trkpt>
      <trkpt lat="43.21506" lon="0.87874">
        <ele>366.88</ele>
        <time>2016-12-04T14:38:53Z</time>
      </trkpt>
      <trkpt lat="43.21506" lon="0.87874">
        <ele>370.24</ele>
        <time>2016-12-04T14:38:54Z</time>
      </trkpt>
      <trkpt lat="43.21502" lon="0.87872">
        <ele>369.28</ele>
        <time>2016-12-04T14:38:58Z</time>
      </trkpt>
      <trkpt lat="43.21498" lon="0.87878">
        <ele>370.73</ele>
        <time>2016-12-04T14:39:10Z</time>
      </trkpt>
      <trkpt lat="43.21492" lon="0.87875">
        <ele>370.73</ele>
        <time>2016-12-04T14:39:23Z</time>
      </trkpt>
      <trkpt lat="43.21491" lon="0.87876">
        <ele>371.21</ele>
        <time>2016-12-04T14:39:34Z</time>
      </trkpt>
      <trkpt lat="43.21492" lon="0.87876">
        <ele>370.73</ele>
        <time>2016-12-04T14:39:35Z</time>
      </trkpt>
      <trkpt lat="43.21502" lon="0.87887">
        <ele>369.28</ele>
        <time>2016-12-04T14:39:48Z</time>
      </trkpt>
      <trkpt lat="43.21502" lon="0.87888">
        <ele>373.61</ele>
        <time>2016-12-04T14:39:49Z</time>
      </trkpt>
      <trkpt lat="43.21507" lon="0.87895">
        <ele>370.24</ele>
        <time>2016-12-04T14:39:57Z</time>
      </trkpt>
      <trkpt lat="43.21506" lon="0.87903">
        <ele>372.17</ele>
        <time>2016-12-04T14:40:02Z</time>
      </trkpt>
      <trkpt lat="43.21516" lon="0.87913">
        <ele>373.13</ele>
        <time>2016-12-04T14:40:15Z</time>
      </trkpt>
      <trkpt lat="43.21529" lon="0.8792">
        <ele>374.09</ele>
        <time>2016-12-04T14:40:29Z</time>
      </trkpt>
      <trkpt lat="43.21533" lon="0.87926">
        <ele>374.57</ele>
        <time>2016-12-04T14:40:42Z</time>
      </trkpt>
      <trkpt lat="43.21537" lon="0.8793">
        <ele>375.05</ele>
        <time>2016-12-04T14:40:54Z</time>
      </trkpt>
      <trkpt lat="43.21546" lon="0.87941">
        <ele>376.49</ele>
        <time>2016-12-04T14:41:07Z</time>
      </trkpt>
      <trkpt lat="43.21553" lon="0.87952">
        <ele>377.45</ele>
        <time>2016-12-04T14:41:19Z</time>
      </trkpt>
      <trkpt lat="43.21562" lon="0.87965">
        <ele>378.42</ele>
        <time>2016-12-04T14:41:33Z</time>
      </trkpt>
      <trkpt lat="43.21566" lon="0.87973">
        <ele>378.42</ele>
        <time>2016-12-04T14:41:39Z</time>
      </trkpt>
      <trkpt lat="43.2158" lon="0.87981">
        <ele>379.86</ele>
        <time>2016-12-04T14:41:54Z</time>
      </trkpt>
      <trkpt lat="43.21589" lon="0.87987">
        <ele>380.34</ele>
        <time>2016-12-04T14:42:06Z</time>
      </trkpt>
      <trkpt lat="43.216" lon="0.88">
        <ele>381.3</ele>
        <time>2016-12-04T14:42:18Z</time>
      </trkpt>
      <trkpt lat="43.2161" lon="0.88016">
        <ele>382.74</ele>
        <time>2016-12-04T14:42:32Z</time>
      </trkpt>
      <trkpt lat="43.21622" lon="0.88028">
        <ele>383.22</ele>
        <time>2016-12-04T14:42:44Z</time>
      </trkpt>
      <trkpt lat="43.21626" lon="0.88029">
        <ele>384.18</ele>
        <time>2016-12-04T14:42:49Z</time>
      </trkpt>
      <trkpt lat="43.21634" lon="0.88035">
        <ele>385.15</ele>
        <time>2016-12-04T14:42:58Z</time>
      </trkpt>
      <trkpt lat="43.21643" lon="0.88044">
        <ele>385.63</ele>
        <time>2016-12-04T14:43:11Z</time>
      </trkpt>
      <trkpt lat="43.2166" lon="0.88058">
        <ele>387.07</ele>
        <time>2016-12-04T14:43:25Z</time>
      </trkpt>
      <trkpt lat="43.2166" lon="0.88067">
        <ele>387.07</ele>
        <time>2016-12-04T14:43:31Z</time>
      </trkpt>
      <trkpt lat="43.21655" lon="0.88075">
        <ele>386.59</ele>
        <time>2016-12-04T14:43:36Z</time>
      </trkpt>
      <trkpt lat="43.21652" lon="0.88085">
        <ele>387.07</ele>
        <time>2016-12-04T14:43:44Z</time>
      </trkpt>
      <trkpt lat="43.21648" lon="0.88093">
        <ele>387.07</ele>
        <time>2016-12-04T14:43:50Z</time>
      </trkpt>
      <trkpt lat="43.21639" lon="0.88107">
        <ele>386.59</ele>
        <time>2016-12-04T14:44:03Z</time>
      </trkpt>
      <trkpt lat="43.21629" lon="0.88125">
        <ele>385.63</ele>
        <time>2016-12-04T14:44:17Z</time>
      </trkpt>
      <trkpt lat="43.21623" lon="0.88135">
        <ele>384.66</ele>
        <time>2016-12-04T14:44:26Z</time>
      </trkpt>
      <trkpt lat="43.21616" lon="0.88155">
        <ele>384.18</ele>
        <time>2016-12-04T14:44:38Z</time>
      </trkpt>
      <trkpt lat="43.2161" lon="0.88172">
        <ele>383.7</ele>
        <time>2016-12-04T14:44:50Z</time>
      </trkpt>
      <trkpt lat="43.21606" lon="0.88197">
        <ele>383.7</ele>
        <time>2016-12-04T14:45:04Z</time>
      </trkpt>
      <trkpt lat="43.21605" lon="0.88202">
        <ele>383.22</ele>
        <time>2016-12-04T14:45:07Z</time>
      </trkpt>
      <trkpt lat="43.21616" lon="0.88218">
        <ele>383.7</ele>
        <time>2016-12-04T14:45:18Z</time>
      </trkpt>
      <trkpt lat="43.21617" lon="0.88233">
        <ele>384.66</ele>
        <time>2016-12-04T14:45:26Z</time>
      </trkpt>
      <trkpt lat="43.2162" lon="0.88254">
        <ele>384.66</ele>
        <time>2016-12-04T14:45:39Z</time>
      </trkpt>
      <trkpt lat="43.2162" lon="0.8827">
        <ele>384.66</ele>
        <time>2016-12-04T14:45:51Z</time>
      </trkpt>
      <trkpt lat="43.21618" lon="0.88278">
        <ele>384.66</ele>
        <time>2016-12-04T14:46:02Z</time>
      </trkpt>
      <trkpt lat="43.21618" lon="0.88283">
        <ele>385.15</ele>
        <time>2016-12-04T14:46:14Z</time>
      </trkpt>
      <trkpt lat="43.21618" lon="0.88284">
        <ele>384.66</ele>
        <time>2016-12-04T14:46:25Z</time>
      </trkpt>
      <trkpt lat="43.2162" lon="0.88288">
        <ele>385.15</ele>
        <time>2016-12-04T14:46:35Z</time>
      </trkpt>
      <trkpt lat="43.21627" lon="0.8829">
        <ele>384.18</ele>
        <time>2016-12-04T14:46:51Z</time>
      </trkpt>
    </trkseg>
  </trk>
</gpx>